[[{"header":{"parameterUnit":"m.s-1","parameterCategory":1,"la1":30.6,"la2":28.766,"lo1":-90.7593,"lo2":-88.6598,"dy":0.0162,"dx":0.0183,"nx":116,"ny":114,"refTime":"2024-04-15T12:00:00:Z","depth":0,"parameterNumber":2,"parameterNumberName":"U-component_of_WINDS"},"data":[0.0,0.0,0.0,0.0,0.0,0.0,0.0,0.0,0.0,0.0,0.0,0.0,0.0,0.0,0.0,0.0,0.0,0.0,0.0,0.0,0.0,0.0,0.0,0.0,0.0,0.0,0.0,0.0,0.0,0.0,0.0,0.0,0.0,0.0,0.0,0.0,0.0,0.0,0.0,0.0,0.0,0.0,0.0,0.0,0.0,0.0,0.0,0.0,0.0,0.0,0.0,0.0,0.0,0.0,0.0,0.0,0.0,0.0,0.0,0.0,0.0,0.0,0.0,0.0,0.0,0.0,0.0,0.0,0.0,0.0,0.0,0.0,0.0,0.0,0.0,0.0,0.0,0.0,0.0,0.0,0.0,0.0,0.0,0.0,0.0,0.0,0.0,0.0,0.0,0.0,0.0,0.0,0.0,0.0,0.0,0.0,0.0,0.0,0.0,0.0,0.0,0.0,0.0,0.0,0.0,0.0,0.0,0.0,0.0,0.0,0.0,0.0,0.0,0.0,0.0,0.0,0.0,0.0,0.0,0.0,0.0,0.0,0.0,0.0,0.0,0.0,0.0,0.0,0.0,0.0,0.0,0.0,0.0,0.0,0.0,0.0,0.0,0.0,0.0,0.0,0.0,0.0,0.0,0.0,0.0,0.0,0.0,0.0,0.0,0.0,0.0,0.0,0.0,0.0,0.0,0.0,0.0,0.0,0.0,0.0,0.0,0.0,0.0,0.0,0.0,0.0,0.0,0.0,0.0,0.0,0.0,0.0,0.0,0.0,0.0,0.0,0.0,0.0,0.0,0.0,0.0,0.0,0.0,0.0,0.0,0.0,0.0,0.0,0.0,0.0,0.0,0.0,0.0,0.0,0.0,0.0,0.0,0.0,0.0,0.0,0.0,0.0,0.0,0.0,0.0,0.0,0.0,0.0,0.0,0.0,0.0,0.0,0.0,0.0,0.0,0.0,0.0,0.0,0.0,0.0,0.0,0.0,0.0,0.0,0.0,0.0,0.0,0.0,0.0,0.0,0.0,0.0,0.0,0.0,0.0,0.0,0.0,0.0,0.0,0.0,0.0,0.0,0.0,0.0,0.0,0.0,0.0,0.0,0.0,0.0,0.0,0.0,0.0,0.0,0.0,0.0,0.0,0.0,0.0,0.0,0.0,0.0,0.0,0.0,0.0,0.0,0.0,0.0,0.0,0.0,0.0,0.0,0.0,0.0,0.0,0.0,0.0,0.0,0.0,0.0,0.0,0.0,0.0,0.0,0.0,0.0,0.0,0.0,0.0,0.0,0.0,0.0,0.0,0.0,0.0,0.0,0.0,0.0,0.0,0.0,0.0,0.0,0.0,0.0,0.0,0.0,0.0,0.0,0.0,0.0,0.0,0.0,0.0,0.0,0.0,0.0,0.0,0.0,0.0,0.0,0.0,0.0,0.0,0.0,0.0,0.0,0.0,0.0,0.0,0.0,0.0,0.0,0.0,0.0,0.0,0.0,0.0,0.0,0.0,0.0,0.0,0.0,0.0,0.0,0.0,0.0,0.0,0.0,0.0,0.0,0.0,0.0,0.0,0.0,0.0,0.0,0.0,0.0,0.0,0.0,0.0,0.0,0.0,0.0,0.0,0.0,0.0,0.0,0.0,0.0,0.0,0.0,0.0,0.0,0.0,0.0,0.0,0.0,0.0,0.0,0.0,0.0,0.0,0.0,0.0,0.0,0.0,0.0,0.0,0.0,0.0,0.0,0.0,0.0,0.0,0.0,0.0,0.0,0.0,0.0,0.0,0.0,0.0,0.0,0.0,0.0,0.0,0.0,0.0,0.0,0.0,0.0,0.0,0.0,0.0,0.0,0.0,0.0,0.0,0.0,0.0,0.0,0.0,0.0,0.0,0.0,0.0,0.0,0.0,0.0,0.0,0.0,0.0,0.0,0.0,0.0,0.0,0.0,0.0,0.0,0.0,0.0,0.0,0.0,0.0,0.0,0.0,0.0,0.0,0.0,0.0,0.0,0.0,0.0,0.0,0.0,0.0,0.0,0.0,0.0,0.0,0.0,0.0,0.0,0.0,0.0,0.0,0.0,0.0,0.0,0.0,0.0,0.0,0.0,0.0,0.0,0.0,0.0,0.0,0.0,0.0,0.0,0.0,0.0,0.0,0.0,0.0,0.0,0.0,0.0,0.0,0.0,0.0,0.0,0.0,0.0,0.0,0.0,0.0,0.0,0.0,0.0,0.0,0.0,0.0,0.0,0.0,0.0,0.0,0.0,0.0,0.0,0.0,0.0,0.0,0.0,0.0,0.0,0.0,0.0,0.0,0.0,0.0,0.0,0.0,0.0,0.0,0.0,0.0,0.0,0.0,0.0,0.0,0.0,0.0,0.0,0.0,0.0,0.0,0.0,0.0,0.0,0.0,0.0,0.0,0.0,0.0,0.0,0.0,0.0,0.0,0.0,0.0,0.0,0.0,0.0,0.0,0.0,0.0,0.0,0.0,0.0,0.0,0.0,0.0,0.0,0.0,0.0,0.0,0.0,0.0,0.0,0.0,0.0,0.0,0.0,0.0,0.0,0.0,0.0,0.0,0.0,0.0,0.0,0.0,0.0,0.0,0.0,0.0,0.0,0.0,0.0,0.0,0.0,0.0,0.0,0.0,0.0,0.0,0.0,0.0,0.0,0.0,0.0,0.0,0.0,0.0,0.0,0.0,0.0,0.0,0.0,0.0,0.0,0.0,0.0,0.0,0.0,0.0,0.0,0.0,0.0,0.0,0.0,0.0,0.0,0.0,0.0,0.0,0.0,0.0,0.0,0.0,0.0,0.0,0.0,0.0,0.0,0.0,0.0,0.0,0.0,0.0,0.0,0.0,0.0,0.0,0.0,0.0,0.0,0.0,0.0,0.0,0.0,0.0,0.0,0.0,0.0,0.0,0.0,0.0,0.0,0.0,0.0,0.0,0.0,0.0,0.0,0.0,0.0,0.0,0.0,0.0,0.0,0.0,0.0,0.0,0.0,0.0,0.0,0.0,0.0,0.0,0.0,0.0,0.0,0.0,0.0,0.0,0.0,0.0,0.0,0.0,0.0,0.0,0.0,0.0,0.0,0.0,0.0,0.0,0.0,0.0,0.0,0.0,0.0,0.0,0.0,0.0,0.0,0.0,0.0,0.0,0.0,0.0,0.0,0.0,0.0,0.0,0.0,0.0,0.0,0.0,0.0,0.0,0.0,0.0,0.0,0.0,0.0,0.0,0.0,0.0,0.0,0.0,0.0,0.0,0.0,0.0,0.0,0.0,0.0,0.0,0.0,0.0,0.0,0.0,0.0,0.0,0.0,0.0,0.0,0.0,0.0,0.0,0.0,0.0,0.0,0.0,0.0,0.0,0.0,0.0,0.0,0.0,0.0,0.0,0.0,0.0,0.0,0.0,0.0,0.0,0.0,0.0,0.0,0.0,0.0,0.0,0.0,0.0,0.0,0.0,0.0,0.0,0.0,0.0,0.0,0.0,0.0,0.0,0.0,0.0,0.0,0.0,0.0,0.0,0.0,0.0,0.0,0.0,0.0,0.0,0.0,0.0,0.0,0.0,0.0,0.0,0.0,0.0,0.0,0.0,0.0,0.0,0.0,0.0,0.0,0.0,0.0,0.0,0.0,0.0,0.0,0.0,0.0,0.0,0.0,0.0,0.0,0.0,0.0,0.0,0.0,0.0,0.0,0.0,0.0,0.0,0.0,0.0,0.0,0.0,0.0,0.0,0.0,0.0,0.0,0.0,0.0,0.0,0.0,0.0,0.0,0.0,0.0,0.0,0.0,0.0,0.0,0.0,0.0,0.0,0.0,0.0,0.0,0.0,0.0,0.0,0.0,0.0,0.0,0.0,0.0,0.0,0.0,0.0,0.0,0.0,0.0,0.0,0.0,0.0,0.0,0.0,0.0,0.0,0.0,0.0,0.0,0.0,0.0,0.0,0.0,0.0,0.0,0.0,0.0,0.0,0.0,0.0,0.0,0.0,0.0,0.0,0.0,0.0,0.0,0.0,0.0,0.0,0.0,0.0,0.0,0.0,0.0,0.0,0.0,0.0,0.0,0.0,0.0,0.0,0.0,0.0,0.0,0.0,0.0,0.0,0.0,0.0,0.0,0.0,0.0,0.0,0.0,0.0,0.0,0.0,0.0,0.0,0.0,0.0,0.0,0.0,0.0,0.0,0.0,0.0,0.0,0.0,0.0,0.0,0.0,0.0,0.0,0.0,0.0,0.0,0.0,0.0,0.0,0.0,0.0,0.0,0.0,0.0,0.0,0.0,0.0,0.0,0.0,0.0,0.0,0.0,0.0,0.0,0.0,0.0,0.0,0.0,0.0,0.0,0.0,0.0,0.0,0.0,0.0,0.0,0.0,0.0,0.0,0.0,0.0,0.0,0.0,0.0,0.0,0.0,0.0,0.0,0.0,0.0,0.0,0.0,0.0,0.0,0.0,0.0,0.0,0.0,0.0,0.0,0.0,0.0,0.0,0.0,0.0,0.0,0.0,0.0,0.0,0.0,0.0,0.0,0.0,0.0,0.0,0.0,0.0,0.0,0.0,0.0,0.0,0.0,0.0,0.0,0.0,0.0,0.0,0.0,0.0,0.0,0.0,0.0,0.0,0.0,0.0,0.0,0.0,0.0,0.0,0.0,0.0,0.0,0.0,0.0,0.0,0.0,0.0,0.0,0.0,0.0,0.0,0.0,0.0,0.0,0.0,0.0,0.0,0.0,0.0,0.0,0.0,0.0,0.0,0.0,0.0,0.0,0.0,0.0,0.0,0.0,0.0,0.0,0.0,0.0,0.0,0.0,0.0,0.0,0.0,0.0,0.0,0.0,0.0,0.0,0.0,0.0,0.0,0.0,0.0,0.0,0.0,0.0,0.0,0.0,0.0,0.0,0.0,0.0,0.0,0.0,0.0,0.0,0.0,0.0,0.0,0.0,0.0,0.0,0.0,0.0,0.0,0.0,0.0,0.0,0.0,0.0,0.0,0.0,0.0,0.0,0.0,0.0,0.0,0.0,0.0,0.0,0.0,0.0,0.0,0.0,0.0,0.0,0.0,0.0,0.0,0.0,0.0,0.0,0.0,0.0,0.0,0.0,0.0,0.0,0.0,0.0,0.0,0.0,0.0,0.0,0.0,0.0,0.0,0.0,0.0,0.0,0.0,0.0,0.0,0.0,0.0,0.0,0.0,0.0,0.0,0.0,0.0,0.0,0.0,0.0,0.0,0.0,0.0,0.0,0.0,0.0,0.0,0.0,0.0,0.0,0.0,0.0,0.0,0.0,0.0,0.0,0.0,0.0,0.0,0.0,0.0,0.0,0.0,0.0,0.0,0.0,0.0,0.0,0.0,0.0,0.0,0.0,0.0,0.0,0.0,0.0,0.0,0.0,0.0,0.0,0.0,0.0,0.0,0.0,0.0,0.0,0.0,0.0,0.0,0.0,0.0,0.0,0.0,0.0,0.0,0.0,0.0,0.0,0.0,0.0,0.0,0.0,0.0,0.0,0.0,0.0,0.0,0.0,0.0,0.0,0.0,0.0,0.0,0.0,0.0,0.0,0.0,0.0,0.0,0.0,0.0,0.0,0.0,0.0,0.0,0.0,0.0,0.0,0.0,0.0,0.0,0.0,0.0,0.0,0.0,0.0,0.0,0.0,0.0,0.0,0.0,0.0,0.0,0.0,0.0,0.0,0.0,0.0,0.0,0.0,0.0,0.0,0.0,0.0,0.0,0.0,0.0,0.0,0.0,0.0,0.0,0.0,0.0,0.0,0.0,0.0,0.0,0.0,0.0,0.0,0.0,0.0,0.0,0.0,0.0,0.0,0.0,0.0,0.0,0.0,0.0,0.0,0.0,0.0,0.0,0.0,0.0,0.0,0.0,0.0,0.0,0.0,0.0,0.0,0.0,0.0,0.0,0.0,0.0,0.0,0.0,0.0,0.0,0.0,0.0,0.0,0.0,0.0,0.0,0.0,0.0,0.0,0.0,0.0,0.0,0.0,0.0,0.0,0.0,0.0,0.0,0.0,0.0,0.0,0.0,0.0,0.0,0.0,0.0,0.0,0.0,0.0,0.0,0.0,0.0,0.0,0.0,2.4458,0.0,0.0,0.0,0.0,0.0,0.0,0.0,0.0,0.0,0.0,0.0,0.0,0.0,0.0,0.0,0.0,0.0,0.0,0.0,0.0,0.0,0.0,0.0,0.0,0.6903,0.698,0.718,0.7557,0.8385,0.982,0.0,0.0,0.0,0.0,0.0,1.3005,1.3524,1.395,1.4238,1.5079,1.5446,1.5409,1.5082,1.5124,1.5541,0.0,0.0,0.0,0.0,0.0,0.0,0.0,0.0,0.0,0.0,0.0,0.0,0.0,0.0,0.0,0.0,0.0,0.0,0.0,0.0,0.0,0.0,0.0,0.0,0.0,0.0,0.0,0.0,0.0,0.0,0.0,0.0,0.0,0.0,0.0,0.0,0.0,0.0,0.0,0.0,0.0,0.0,0.0,0.0,0.0,0.0,0.0,0.0,0.0,0.0,0.0,0.0,0.0,0.0,0.0,0.0,0.0,0.0,0.0,0.0,0.0,0.0,0.0,0.0,0.0,0.0,0.0,0.0,0.0,0.0,0.0,2.4374,0.0,0.0,0.0,0.0,0.0,0.0,0.0,0.0,0.0,0.0,0.0,0.0,0.0,0.0,0.0,0.0,0.0,0.0,0.0,0.0,0.0,0.6753,0.6942,0.698,0.7057,0.7257,0.7974,0.8889,0.9916,1.0721,1.1677,1.2812,1.2864,1.3012,1.328,1.4379,1.4933,1.483,1.5352,1.545,1.5208,1.5173,1.5333,1.5692,1.5499,0.0,0.0,0.0,0.0,0.0,0.0,0.0,0.0,0.0,0.0,0.0,0.0,0.0,0.0,0.0,0.0,0.0,0.0,0.0,0.0,0.0,0.0,0.0,0.0,0.0,0.0,0.0,0.0,0.0,0.0,0.0,0.0,0.0,0.0,0.0,0.0,0.0,0.0,0.0,0.0,0.0,0.0,0.0,0.0,0.0,0.0,0.0,0.0,0.0,0.0,0.0,0.0,0.0,0.0,0.0,0.0,0.0,0.0,0.0,0.0,0.0,0.0,0.0,2.1013,2.0998,2.0458,2.1019,2.103,2.0745,2.2798,2.3475,2.3103,2.2329,0.0,0.0,0.0,0.0,0.0,0.0,0.0,0.0,0.0,0.0,0.0,0.0,0.0,0.0,0.0,0.0,0.0,0.0,0.0,0.7142,0.7142,0.733,0.7442,0.7446,0.8203,0.9115,1.018,1.102,1.1964,1.3094,1.3153,1.3287,1.354,1.4648,1.4995,1.4462,1.4929,1.5333,1.5609,1.5423,1.5458,1.5692,1.5484,0.0,0.0,0.0,0.0,0.0,0.0,0.0,0.0,0.0,0.0,0.0,0.0,0.0,0.0,0.0,0.0,0.0,0.0,0.0,0.0,0.0,0.0,0.0,0.0,0.0,0.0,0.0,0.0,0.0,0.0,0.0,0.0,0.0,0.0,0.0,0.0,0.0,0.0,0.0,0.0,0.0,0.0,0.0,1.6062,1.6137,0.0,0.0,0.0,0.0,0.0,0.0,0.0,0.0,0.0,0.0,0.0,0.0,0.0,1.8945,1.9759,2.0109,2.0066,1.9674,1.964,1.9578,1.9479,1.9587,1.9859,2.0284,2.06,0.0,2.0226,1.9981,0.0,0.0,0.0,0.0,0.0,0.0,0.0,0.0,0.0,0.0,0.0,0.0,0.0,0.0,0.0,0.0,0.0,0.0,0.0,0.0,0.0,0.794,0.828,0.8169,0.9566,1.0605,1.0944,1.1805,1.258,1.3239,1.3252,1.3383,1.3666,1.44,1.4794,1.4783,1.4999,1.5257,1.5541,1.5423,1.5465,1.5541,1.5567,1.4629,1.3021,1.3148,0.0,0.0,0.0,0.0,0.0,0.0,0.0,0.0,0.0,0.0,0.0,0.0,0.0,0.0,0.0,0.0,0.0,0.0,0.0,0.0,0.0,0.0,0.0,0.0,0.0,0.0,0.0,0.0,0.0,0.0,0.0,0.0,0.0,0.0,0.0,0.0,0.0,0.0,0.0,1.575,1.5972,1.6057,1.5758,1.5459,0.0,0.0,0.0,0.0,0.0,0.0,0.0,0.0,0.0,1.8118,1.8156,1.8674,1.9716,1.9206,1.9065,1.9212,1.8775,1.8585,1.8585,1.8585,1.8873,1.9359,1.9359,1.9051,1.859,1.8986,1.8863,1.8264,0.0,0.0,0.0,0.0,1.5614,1.6182,0.0,0.0,0.0,0.0,0.0,0.0,0.0,0.0,0.0,0.0,0.0,0.0,0.7526,0.8246,0.8742,0.8851,1.0538,1.1522,1.136,1.2508,1.3164,1.3156,1.3383,1.3605,1.3822,1.4237,1.4817,1.5492,1.5298,1.5257,1.5389,1.5389,1.5389,1.5431,1.5541,1.4594,1.2887,1.319,1.2083,0.0,0.0,0.0,0.0,0.0,0.0,0.0,0.0,0.0,0.0,0.0,0.0,0.0,0.0,0.0,0.0,0.0,0.0,0.0,0.0,0.0,0.0,0.0,0.0,0.0,0.0,0.0,0.0,0.0,0.0,0.0,0.0,0.0,0.0,0.0,0.0,0.0,0.0,1.5701,1.5944,1.61,1.5873,1.5646,0.0,0.0,0.0,0.0,0.0,0.0,1.6286,1.679,1.7273,1.7713,1.7939,1.8503,1.9392,1.8656,1.8425,1.8727,1.8233,1.8,1.8,1.8,1.8201,1.8531,1.8531,1.8144,1.756,1.8293,1.8171,1.7429,1.6147,1.5812,1.5992,1.5061,1.5144,1.5677,0.0,0.0,0.0,0.0,0.0,0.0,0.0,0.0,0.0,0.0,0.0,0.6633,0.7684,0.7842,0.825,0.9188,1.0341,1.1009,1.0935,1.2815,1.3569,1.276,1.3591,1.4068,1.4088,1.4489,1.5304,1.6617,1.5782,1.5389,1.5389,1.5389,1.5389,1.5389,1.5431,1.465,1.336,1.3099,1.2083,1.0549,0.0,0.0,0.0,0.0,0.0,0.0,0.0,0.0,0.0,0.0,0.0,0.0,0.0,0.0,0.0,0.0,0.0,0.0,0.0,0.0,0.0,0.0,0.0,0.0,0.0,0.0,0.0,0.0,0.0,0.0,0.0,0.0,0.0,0.0,0.0,0.0,0.0,0.0,0.0,1.6642,1.6642,0.0,0.0,0.0,0.0,1.7857,1.8656,1.8766,1.7937,1.7906,1.7762,1.7448,1.7971,1.8221,1.8112,1.8647,1.8656,1.8031,1.804,1.8,1.8,1.8,1.7991,1.804,1.804,1.7659,1.7074,1.756,1.7341,1.6561,1.573,1.616,1.7025,1.533,1.5255,1.5846,0.0,0.0,0.0,0.0,0.0,0.2002,0.2003,0.2784,0.3756,0.4688,0.5616,0.6623,0.7684,0.8479,0.8998,0.9112,1.0352,1.1339,1.1758,1.2528,1.2891,1.2693,1.3434,1.4033,1.4489,1.479,1.5242,1.5865,1.5548,1.5389,1.5389,1.4831,1.4573,1.4524,1.3922,1.3063,1.2089,1.2893,1.2382,1.102,1.0549,1.025,0.0,0.0,0.0,0.0,0.0,0.0,0.0,0.0,0.0,0.0,0.0,0.0,0.0,0.0,0.0,0.0,0.0,0.0,0.0,0.0,0.0,0.0,0.0,0.0,0.0,0.0,0.0,0.0,0.0,0.0,0.0,0.0,0.0,0.0,0.0,0.0,0.0,1.4796,1.5318,0.0,1.4977,1.5884,1.6296,1.5745,1.6657,1.6821,1.5936,1.646,1.6689,1.6582,1.6771,1.6542,1.5869,1.6706,1.6412,1.4983,1.6221,1.6476,1.591,1.6517,1.6902,1.7139,1.7139,1.646,1.5323,1.5523,1.526,1.4622,1.348,1.3643,1.4427,1.336,1.3226,1.3497,0.0,0.0,0.0,0.0,0.0,0.2157,0.2003,0.286,0.3834,0.4608,0.5648,0.6696,0.7684,0.8589,0.9112,0.9112,1.0083,1.1026,1.1798,1.1904,1.2171,1.2693,1.347,1.4237,1.4824,1.4999,1.5215,1.5389,1.5131,1.4957,1.4957,1.4055,1.362,1.362,1.2978,1.2334,1.1789,1.2431,1.196,1.0809,1.0506,1.025,0.9994,0.0,0.0,0.0,0.0,0.0,0.0,0.0,0.0,0.0,0.0,0.0,0.0,0.0,0.0,0.0,0.0,0.0,0.0,0.0,0.0,0.0,0.0,0.0,0.0,0.0,0.0,0.0,0.0,0.0,0.0,0.0,0.0,0.0,0.0,0.0,1.3408,1.336,1.4048,1.4433,1.4223,1.4887,1.5269,1.4985,1.536,1.5477,1.5179,1.5477,1.5782,1.6087,1.6087,1.5658,1.4706,1.5304,1.4845,1.3311,1.4545,1.4845,1.4238,1.4887,1.5311,1.5545,1.5545,1.4831,1.3691,1.3558,1.3171,1.2577,1.1832,1.1929,1.2357,1.1929,1.1832,1.1863,0.0,0.0,0.0,0.0,0.0,0.2196,0.2196,0.3091,0.3986,0.4608,0.5729,0.6815,0.7684,0.7991,0.8403,0.9188,0.9576,1.0071,1.0791,1.0928,1.1461,1.2601,1.3717,1.4566,1.5048,1.4999,1.5131,1.5347,1.4482,1.4055,1.4055,1.3105,1.2674,1.2674,1.2632,1.2632,1.2547,1.166,1.0766,0.9994,0.9994,0.9994,0.9994,0.0,0.0,0.0,0.0,0.0,0.0,0.0,0.0,0.0,0.0,0.0,0.0,0.0,0.0,0.0,0.0,0.0,0.0,0.0,0.0,0.0,0.0,0.0,0.0,0.0,0.0,0.0,0.0,0.0,0.0,0.0,0.0,0.0,1.1198,1.1837,1.2351,1.2589,1.3014,1.3529,1.4223,1.4503,1.5005,1.5914,1.5179,1.5054,1.5963,1.5179,1.5088,1.5963,1.6004,1.5526,1.4615,1.4615,1.4154,1.3184,1.3269,1.3269,1.3226,1.3269,1.3269,1.3269,1.3269,1.2893,1.2223,1.1869,1.1268,1.0636,1.1063,1.1284,1.1284,1.1284,1.1278,1.1149,0.0,0.0,0.0,0.1848,0.208,0.2157,0.2004,0.2862,0.3754,0.4414,0.5529,0.6657,0.7684,0.7991,0.814,0.8217,0.8415,0.894,0.9771,0.9978,1.0559,1.1655,1.2169,1.2893,1.3837,1.336,1.3529,1.444,1.3535,1.3063,1.3063,1.2126,1.166,1.166,1.102,1.0717,1.0722,1.0467,1.0207,0.9994,0.9994,0.9994,0.9994,0.0,0.0,0.0,0.0,0.0,0.0,0.0,0.0,0.0,0.0,0.0,0.0,0.0,0.0,0.0,0.0,0.0,0.0,0.0,0.0,0.0,0.0,0.0,0.0,0.0,0.0,0.0,0.0,0.0,0.0,0.0,1.0168,1.0424,1.1628,1.1365,1.1106,1.1187,1.1875,1.2308,1.218,1.2802,1.3353,1.3613,1.4041,1.4084,1.3656,1.4041,1.4084,1.3656,1.3613,1.3184,1.2254,1.293,1.2462,1.0933,1.2248,1.2504,1.1875,1.2553,1.2845,1.2845,1.2845,1.2382,1.158,1.1451,1.0933,1.0164,1.0294,1.0554,1.0809,1.0809,1.0284,0.941,0.0,0.0,0.0,0.1768,0.1924,0.2003,0.1807,0.294,0.3951,0.4334,0.5764,0.6969,0.7603,0.7838,0.7876,0.7684,0.7871,0.8348,0.9163,0.9888,1.04,1.0697,1.1348,1.2035,1.2802,1.237,1.2541,1.336,1.2425,1.204,1.2083,1.1192,1.0766,1.0722,1.0207,0.9994,0.9994,0.9994,0.9994,0.9994,0.9994,0.9994,0.9994,0.9994,1.0164,1.0337,1.0337,1.0636,1.0982,1.0679,0.0,0.0,0.0,0.0,0.0,0.0,0.0,0.0,0.0,0.0,0.0,0.0,0.0,0.0,0.0,0.0,0.0,0.0,0.0,0.0,0.0,0.0,0.0,0.0,0.9994,1.0255,1.1068,1.0684,1.0337,1.0337,1.0809,1.1198,1.1278,1.1789,1.2297,1.2674,1.2857,1.2857,1.2717,1.2857,1.2857,1.2717,1.2717,1.2254,1.1327,1.1832,1.1402,0.9994,1.1058,1.1273,1.0766,1.1316,1.1569,1.1569,1.1569,1.1273,1.0766,1.0766,1.0467,0.0,0.0,0.0,0.0,0.0,0.9545,0.8321,0.0,0.0,0.0,0.1611,0.1729,0.1808,0.1611,0.3214,0.4382,0.4411,0.6195,0.7484,0.7484,0.7642,0.7684,0.7522,0.7634,0.8045,0.8805,1.0095,1.0499,0.9792,1.0875,1.1601,1.1815,1.1686,1.1815,1.2114,1.1235,1.0895,1.1111,1.0337,0.9951,0.9994,0.9994,0.9994,0.9994,0.9994,0.9994,0.9994,0.9994,0.9994,0.9994,0.9994,1.0038,1.0081,1.0081,1.0337,1.0679,1.0679,0.0,0.0,0.0,0.0,0.0,0.0,0.0,0.0,0.0,0.0,0.0,0.0,0.0,0.0,0.0,0.0,0.0,0.0,0.0,0.0,0.0,0.0,0.0,0.0,0.9994,0.9994,0.9994,0.9994,0.9994,0.9994,0.9994,1.0294,1.1068,1.1154,1.1537,1.2462,1.1789,1.166,1.2504,0.0,0.0,0.0,0.0,1.1997,1.1106,1.1111,1.0722,0.9907,0.9907,0.9907,0.9907,0.9951,0.9951,0.9907,0.9994,0.9951,0.9907,0.9951,0.9951,0.9907,0.9907,0.9864,0.9859,0.9772,0.889,0.7698,0.0,0.0,0.0,0.1572,0.165,0.165,0.1611,0.3214,0.4382,0.4411,0.6083,0.7334,0.7484,0.7522,0.7522,0.7522,0.7405,0.7482,0.7914,0.9005,0.9382,0.8859,0.9767,1.0366,1.0616,0.9893,0.9985,1.0928,1.0077,0.9733,0.9903,0.9777,0.9777,0.9994,0.9994,0.9994,0.9994,0.9994,0.9994,0.9994,0.9994,0.9994,0.9994,0.9994,1.0207,1.0463,1.0463,1.0766,1.1154,1.1154,1.1235,1.1284,1.1284,0.0,0.0,0.0,0.0,0.0,0.0,0.0,0.0,0.0,0.0,0.0,0.0,0.0,0.0,0.0,0.0,0.0,0.0,0.0,0.0,0.9994,0.9994,0.9994,0.9994,0.9994,0.9994,0.9994,0.9994,1.0081,1.0255,1.025,1.0641,1.1488,1.1408,1.1365,1.158,1.1408,1.1068,1.0549,1.0506,1.0332,0.9946,0.9946,0.9777,0.9432,0.0,0.0,0.9432,0.9607,0.9607,0.9476,0.9825,0.9777,0.9432,0.9602,0.9559,0.9432,0.92,0.9109,0.9021,0.8448,0.7702,0.6953,0.0,0.0,0.0,0.1415,0.1454,0.1454,0.1454,0.2588,0.3485,0.3597,0.4802,0.5893,0.6475,0.6553,0.6707,0.7173,0.7177,0.7333,0.7799,0.832,0.8584,0.8604,0.8999,0.9297,0.9462,0.8995,0.9087,0.9728,0.9301,0.9218,0.9432,0.9563,0.9689,0.982,0.9951,0.9994,0.9994,0.9994,0.9994,0.9994,0.9994,0.9994,0.9994,0.9994,1.0125,1.0294,1.0294,1.0593,1.0939,1.0939,1.1111,1.1284,1.1284,1.0761,1.0106,0.0,0.0,0.0,0.0,0.0,0.0,0.0,0.0,0.0,0.0,0.0,0.0,0.0,0.0,0.9331,0.8978,0.0,0.889,0.889,0.92,0.9462,0.9462,0.9641,0.9864,0.9994,0.9994,0.9951,0.982,0.982,0.9951,1.025,1.0294,1.0294,1.0294,1.0294,1.0077,0.965,0.965,0.9607,0.9432,0.9432,0.9388,0.9305,0.9305,0.9305,0.9305,0.9388,0.9388,0.9305,0.9563,0.9519,0.9257,0.8855,0.8364,0.779,0.7346,0.7654,0.8229,0.7386,0.6684,0.6068,0.0,0.0,0.0,0.1296,0.1296,0.1296,0.1296,0.2002,0.2588,0.2779,0.356,0.4416,0.527,0.5506,0.5931,0.6788,0.7027,0.7317,0.7793,0.7885,0.8107,0.8503,0.8592,0.8612,0.8612,0.8612,0.8696,0.8823,0.8823,0.8999,0.9305,0.9476,0.9607,0.9689,0.9907,0.9994,0.9994,0.9994,0.9994,0.9994,0.9994,0.9994,0.9994,0.9994,0.9994,0.9994,0.9994,1.0207,1.0506,1.0549,1.0766,1.0977,1.1063,1.0318,0.9405,0.9405,0.8619,0.0,0.0,0.0,0.0,0.0,0.0,0.0,0.0,0.0,0.8536,0.7921,0.8273,0.8492,0.7921,0.779,0.7753,0.7698,0.8188,0.8557,0.8456,0.8956,0.9403,0.9623,0.9779,0.9777,0.9559,0.9559,0.9476,0.9305,0.9305,0.9305,0.9305,0.9305,0.9305,0.9305,0.9305,0.9262,0.9218,0.9038,0.8903,0.8863,0.8684,0.8684,0.8863,0.8947,0.9038,0.9174,0.9174,0.9087,0.8903,0.8013,0.7126,0.6195,0.5447,0.598,0.7037,0.6284,0.5667,0.5184,0.0,0.0,0.0,0.0,0.0,0.1296,0.1296,0.2002,0.2588,0.2779,0.356,0.4222,0.4489,0.5154,0.5896,0.656,0.6964,0.7172,0.7199,0.7714,0.8084,0.8312,0.8522,0.8612,0.8612,0.8612,0.8612,0.8656,0.8656,0.8872,0.9305,0.9301,0.9563,0.9951,0.9994,0.9994,0.9994,0.9994,0.9994,0.9994,0.9994,0.9994,0.9994,0.9994,0.9994,0.9994,0.9994,1.0038,1.0125,1.0463,1.0241,0.9884,1.0274,0.957,0.8611,0.8611,0.8221,0.779,0.779,0.7921,0.7874,0.7261,0.7526,0.7921,0.0,0.0,0.7921,0.7834,0.7878,0.7878,0.7834,0.779,0.7701,0.7347,0.7322,0.7279,0.6898,0.7705,0.8355,0.8401,0.8963,0.9345,0.9349,0.9349,0.9301,0.9305,0.9305,0.9305,0.9305,0.9305,0.9305,0.9305,0.9305,0.9174,0.8955,0.8109,0.758,0.7316,0.6517,0.6517,0.736,0.7577,0.8069,0.87,0.87,0.8292,0.7665,0.7316,0.6605,0.5675,0.4788,0.452,0.4696,0.4565,0.4476,0.4342,0.0,0.0,0.0,0.0,0.0,0.1296,0.1296,0.1571,0.1845,0.1922,0.2665,0.3405,0.3986,0.5234,0.6138,0.6412,0.6795,0.7056,0.7103,0.758,0.7992,0.8276,0.8365,0.8498,0.8608,0.8612,0.8652,0.8784,0.8652,0.8828,0.9305,0.9305,0.9476,0.9777,0.9907,0.9994,0.9994,0.9994,0.9994,0.9994,0.9994,0.9994,0.9994,0.9994,0.9728,0.9375,0.9375,0.9069,0.0,0.0,0.8794,0.8575,0.879,0.8221,0.7518,0.7518,0.7088,0.6741,0.7441,0.7441,0.7217,0.7221,0.7221,0.7088,0.6697,0.6915,0.7088,0.6653,0.6915,0.7112,0.6754,0.6451,0.6176,0.0,0.6139,0.6153,0.597,0.6582,0.7282,0.7898,0.76,0.7847,0.9228,0.8808,0.8341,0.8207,0.7583,0.7445,0.7981,0.8021,0.8292,0.8872,0.8332,0.7981,0.7848,0.6915,0.6384,0.6296,0.5897,0.5933,0.6358,0.6448,0.6674,0.6988,0.691,0.6428,0.5628,0.5497,0.4921,0.4032,0.3631,0.3499,0.3499,0.3499,0.3499,0.3454,0.0,0.0,0.0,0.0,0.0,0.1296,0.1296,0.1296,0.1375,0.1609,0.2119,0.2899,0.4027,0.5201,0.6025,0.6261,0.6676,0.6956,0.7036,0.7529,0.7935,0.8199,0.8264,0.8377,0.8608,0.8612,0.8696,0.8911,0.874,0.8911,0.9388,0.9388,0.9519,0.9733,0.9907,0.9994,0.9994,0.9994,0.9994,0.9994,0.9994,0.9994,0.9994,0.9994,0.9419,0.8627,0.8846,0.8404,0.0,0.0,0.7654,0.7526,0.7526,0.7044,0.6517,0.6517,0.6127,0.5863,0.6605,0.665,0.6561,0.6918,0.6741,0.6343,0.5822,0.6127,0.6343,0.5822,0.6153,0.6376,0.5794,0.5376,0.5106,0.4925,0.4986,0.499,0.4875,0.5401,0.6114,0.6885,0.6404,0.6691,0.8416,0.7805,0.7181,0.7001,0.6227,0.6026,0.6707,0.6751,0.7047,0.7764,0.7095,0.6697,0.6697,0.5764,0.5322,0.5322,0.5053,0.5105,0.543,0.5693,0.5844,0.5839,0.5772,0.5185,0.4332,0.4308,0.3765,0.292,0.292,0.292,0.292,0.292,0.292,0.292,0.0,0.0,0.0,0.0,0.0,0.1296,0.1296,0.1296,0.1571,0.2354,0.247,0.3134,0.4768,0.5004,0.5395,0.6222,0.6676,0.6903,0.6911,0.7462,0.7877,0.8012,0.8195,0.8377,0.8608,0.8612,0.8696,0.8911,0.8911,0.9126,0.9602,0.9602,0.9733,0.9994,0.9994,0.9994,0.9994,0.9994,0.9994,0.9994,0.9994,0.9994,0.9994,0.9994,0.9109,0.7921,0.8627,0.0,0.0,0.779,0.7349,0.682,0.682,0.6343,0.0,0.5733,0.5733,0.5599,0.5188,0.5416,0.5733,0.5733,0.5733,0.5733,0.5688,0.5733,0.5733,0.5688,0.5822,0.5761,0.5213,0.5207,0.4975,0.41,0.3966,0.3795,0.3316,0.4176,0.4876,0.4876,0.5767,0.6412,0.0,0.6152,0.5968,0.5968,0.5918,0.5865,0.5842,0.5837,0.5833,0.5766,0.5764,0.5764,0.5764,0.4832,0.4342,0.4344,0.3409,0.3489,0.4474,0.545,0.5873,0.5915,0.5842,0.5242,0.4414,0.4332,0.3765,0.292,0.292,0.292,0.292,0.292,0.292,0.292,0.0,0.0,0.0,0.0,0.0,0.0,0.208,0.208,0.2392,0.3248,0.3834,0.0,0.0,0.0,0.0,0.0,0.6676,0.6903,0.6903,0.7467,0.7898,0.8074,0.8386,0.8657,0.8798,0.8974,0.9174,0.9345,0.9213,0.9388,0.9864,0.9689,0.9733,0.9994,0.9994,0.9994,0.9994,0.9994,0.9994,0.9994,0.9994,0.9994,0.9951,0.9462,0.8667,0.779,0.0,0.0,0.639,0.639,0.6257,0.6083,0.6083,0.5908,0.5688,0.5688,0.5463,0.528,0.5416,0.5597,0.5688,0.5688,0.5688,0.5688,0.5688,0.5688,0.571,0.5831,0.5603,0.5352,0.5356,0.4829,0.4296,0.4033,0.3646,0.3356,0.3228,0.3531,0.3982,0.4734,0.4481,0.0,0.0,0.0,0.0,0.5085,0.4452,0.4313,0.4891,0.4935,0.5215,0.5745,0.5151,0.4804,0.4788,0.3855,0.3365,0.3365,0.3093,0.3122,0.3465,0.3865,0.4042,0.404,0.4013,0.3814,0.3532,0.351,0.3315,0.3037,0.3037,0.3037,0.3037,0.3037,0.3037,0.3032,0.0,0.0,0.0,0.0,0.0,0.0,0.0,0.0,0.0,0.0,0.0,0.0,0.0,0.0,0.0,0.0,0.0,0.6791,0.6791,0.7296,0.7647,0.7859,0.8188,0.8494,0.87,0.8875,0.9061,0.9345,0.9301,0.9476,0.9864,0.9777,0.982,0.9994,0.9994,0.9994,0.9994,0.9994,0.9864,0.9598,0.9598,0.9462,0.9157,0.8671,0.8053,0.0,0.0,0.0,0.5688,0.5688,0.5688,0.5644,0.5285,0.4971,0.479,0.5282,0.5102,0.4832,0.5327,0.5552,0.5688,0.5688,0.5552,0.5463,0.5463,0.5329,0.5225,0.5331,0.5106,0.4904,0.492,0.4385,0.3877,0.3725,0.343,0.318,0.318,0.318,0.3432,0.4133,0.3632,0.3482,0.0,0.0,0.0,0.4157,0.3526,0.3394,0.3991,0.3989,0.4237,0.48,0.4241,0.3882,0.385,0.322,0.2939,0.292,0.2886,0.2925,0.3039,0.3006,0.2898,0.2722,0.2703,0.2502,0.226,0.2197,0.2191,0.2191,0.1999,0.1903,0.1903,0.1713,0.1761,0.2043,0.0,0.0,0.0,0.0,0.0,0.0,0.0,0.0,0.0,0.0,0.0,0.0,0.0,0.0,0.0,0.0,0.0,0.0,0.6602,0.6988,0.7289,0.7406,0.7668,0.7996,0.8298,0.8322,0.8502,0.8899,0.917,0.9388,0.9602,0.9777,0.9907,0.9907,0.982,0.9816,0.9864,0.9864,0.9467,0.8846,0.8846,0.8404,0.779,0.7746,0.0,0.0,0.0,0.0,0.5688,0.5688,0.5688,0.5555,0.4656,0.3762,0.3269,0.4652,0.4699,0.4431,0.4921,0.5371,0.5688,0.5688,0.5327,0.501,0.4964,0.4614,0.4332,0.4378,0.4516,0.4415,0.0,0.0,0.3783,0.3281,0.318,0.318,0.318,0.318,0.318,0.0,0.0,0.0,0.0,0.0,0.0,0.318,0.0,0.3156,0.3098,0.3095,0.3117,0.3104,0.3101,0.3025,0.2963,0.2916,0.2843,0.2793,0.2527,0.2574,0.2908,0.2674,0.2327,0.1861,0.178,0.1325,0.0637,0.0578,0.0526,0.0478,-0.0048,-0.0239,-0.0286,-0.0811,-0.0668,0.0048,0.0,0.0,0.0,0.0,0.0,0.0,0.0,0.0,0.0,0.0,0.0,0.0,0.0,0.0,0.0,0.0,0.0,0.0,0.6602,0.7099,0.7427,0.7467,0.7955,0.8272,0.8367,0.8689,0.8857,0.8995,0.9187,0.9345,0.9345,0.8675,0.836,0.8317,0.765,0.7518,0.783,0.783,0.7918,0.8097,0.0,0.7965,0.7746,0.0,0.0,0.0,0.0,0.0,0.5688,0.5688,0.5688,0.5644,0.5419,0.4924,0.4607,0.5327,0.5191,0.4921,0.5371,0.5599,0.5599,0.528,0.5099,0.4921,0.4565,0.4441,0.4426,0.4518,0.4319,0.4062,0.0,0.0,0.0,0.323,0.318,0.0,0.318,0.318,0.0,0.318,0.0,0.318,0.318,0.318,0.0,0.0,0.318,0.3173,0.3158,0.3157,0.313,0.3119,0.2921,0.2749,0.2694,0.17,0.1225,0.1172,0.033,-0.0047,0.0048,0.0048,-0.0049,-0.0148,-0.0149,-0.025,-0.04,-0.0447,-0.0447,-0.0447,-0.0595,-0.0645,-0.0645,-0.0794,-0.0744,-0.0546,0.0,0.0,0.0,0.0,0.0,0.0,0.0,0.0,0.0,0.0,0.0,0.0,0.0,0.0,0.0,0.0,0.0,0.0,0.0,0.6984,0.7249,0.7249,0.7655,0.7946,0.8149,0.8435,0.8539,0.0,0.0,0.0,0.9,0.8642,0.8233,0.7786,0.7258,0.6946,0.6814,0.6814,0.0,0.0,0.0,0.0,0.0,0.0,0.0,0.0,0.0,0.0,0.0,0.5688,0.5419,0.5151,0.5555,0.4968,0.4297,0.5374,0.5238,0.4835,0.5508,0.5552,0.5327,0.5055,0.4699,0.431,0.408,0.3895,0.3821,0.3934,0.3746,0.3551,0.362,0.338,0.318,0.0,0.0,0.0,0.318,0.318,0.318,0.0,0.318,0.0,0.318,0.318,0.318,0.0,0.318,0.318,0.318,0.318,0.3013,0.2633,0.2482,0.2213,0.1784,0.0525,0.0,0.0238,-0.0666,-0.1051,-0.0963,-0.1022,-0.1179,-0.1387,0.0,-0.151,-0.1863,-0.1863,-0.1863,-0.1863,-0.2114,-0.2214,-0.2214,-0.2465,-0.2414,-0.2214,0.0,0.0,0.0,0.0,0.0,0.0,0.0,0.0,0.0,0.0,0.649,0.6602,0.0,0.0,0.0,0.0,0.0,0.0,0.0,0.0,0.0,0.0,0.7138,0.7406,0.7759,0.789,0.7992,0.0,0.0,0.0,0.0,0.0,0.0,0.0,0.0,0.0,0.0,0.0,0.0,0.0,0.0,0.0,0.0,0.0,0.0,0.0,0.0,0.0,0.0,0.0,0.5151,0.4612,0.5463,0.4567,0.3583,0.524,0.5104,0.4656,0.5419,0.5327,0.4964,0.4832,0.421,0.3607,0.359,0.329,0.3048,0.3067,0.3097,0.3069,0.312,0.313,0.313,0.313,0.0,0.318,0.318,0.318,0.318,0.318,0.318,0.318,0.318,0.318,0.318,0.318,0.3079,0.3079,0.318,0.3079,0.2674,0.1816,0.1765,0.1401,0.059,-0.0532,-0.0863,-0.0479,-0.1295,-0.1595,-0.1423,-0.1671,-0.1983,-0.2365,-0.2365,-0.2771,-0.343,-0.343,-0.343,-0.3482,-0.3932,-0.4083,-0.4183,-0.4634,-0.4485,-0.4083,0.0,0.0,0.0,0.0,0.0,0.0,0.0,0.0,0.0,0.0,0.649,0.6676,0.0,0.0,0.0,0.0,0.0,0.0,0.0,0.0,0.0,0.0,0.7334,0.7496,0.7567,0.7751,0.0,0.0,0.0,0.0,0.0,0.0,0.0,0.0,0.0,0.0,0.0,0.0,0.0,0.0,0.0,0.0,0.0,0.0,0.0,0.0,0.0,0.0,0.0,0.0,0.5599,0.5466,0.5644,0.5466,0.5285,0.5599,0.5599,0.5419,0.5191,0.5055,0.4832,0.4032,0.3721,0.3517,0.3175,0.3091,0.0,0.3077,0.298,0.2865,0.2874,0.2876,0.2876,0.2876,0.3079,0.318,0.318,0.318,0.318,0.0,0.318,0.318,0.318,0.318,0.0,0.0,0.2573,0.2522,0.318,0.2573,0.1716,0.0707,0.0656,0.0504,0.01,-0.095,-0.1648,-0.2048,-0.3045,-0.3748,-0.4107,-0.4159,-0.4218,-0.4331,-0.4331,0.0,-0.4533,-0.4533,-0.4533,-0.4533,-0.4634,-0.4684,-0.4684,-0.4784,-0.4734,-0.4684,0.0,0.0,0.0,0.0,0.0,0.0,0.0,0.481,0.5512,0.5201,0.6093,0.6791,0.6899,0.698,0.7138,0.0,0.0,0.0,0.0,0.0,0.0,0.0,0.0,0.0,0.0,0.0,0.0,0.0,0.0,0.0,0.0,0.0,0.0,0.0,0.0,0.0,0.0,0.0,0.0,0.0,0.0,0.0,0.0,0.0,0.0,0.0,0.0,0.0,0.0,0.0,0.5327,0.5371,0.5644,0.5688,0.5688,0.5688,0.5508,0.528,0.5055,0.4654,0.4166,0.3721,0.3409,0.3213,0.3078,0.0,0.0,0.3168,0.2958,0.2775,0.2775,0.2674,0.2623,0.2775,0.2927,0.3029,0.318,0.318,0.318,0.318,0.318,0.318,0.318,0.2573,0.2169,0.2169,0.1159,0.1158,0.2522,0.1412,0.0404,-0.0404,-0.0858,-0.1009,-0.0859,-0.1917,-0.2573,-0.2826,-0.363,-0.4282,-0.4784,-0.4784,-0.4784,-0.4784,-0.4784,-0.4784,-0.4784,-0.4784,-0.4784,-0.4784,-0.4784,-0.4784,-0.4784,-0.4784,-0.4784,-0.4784,0.0,0.0,0.0,0.0,0.0,0.0,0.2511,0.3795,0.4652,0.4146,0.5428,0.6398,0.6437,0.6942,0.7334,0.0,0.0,0.0,0.0,0.0,0.0,0.0,0.0,0.0,0.0,0.0,0.0,0.0,0.0,0.0,0.0,0.0,0.0,0.0,0.0,0.0,0.0,0.0,0.0,0.0,0.0,0.0,0.0,0.0,0.0,0.0,0.0,0.0,0.0,0.0,0.4605,0.4652,0.4877,0.5282,0.5688,0.5597,0.528,0.4966,0.4743,0.4166,0.3587,0.3454,0.3187,0.295,0.3069,0.3097,0.3083,0.3104,0.2876,0.2674,0.2624,0.2473,0.2372,0.0,0.2725,0.2876,0.3079,0.318,0.318,0.0,0.313,0.0,0.2775,0.1765,0.0,0.0806,-0.0352,-0.0402,0.1058,-0.005,-0.1009,-0.1613,-0.2219,-0.2372,-0.197,-0.2777,-0.3281,-0.3381,-0.3783,-0.4282,-0.4784,-0.4784,-0.4784,-0.4784,-0.4784,-0.4784,-0.4784,-0.4784,-0.4784,-0.4784,-0.4784,-0.4784,-0.4784,-0.4784,-0.4784,-0.4784,0.0,0.0,0.0,0.0,0.0,0.0,0.2511,0.3444,0.4146,0.4107,0.4421,0.4693,0.4882,0.6433,0.7484,0.0,0.0,0.0,0.0,0.0,0.0,0.0,0.0,0.0,0.0,0.0,0.0,0.5463,0.4529,0.0,0.0,0.0,0.0,0.0,0.0,0.0,0.0,0.0,0.0,0.0,0.0,0.0,0.0,0.0,0.0,0.0,0.0,0.0,0.4253,0.3578,0.3353,0.3263,0.2635,0.3933,0.5599,0.5191,0.5055,0.4832,0.3942,0.3676,0.3497,0.3053,0.292,0.295,0.3069,0.0,0.3035,0.2854,0.2623,0.2372,0.2122,0.2071,0.2021,0.0,0.0,0.2826,0.2826,0.3029,0.318,0.318,0.0,0.0,0.1462,0.1058,0.0453,-0.0553,-0.1408,-0.1811,-0.166,-0.1762,-0.2216,-0.2977,-0.3079,-0.3079,-0.3029,-0.313,-0.343,-0.3932,-0.3982,-0.4282,-0.4784,-0.4784,-0.4784,-0.4784,-0.4784,-0.4784,0.0,-0.4784,-0.4784,-0.4784,-0.4784,-0.4784,-0.4784,-0.4784,-0.4784,-0.4784,0.0,0.0,0.0,0.0,0.0,0.0,0.1766,0.2665,0.3171,0.2823,0.3834,0.4457,0.4181,0.527,0.6009,0.6009,0.0,0.0,0.0,0.0,0.0,0.0,0.0,0.0,0.0,0.0,0.4342,0.4481,0.3488,0.0,0.0,0.0,0.0,0.0,0.0,0.0,0.0,0.0,0.0,0.0,0.0,0.0,0.0,0.0,0.0,0.0,0.0,0.0,0.3853,0.3539,0.3133,0.2773,0.2771,0.3127,0.3575,0.3844,0.3712,0.3491,0.3587,0.3409,0.3142,0.2963,0.292,0.295,0.3069,0.0,0.2793,0.2803,0.2473,0.2122,0.2022,0.1869,0.1819,0.0,0.0,0.0,0.2775,0.2876,0.2977,0.2977,0.2876,0.0,0.0,0.0,-0.1208,-0.3067,-0.3522,-0.3674,-0.3674,-0.3074,-0.3025,-0.3682,-0.3381,-0.318,-0.318,-0.318,-0.3482,-0.3982,-0.3982,-0.4282,-0.4784,-0.4784,-0.4784,-0.4784,-0.4784,-0.4784,0.0,-0.4784,-0.4784,-0.4784,-0.4784,-0.4784,-0.4784,-0.4784,-0.4784,-0.4784,0.0,0.0,0.0,0.0,0.0,0.1296,0.1296,0.2,0.2392,0.1964,0.3173,0.3871,0.3443,0.3912,0.4263,0.4263,0.473,0.0,0.0,0.0,0.0,0.0,0.0,0.0,0.0,0.0,0.329,0.3347,0.2672,0.2462,0.0,0.0,0.0,0.0,0.0,0.0,0.0,0.0,0.0,0.0,0.0,0.0,0.0,0.0,0.0,0.0,0.0,0.0,0.0,0.0,0.0,0.2015,0.2371,0.1833,0.0,0.0,0.2774,0.2643,0.3229,0.3141,0.292,0.292,0.292,0.2905,0.2928,0.0,0.2601,0.2554,0.2273,0.1971,0.1921,0.1718,0.1667,0.0,0.0,0.2122,0.2524,0.2624,0.2674,0.2674,0.0,0.1613,0.0,-0.1308,-0.2968,-0.4682,-0.4784,-0.4784,-0.4784,-0.4083,-0.3833,-0.4234,-0.3883,-0.3682,-0.3682,-0.3682,-0.3883,-0.4234,-0.4234,-0.4435,-0.4784,-0.4784,-0.4784,-0.4784,-0.4784,-0.4784,0.0,-0.4784,-0.4784,-0.4784,-0.4784,-0.4784,-0.4784,-0.4784,-0.4784,-0.4784,0.0,0.0,0.0,0.0,0.0,0.1296,0.1296,0.165,0.1926,0.1887,0.2277,0.2511,0.2511,0.2511,0.2511,0.2511,0.4029,0.0,0.0,0.0,0.0,0.0,0.0,0.0,0.0,0.0,0.1994,0.2129,0.2129,0.2154,0.2199,0.2199,0.2289,0.2513,0.0,0.0,0.0,0.0,0.0,0.0,0.0,0.0,0.0,0.0,0.0,0.0,0.0,0.0,0.0,0.0,0.0,0.0,0.0,-0.0224,-0.0852,0.1746,0.2508,0.2553,0.2827,0.292,0.292,0.292,0.292,0.2859,0.2643,0.2619,0.2505,0.2106,0.2022,0.1921,0.1667,0.1617,0.1617,0.1617,0.0,0.0,0.2022,0.2221,0.2422,0.0,0.0,0.0,-0.1056,-0.337,-0.4784,-0.4784,-0.4784,0.0,-0.4784,-0.4784,-0.4784,-0.4784,-0.4784,-0.4784,-0.4784,-0.4784,-0.4784,-0.4784,-0.4784,-0.4784,-0.4784,-0.4784,-0.4784,-0.4784,-0.4784,-0.4784,0.0,-0.4784,-0.4784,-0.4784,-0.4784,-0.4784,-0.4784,-0.4784,-0.4784,-0.4784,0.0,0.0,0.0,0.0,0.0,0.0,0.1493,0.1729,0.1964,0.208,0.2353,0.2511,0.2511,0.2511,0.2511,0.2511,0.2978,0.0,0.0,0.0,0.0,0.0,0.0,0.0,0.0,0.198,0.2026,0.2086,0.1941,0.2006,0.2199,0.2019,0.2064,0.2289,0.2289,0.0,0.0,0.0,0.0,0.0,0.0,0.0,0.0,0.0,0.0,0.0,0.0,0.0,0.0,0.0,0.0,0.0,0.0,0.0,0.0,-0.0224,0.0269,0.0627,0.1256,0.1749,0.2154,0.2154,0.2379,0.2632,0.2596,0.2335,0.2122,0.2005,0.1869,0.1718,0.1617,0.1617,0.1617,0.1617,0.1667,0.0,0.0,0.0,0.0,0.1109,-0.0806,-0.2215,0.0,0.0,-0.4784,-0.4784,-0.4784,-0.4784,-0.4784,-0.4784,-0.4784,-0.4784,-0.4784,-0.4784,-0.4784,-0.4784,-0.4784,-0.4784,-0.4784,-0.4784,-0.4784,-0.4784,-0.4784,-0.4784,-0.4784,-0.4784,-0.4784,-0.4784,-0.4784,-0.4784,-0.4784,-0.4784,-0.4784,-0.4784,-0.4784,-0.4784,0.0,0.0,0.0,0.0,0.0,0.0,0.1572,0.1768,0.1964,0.2157,0.2392,0.2511,0.2511,0.2511,0.2511,0.2511,0.2511,0.0,0.0,0.0,0.0,0.0,0.0,0.0,0.1274,0.1261,0.1075,0.079,0.0668,0.0672,0.0851,0.0672,0.0941,0.1525,0.1525,0.1839,0.0,0.0,0.0,0.0,0.0,0.0,0.148,0.0,0.0,0.0,0.0,0.0,0.0,0.0,0.0,0.0,0.0,0.0,0.0,0.0,-0.0538,-0.009,0.0762,0.148,0.2064,0.1974,0.2167,0.2382,0.2365,0.2109,0.1898,0.1858,0.1718,0.1617,0.1617,0.1617,0.1617,0.1617,0.1617,0.1667,0.0,0.0,0.0,-0.0202,0.0,0.0,0.0,-0.4431,-0.4784,-0.4784,-0.4784,-0.4784,-0.4784,-0.4784,-0.4784,-0.4784,-0.4784,-0.4784,-0.4784,-0.4784,-0.4784,-0.4784,-0.4784,-0.4784,-0.4784,-0.4784,-0.4784,-0.4784,-0.4784,-0.4784,0.0,-0.4784,-0.4784,-0.4784,-0.4784,-0.4784,-0.4784,-0.4784,-0.4784,-0.4784,0.0,0.0,0.0,0.0,0.0,0.0,0.0,0.1768,0.2003,0.2157,0.2392,0.2511,0.2511,0.247,0.2431,0.2431,0.2392,0.0,0.0,0.0,0.0,0.0,0.0,0.0,0.0126,-0.0043,-0.0526,-0.1387,-0.1387,-0.1387,-0.1387,-0.1387,-0.0806,0.0269,0.0269,0.0942,0.2109,0.0,0.0,0.0,0.1705,0.13,0.0,0.0,0.0,0.0,0.0,0.0,0.0,0.0,0.0,0.0,0.0,0.0,0.0,0.0,0.0,0.0,0.0,0.1884,0.2334,0.2154,0.2143,0.214,0.1946,0.1889,0.0,0.1661,0.1617,0.1617,0.1617,0.1617,0.1617,0.1617,0.1617,0.1617,0.0,0.1465,0.0,0.0,-0.262,0.0,-0.4684,-0.4784,-0.4784,-0.4784,-0.4784,-0.4784,-0.4784,-0.4784,-0.4784,-0.4784,-0.4784,-0.4784,-0.4784,-0.4784,-0.4784,-0.4784,-0.4784,-0.4784,-0.4784,-0.4784,-0.4784,0.0,-0.4784,-0.4784,-0.4784,-0.4784,-0.4784,-0.4784,-0.4784,-0.4784,-0.4784,-0.4784,-0.4784,-0.4784,0.0,0.0,0.0,0.0,0.0,0.0,0.0,0.0,0.0,0.0,0.2392,0.2511,0.2511,0.2078,0.1803,0.0,0.0,0.0,0.0,0.0,0.0,0.0,0.0,0.0,-0.0924,-0.1072,-0.1226,-0.1387,-0.1387,-0.1387,-0.1387,-0.1387,-0.1253,-0.0985,-0.0985,-0.0313,0.0852,0.1436,0.0,0.0,0.0897,0.0538,0.0,0.0,0.0,0.0,0.0626,0.085,0.0,0.0,0.0,0.0,0.0,0.0,0.0,0.0,-0.0806,0.0403,0.0762,0.0,0.1436,0.139,0.1641,0.1908,0.0,0.1792,0.0,0.0,0.0,0.1617,0.1617,0.1617,0.1617,0.1617,0.1617,0.1617,0.1617,0.0,0.0,-0.1563,-0.3274,-0.4533,-0.4784,-0.4784,-0.4784,-0.4784,-0.4784,-0.4784,-0.4784,-0.4784,-0.4784,-0.4784,-0.4784,-0.4784,-0.4784,-0.4784,-0.4784,-0.4784,-0.4784,-0.4784,-0.4784,-0.4784,-0.4784,-0.4784,-0.4784,-0.4784,-0.4784,-0.4784,-0.4784,-0.4784,-0.4784,-0.4784,-0.4784,-0.4784,-0.4784,-0.4784,0.0,0.0,0.0,0.0,0.0,0.0,0.0,0.0,0.0,0.0,0.2195,0.2078,0.2078,0.1371,0.094,0.0,0.0,0.0,0.0,0.0,0.0,0.0,0.0,-0.1534,-0.1973,-0.2078,-0.2345,-0.2728,-0.2728,-0.2728,-0.2728,-0.2728,-0.2506,-0.2059,-0.1611,-0.0985,-0.0224,0.0583,0.0358,-0.0582,0.0,0.0,0.0,0.0,0.0,0.0,-0.0447,-0.0224,0.0,-0.0134,-0.0939,-0.1925,0.0,0.0,0.0,0.0,-0.0851,0.0314,0.0897,0.1211,0.1391,0.1256,0.1469,0.1694,0.1713,0.1658,0.0,0.0,0.0,0.1617,0.1617,0.1617,0.1617,0.1617,0.1617,0.0,0.0,0.0,-0.1613,-0.1613,-0.3475,-0.4784,0.0,-0.4784,-0.4784,-0.4784,-0.4784,-0.4784,-0.4784,-0.4784,-0.4784,-0.4784,-0.4784,-0.4784,-0.4784,-0.4784,-0.4784,-0.4784,-0.4784,-0.4784,-0.4784,-0.4784,-0.4784,-0.4784,-0.4784,-0.4784,-0.4784,-0.4784,-0.4784,-0.4784,-0.4784,-0.4784,-0.4784,-0.4784,-0.4784,-0.4784,0.0,0.0,0.0,0.0,0.0,0.0,0.0,0.0,0.0,0.0,0.0,0.0,0.0,0.0,0.0,0.0,0.0,0.0,0.0,0.0,0.0,0.0,-0.1598,-0.21,-0.298,-0.3199,-0.3673,-0.4478,-0.4565,-0.461,-0.461,-0.461,-0.4164,-0.3224,-0.2104,-0.1522,-0.1297,-0.0269,-0.0627,-0.179,-0.0941,0.0,0.0,0.0,0.0,0.0,0.0,0.0,0.0,-0.1387,-0.2059,-0.2911,-0.2911,0.0,0.0,0.0,0.0,0.0,0.0987,0.1436,0.1706,0.1486,0.1438,0.1479,0.1532,0.0,0.0,0.0,0.0,0.0,0.1617,0.1617,0.0,0.0,0.0,0.0,0.1364,-0.0504,-0.1865,-0.1865,-0.3575,0.0,-0.4784,-0.4784,-0.4784,-0.4784,-0.4784,-0.4784,-0.4784,-0.4784,-0.4784,-0.4784,-0.4784,-0.4784,-0.4784,-0.4784,-0.4784,-0.4784,-0.4784,-0.4784,-0.4784,-0.4784,-0.4784,-0.4784,0.0,0.0,-0.4784,-0.4784,-0.4784,-0.4784,-0.4784,-0.4784,-0.4784,-0.4784,-0.4784,-0.4784,0.0,0.0,0.0,0.0,0.0,0.0,0.0,0.0,0.0,0.0,0.0,0.0,0.0,0.0,0.0,0.0,0.0,0.0,0.0,0.0,0.0,-0.3331,-0.3487,-0.3655,-0.3825,-0.4603,-0.5104,-0.5238,-0.5811,-0.6074,-0.6074,-0.6074,-0.5677,-0.4968,-0.3358,-0.2643,-0.2552,-0.1387,-0.1343,-0.2104,-0.1746,0.0,0.0,0.0,0.0,0.0,0.0,0.0,0.0,-0.2642,-0.2732,-0.2911,-0.2911,0.0,0.0,0.0,0.0,0.0,0.0179,0.0807,0.1487,0.1468,0.15,0.1533,0.1558,0.1592,0.0,0.0,0.0,0.0,0.0,0.1617,0.1617,0.0,0.0,0.0252,0.0,0.0,-0.2972,-0.2972,0.0,-0.4784,-0.4784,-0.4784,-0.4784,-0.4784,-0.4784,-0.4784,-0.4784,-0.4784,-0.4784,-0.4784,-0.4784,-0.4784,-0.4784,-0.4784,-0.4784,-0.4784,-0.4784,-0.4784,-0.4784,-0.4784,-0.4784,-0.4784,0.0,-0.4784,-0.4784,-0.4784,-0.4784,-0.4784,-0.4784,-0.4784,-0.4784,-0.4784,-0.4784,-0.4784,0.0,0.0,0.0,0.0,0.0,0.0,0.0,0.0,0.0,0.0,0.0,0.0,0.0,0.0,0.0,0.0,0.0,0.0,0.0,0.0,-0.388,-0.4732,-0.4668,-0.4576,-0.4576,-0.5126,-0.5591,-0.5944,-0.6254,-0.6384,-0.6384,-0.6384,-0.6254,-0.5902,-0.4743,-0.4253,-0.4164,-0.2685,-0.2551,-0.3267,0.0,0.0,0.0,0.0,0.0,0.0,0.0,0.0,0.0,0.0,-0.3673,-0.3673,-0.3673,0.0,0.0,0.0,0.0,0.0,-0.0134,0.0673,0.1397,0.1473,0.1504,0.153,0.1544,0.1583,0.0,0.0,0.0,0.0,0.0,0.0,0.1414,0.0807,0.0,-0.0202,-0.0806,-0.2216,-0.3224,0.0,0.0,-0.4784,-0.4784,-0.4784,-0.4784,-0.4784,-0.4784,-0.4784,-0.4784,-0.4784,-0.4784,-0.4784,-0.4784,-0.4784,-0.4784,-0.4784,-0.4784,-0.4784,-0.4784,-0.4784,-0.4784,-0.4784,-0.4784,-0.4784,0.0,-0.4784,-0.4784,-0.4784,-0.4784,-0.4784,-0.4784,-0.4784,-0.4784,-0.4784,-0.4784,-0.4784,0.0,0.0,0.0,0.0,0.0,0.0,0.0,0.0,0.0,0.0,0.0,0.0,0.0,0.0,0.0,0.0,0.0,0.0,0.0,-0.4151,-0.4579,-0.5354,-0.5357,-0.5324,-0.5324,-0.5689,-0.6121,-0.665,-0.683,-0.6918,-0.6918,-0.6741,-0.665,-0.6605,-0.5944,-0.5549,-0.5327,-0.403,-0.3807,-0.4253,0.0,0.0,0.0,0.0,0.0,0.0,0.0,0.0,0.0,0.0,0.0,0.0,0.0,0.0,0.0,-0.3403,-0.2238,-0.1029,-0.0493,0.0538,0.1397,0.1473,0.1504,0.1528,0.1535,0.1579,0.0,0.0,0.0,0.0,0.0,0.1414,0.0,0.0151,-0.0403,-0.1058,-0.1865,-0.2922,-0.3575,-0.3575,-0.428,-0.4784,-0.4784,-0.4784,-0.4784,-0.4784,-0.4784,-0.4784,-0.4784,-0.4784,-0.4784,-0.4784,-0.4784,-0.4784,-0.4784,-0.4784,-0.4784,-0.4784,-0.4784,-0.4784,-0.4784,-0.4784,-0.4784,-0.4784,-0.4784,-0.4784,-0.4784,-0.4784,-0.4784,-0.4784,-0.4784,-0.4784,-0.4784,-0.4784,-0.4784,-0.4784,0.0,0.0,0.0,0.0,0.0,0.0,0.0,0.0,0.0,0.0,0.0,0.0,0.0,0.0,0.0,0.0,0.0,0.0,0.0,-0.4849,-0.5276,-0.4776,-0.5522,-0.5951,-0.5951,-0.6854,-0.7356,-0.7401,-0.8116,-0.8432,-0.8432,-0.776,-0.7401,-0.7401,-0.665,-0.5988,-0.5371,-0.5282,-0.4879,-0.43,-0.421,0.0,0.0,0.0,0.0,0.0,0.0,0.0,0.0,0.0,0.0,0.0,0.0,0.0,-0.3398,-0.403,-0.2415,-0.0581,-0.1164,0.0,0.1397,0.1473,0.1504,0.1534,0.1562,0.1594,0.0,0.1617,0.0,0.0,0.0,0.0807,0.0101,0.0,-0.1662,-0.3022,-0.3073,0.0,-0.4684,-0.4684,-0.4734,-0.4784,-0.4784,-0.4784,-0.4784,-0.4784,-0.4784,-0.4784,-0.4784,-0.4784,-0.4784,-0.4784,-0.4784,-0.4784,-0.4784,-0.4784,-0.4784,-0.4784,-0.4784,-0.4784,-0.4784,-0.4784,-0.4784,-0.4784,-0.4784,-0.4784,-0.4784,-0.4784,-0.4784,-0.4784,-0.4784,-0.4784,-0.4784,-0.4784,-0.4784,-0.4784,0.0,0.0,0.0,0.0,0.0,0.0,0.0,0.0,0.0,0.0,0.0,0.0,0.0,0.0,0.0,0.0,0.0,0.0,0.0,-0.5351,-0.5895,-0.6584,-0.6668,-0.6906,-0.7425,-0.7465,-0.7713,-0.816,-0.8476,-0.8612,-0.8612,-0.8296,-0.816,-0.816,-0.7404,-0.6959,-0.6697,-0.621,-0.5636,-0.4971,-0.4971,-0.4701,0.0,0.0,0.0,0.0,0.0,0.0,0.0,0.0,-0.4389,-0.4569,-0.4569,-0.4431,-0.4338,-0.4523,-0.2998,-0.1297,-0.1387,-0.0045,0.1397,0.1473,0.1504,0.0,0.0,0.1595,0.1617,0.1617,0.1617,0.0,0.0,0.0,-0.0202,-0.0907,-0.2216,-0.3425,-0.4079,-0.4533,-0.4784,-0.4784,-0.4784,-0.4784,-0.4784,-0.4784,-0.4784,-0.4784,-0.4784,-0.4784,-0.4784,-0.4784,-0.4784,-0.4784,-0.4784,-0.4784,-0.4784,-0.4784,-0.4784,-0.4784,-0.4784,-0.4784,-0.4784,-0.4784,-0.4784,-0.4784,-0.4784,-0.4784,-0.4784,-0.4784,-0.4784,-0.4784,-0.4784,-0.4784,-0.4784,-0.4784,-0.4784,-0.4784,0.0,0.0,0.0,0.0,0.0,0.0,0.0,0.0,0.0,0.0,0.0,0.0,0.0,0.0,0.0,0.0,0.0,0.0,-0.5315,-0.5854,-0.6585,-0.7465,-0.7434,-0.7685,-0.8284,-0.7984,-0.8116,-0.8612,-0.8612,-0.8612,-0.8612,-0.8612,-0.8612,-0.8568,-0.8072,-0.7801,-0.7665,-0.6871,-0.6163,-0.5589,-0.5282,-0.4837,0.0,0.0,0.0,0.0,0.0,0.0,0.0,0.0,-0.4569,-0.4705,-0.4792,-0.4968,-0.5102,-0.4879,-0.3624,-0.2326,-0.2057,-0.0761,0.0586,0.0974,0.0,0.0,0.1527,0.1602,0.1617,0.1617,0.1617,0.1515,0.1161,0.0,0.0,0.0,-0.3022,-0.3977,-0.4684,-0.4784,-0.4784,-0.4784,-0.4784,-0.4784,-0.4784,-0.4784,-0.4784,-0.4784,-0.4784,-0.4784,-0.4784,-0.4784,-0.4784,-0.4784,-0.4784,-0.4784,-0.4784,-0.4784,-0.4784,-0.4784,-0.4784,-0.4784,-0.4784,-0.4784,-0.4784,-0.4784,-0.4784,-0.4784,-0.4784,-0.4784,-0.4784,-0.4784,-0.4784,-0.4784,-0.4784,-0.4784,-0.4784,-0.4834,0.0,0.0,0.0,0.0,0.0,0.0,0.0,0.0,-0.3791,-0.3791,-0.3404,0.0,0.0,0.0,0.0,0.0,0.0,0.0,-0.4815,-0.6479,-0.7289,-0.682,-0.7593,-0.8101,-0.8288,-0.8518,-0.8612,-0.8612,-0.8612,-0.8612,-0.8612,-0.8612,-0.8612,-0.8612,-0.8612,-0.8472,-0.8157,-0.7221,-0.6558,-0.6024,-0.5102,-0.4569,-0.43,0.0,0.0,0.0,0.0,0.0,0.0,0.0,-0.4705,-0.475,-0.4921,-0.5191,-0.5371,-0.5099,-0.4338,-0.3534,-0.3264,-0.2325,-0.1175,-0.0142,0.0,0.0,0.1352,0.1566,0.1617,0.1566,0.1566,0.1262,0.0202,-0.0907,0.0,-0.3022,-0.4079,-0.4784,-0.4784,-0.4784,-0.4784,-0.4784,-0.4784,-0.4784,-0.4784,-0.4784,-0.4784,-0.4784,-0.4784,-0.4784,-0.4784,-0.4784,-0.4784,-0.4784,-0.4784,-0.4784,-0.4784,-0.4784,-0.4784,-0.4784,-0.4784,-0.4784,-0.4784,-0.4784,-0.4784,-0.4784,-0.4784,-0.4784,-0.4784,-0.4784,-0.4784,-0.4784,-0.4784,-0.4784,-0.4784,-0.4784,-0.4784,-0.4935,0.0,0.0,0.0,0.0,0.0,0.0,0.0,0.0,-0.3869,-0.3988,-0.4144,0.0,0.0,0.0,0.0,0.0,0.0,0.0,-0.6057,-0.7098,-0.7672,-0.7638,-0.8026,-0.8296,-0.8526,-0.8584,-0.8612,-0.8612,-0.8612,-0.8612,-0.8612,-0.8612,-0.8612,-0.8612,-0.8959,-0.8867,-0.8476,-0.8552,-0.7709,-0.6296,-0.6204,-0.5544,-0.4614,0.0,0.0,0.0,0.0,0.0,0.0,0.0,0.0,0.0,-0.5282,-0.5416,-0.5552,-0.5327,-0.4605,-0.3708,-0.3307,-0.2459,0.0,-0.1131,0.0,0.0,0.0,0.0505,0.0,0.0,0.0454,0.0151,-0.0907,-0.2016,0.0,-0.3173,-0.4079,-0.4784,-0.4784,-0.4784,-0.4784,-0.4784,-0.4784,-0.4784,-0.4784,-0.4784,-0.4784,-0.4784,-0.4784,-0.4784,-0.4784,-0.4784,-0.4784,-0.4784,-0.4784,-0.4784,-0.4784,-0.4784,-0.4784,-0.4784,-0.4784,-0.4784,-0.4784,-0.4784,-0.4784,-0.4784,-0.4784,-0.4784,-0.4784,-0.4784,-0.4784,-0.4784,-0.4784,-0.4784,-0.4834,-0.4987,-0.5338,-0.5689,0.0,0.0,0.0,0.0,0.0,0.0,0.0,0.0,-0.4846,-0.4965,-0.5082,-0.5312,0.0,0.0,0.0,0.0,0.0,0.0,-0.6296,-0.7221,-0.7749,-0.7693,-0.8062,-0.8377,-0.8608,-0.8612,-0.8612,-0.8612,-0.8612,-0.8612,-0.8612,-0.8784,-0.8784,-0.8612,-0.9087,-0.9262,-0.913,-0.9038,-0.8281,-0.7085,-0.6864,-0.5983,-0.4837,0.0,0.0,0.0,0.0,0.0,0.0,0.0,0.0,0.0,-0.5508,-0.5599,-0.5644,-0.5463,-0.4875,-0.4245,-0.3892,-0.3331,0.0,-0.2217,-0.2105,-0.2038,-0.1703,0.0,0.0,0.0,-0.0655,-0.0957,-0.2016,-0.2771,0.0,-0.3776,-0.4381,-0.4784,-0.4784,-0.4784,-0.4784,-0.4784,-0.4784,-0.4784,-0.4784,-0.4784,-0.4784,-0.4784,-0.4784,-0.4784,-0.4784,-0.4784,-0.4784,-0.4784,-0.4784,-0.4784,-0.4784,-0.4784,-0.4784,-0.4784,-0.4784,-0.4784,-0.4784,-0.4784,-0.4784,-0.4784,-0.4784,-0.4784,-0.4784,-0.4784,-0.4885,-0.4937,-0.4937,-0.5284,-0.5732,-0.5436,-0.6084,-0.7129,0.0,0.0,-0.63,-0.63,0.0,0.0,0.0,0.0,-0.63,-0.6335,-0.6138,-0.6247,0.0,0.0,0.0,-0.6602,-0.7115,-0.695,-0.5861,-0.6976,-0.7535,-0.7208,-0.7874,-0.826,-0.8384,-0.8388,-0.8432,-0.852,-0.8564,-0.8612,-0.8656,-0.9043,-0.9047,-0.87,-0.9174,-0.9563,-0.9864,-0.9026,-0.8492,-0.8049,-0.7217,-0.616,-0.5055,-0.5055,0.0,0.0,0.0,0.0,0.0,0.0,0.0,0.0,-0.5644,-0.5688,-0.5644,-0.5463,-0.5235,-0.501,-0.4792,-0.4593,-0.4223,-0.3359,-0.3188,0.0,-0.2108,-0.1915,-0.1865,-0.1765,0.0,-0.2066,-0.3173,-0.3324,-0.3676,-0.4634,-0.4784,-0.4784,-0.4784,-0.4784,-0.4784,-0.4784,-0.4784,-0.4784,-0.4784,-0.4784,-0.4784,-0.4784,-0.4784,-0.4784,-0.4784,-0.4784,-0.4784,-0.4784,-0.4784,-0.4784,-0.4784,-0.4826,-0.4822,-0.4822,-0.4872,-0.4872,-0.4872,-0.483,-0.4784,-0.4784,-0.4784,-0.4784,-0.4784,-0.4784,-0.4937,-0.519,-0.519,-0.6034,-0.7074,-0.6132,-0.7123,-0.8856,0.0,0.0,-0.63,-0.63,0.0,0.0,0.0,0.0,0.0,-0.6714,0.0,0.0,0.0,0.0,0.0,-0.6641,-0.6752,-0.656,-0.5867,-0.6274,-0.6758,-0.7172,-0.7509,-0.7413,-0.6874,-0.6874,-0.7139,-0.7757,-0.8296,-0.8784,-0.913,-0.8872,-0.8872,-0.9174,-0.965,-0.9694,-0.9476,-0.9941,-0.9192,-0.7661,-0.7614,-0.6691,-0.5327,-0.5508,-0.5552,0.0,0.0,0.0,0.0,0.0,0.0,0.0,-0.5688,-0.5688,-0.5688,-0.5644,-0.5463,-0.528,-0.5013,-0.482,0.0,0.0,-0.4347,-0.4359,-0.4176,-0.413,-0.3879,-0.3022,-0.2871,-0.3173,-0.428,-0.4431,-0.4533,-0.4784,-0.4784,-0.4784,-0.4784,-0.4784,-0.4784,-0.4784,-0.4784,-0.4784,-0.4784,-0.4784,-0.4784,-0.4784,-0.4784,-0.4784,-0.4784,-0.4784,-0.4784,-0.4784,-0.4784,-0.4784,-0.4784,-0.4963,-0.5025,-0.5025,-0.5225,-0.5373,-0.5326,-0.4953,-0.4784,-0.4784,-0.4784,-0.4784,-0.4784,-0.4784,-0.4937,-0.519,-0.519,-0.6034,-0.7173,-0.7179,-0.8269,-0.9752,0.0,0.0,0.0,0.0,0.0,0.0,0.0,0.0,0.0,0.0,0.0,0.0,0.0,-0.7212,0.0,0.0,-0.6455,-0.6069,-0.5485,-0.5919,-0.6364,-0.6777,-0.6916,-0.6792,-0.6393,-0.6387,-0.6605,-0.6959,-0.7363,-0.8028,-0.8959,-0.8604,-0.8468,-0.8644,-0.9559,-0.9467,-0.8632,-0.9545,-0.893,-0.7312,-0.7445,-0.6697,-0.5552,-0.5644,-0.5688,-0.5688,0.0,0.0,0.0,0.0,0.0,0.0,0.0,0.0,-0.5688,-0.5597,-0.5463,-0.5327,-0.5055,0.0,0.0,-0.4713,0.0,-0.4937,-0.4834,-0.4784,-0.4634,-0.4078,-0.3977,-0.413,-0.4684,-0.4784,-0.4784,-0.4784,-0.4784,-0.4784,-0.4784,-0.4784,-0.4784,-0.4784,-0.4784,-0.4784,-0.4784,-0.4784,-0.4784,-0.4784,-0.4784,-0.4784,-0.4784,-0.4784,-0.4784,-0.4784,-0.4746,-0.4775,-0.4775,-0.4926,-0.5021,-0.5021,-0.5266,-0.5413,-0.5417,-0.5271,-0.5186,-0.5186,-0.5037,-0.4987,-0.4987,-0.4834,-0.5035,-0.5438,-0.5934,-0.6877,-0.8021,-0.8421,-0.9558,-1.0939,0.0,0.0,0.0,0.0,0.0,0.0,0.0,0.0,0.0,0.0,0.0,0.0,0.0,-0.686,-0.6552,0.0,0.0,0.0,-0.4962,-0.5627,-0.6042,-0.6034,-0.6157,-0.6174,-0.6041,-0.6035,-0.6121,-0.621,-0.6121,-0.683,-0.8296,-0.8025,-0.7848,-0.7804,-0.903,-0.889,-0.7878,-0.8711,-0.8317,-0.7095,-0.7095,-0.6526,-0.5688,-0.5688,-0.5688,0.0,0.0,-0.5688,-0.5688,-0.5688,0.0,0.0,0.0,0.0,-0.5688,-0.5508,-0.5416,-0.5371,-0.5144,0.0,-0.4945,-0.4939,-0.5087,0.0,-0.4937,-0.4834,-0.4784,-0.4784,-0.4784,-0.4784,-0.4784,-0.4784,-0.4784,-0.4784,-0.4784,-0.4784,-0.4784,-0.4784,-0.4784,-0.4784,-0.4784,-0.4784,-0.4784,-0.4784,-0.4784,-0.4784,-0.4784,-0.4784,-0.4784,-0.4784,-0.4778,-0.4764,-0.4745,-0.4702,-0.4685,-0.483,-0.4872,-0.4872,-0.5207,-0.5358,-0.5429,-0.5603,-0.5643,-0.556,-0.5363,-0.5275,-0.529,-0.5236,-0.5484,-0.6034,-0.7123,-0.8216,-0.9262,-0.9706,-1.0837,-1.2073,0.0,0.0,0.0,0.0,0.0,0.0,0.0,0.0,0.0,0.0,-0.6991,-0.724,-0.7684,-0.6691,-0.6036,-0.609,-0.5162,-0.4534,-0.4331,0.0,0.0,-0.4605,-0.5184,-0.523,-0.4612,-0.4565,-0.4877,-0.5549,-0.4877,-0.5408,-0.7044,-0.6782,-0.6959,-0.7533,-0.7753,-0.7837,-0.783,-0.8364,-0.8017,-0.7095,-0.7095,-0.6526,-0.5688,-0.5688,0.0,0.0,0.0,-0.5688,-0.5688,-0.5688,-0.5688,0.0,0.0,0.0,-0.5688,-0.5688,-0.5552,-0.5371,-0.5371,0.0,-0.5281,0.0,-0.5338,-0.519,0.0,0.0,-0.4784,0.0,-0.4784,-0.4784,-0.4784,-0.4784,-0.4784,-0.4784,-0.4784,-0.4784,-0.4784,-0.4784,-0.4784,-0.4784,-0.4784,-0.4784,-0.4784,-0.4784,-0.4784,-0.4784,-0.4784,-0.4784,-0.4784,-0.4784,-0.4752,-0.4728,-0.4714,-0.4671,-0.4591,-0.4735,-0.4827,-0.4827,-0.5335,-0.5709,-0.5992,-0.6024,-0.5853,-0.5508,-0.5459,-0.5509,-0.5636,-0.6528,-0.7077,-0.7428,-0.8506,-0.9739,-1.0881,-1.0974,-1.1717,-1.2667,0.0,0.0,0.0,0.0,0.0,0.0,0.0,0.0,0.0,0.0,0.0,-0.7123,-0.6776,-0.6345,-0.5794,-0.515,-0.4658,-0.4305,-0.4264,-0.4583,-0.4661,-0.43,-0.4607,-0.4652,-0.43,-0.43,-0.4478,-0.479,-0.4478,-0.4743,-0.5633,-0.55,-0.5944,-0.6915,-0.7441,-0.7265,-0.6653,-0.7401,-0.7183,-0.6305,-0.6305,-0.6086,-0.5688,0.0,0.0,0.0,0.0,0.0,0.0,-0.5688,-0.5688,-0.5688,-0.5688,0.0,0.0,0.0,-0.5644,-0.5581,-0.5575,-0.5634,-0.5663,0.0,-0.5388,-0.5338,-0.5037,-0.4885,-0.4784,-0.4784,-0.4784,-0.4784,-0.4784,-0.4784,-0.4784,-0.4784,-0.4784,-0.4784,-0.4784,-0.4784,-0.4784,-0.4784,-0.4784,-0.4784,-0.4784,-0.4784,-0.4784,-0.4784,-0.4784,-0.4764,-0.4767,-0.4765,-0.4724,-0.4634,-0.4583,-0.4536,-0.4496,-0.4771,-0.5039,-0.5315,-0.5541,-0.5748,-0.5888,-0.5888,-0.5851,-0.583,-0.5689,-0.562,-0.5713,-0.6692,-0.7257,-0.7661,-0.9408,-1.0382,-1.0881,-1.177,-1.2214,-1.237,0.0,0.0,0.0,0.0,0.0,0.0,0.0,0.0,0.0,0.0,0.0,-0.7119,-0.6265,0.0,0.0,0.0,-0.4349,-0.4168,-0.43,-0.43,-0.43,-0.43,-0.43,-0.43,-0.43,-0.43,-0.43,-0.43,-0.4389,-0.4525,-0.4705,-0.4748,-0.528,-0.6166,-0.6868,-0.6653,-0.5733,-0.6438,-0.6349,-0.5688,-0.5688,-0.5688,0.0,0.0,0.0,0.0,0.0,0.0,0.0,0.0,-0.5688,-0.5688,-0.5688,-0.5688,0.0,0.0,0.0,-0.5777,0.0,0.0,-0.6367,-0.5693,-0.5737,-0.5832,0.0,0.0,-0.4784,0.0,-0.4784,-0.4834,-0.4885,-0.4834,-0.4834,-0.4885,-0.4834,-0.4784,-0.4784,-0.4784,-0.4784,-0.4784,-0.4784,-0.4784,-0.4784,-0.4784,-0.4784,-0.4784,-0.4764,-0.4775,-0.4712,-0.4687,-0.468,-0.4637,-0.4564,-0.4516,-0.4537,-0.4869,-0.5191,-0.5644,-0.5644,-0.5644,-0.5688,-0.5688,-0.5831,-0.5999,-0.5842,-0.6059,-0.6564,-0.7302,-0.7887,-0.8486,-1.0506,-1.1179,-1.1179,-1.2365,-1.2565,-1.2273,0.0,0.0,0.0,0.0,0.0,0.0,0.0,0.0,0.0,0.0,0.0,-0.7394,-0.6898,-0.6027,-0.5435,-0.5375,-0.4293,-0.3816,-0.4255,-0.43,-0.43,-0.43,-0.43,0.0,-0.43,-0.43,-0.43,-0.43,-0.4569,-0.4705,-0.4705,-0.4877,-0.5146,-0.546,-0.5505,-0.5594,-0.5688,-0.5733,-0.5733,-0.5688,-0.5688,0.0,0.0,0.0,0.0,0.0,0.0,0.0,0.0,0.0,0.0,-0.5688,-0.5688,-0.5688,-0.5688,0.0,0.0,0.0,0.0,-0.6876,0.0,-0.655,-0.6731,-0.6825,0.0,0.0,-0.4784,-0.4784,-0.4784,-0.4885,-0.514,-0.4987,-0.4885,-0.514,-0.4987,-0.4784,-0.4784,-0.4784,-0.4784,-0.4784,-0.4784,-0.4784,-0.4784,-0.4784,-0.4784,-0.4784,-0.4761,-0.4712,-0.4708,-0.4626,-0.468,-0.4774,-0.4763,-0.4851,-0.4973,-0.5013,-0.5144,-0.5416,-0.5416,-0.5508,-0.5688,-0.5688,-0.5696,-0.5712,-0.582,-0.6987,-0.8757,-0.9116,-0.9814,-1.0744,-1.2126,-1.271,-1.271,-1.2764,-1.2759,-1.2764,0.0,0.0,0.0,0.0,0.0,0.0,0.0,0.0,0.0,0.0,0.0,0.0,0.0,-0.5981,-0.5557,-0.4334,-0.4119,-0.4123,-0.43,-0.43,-0.43,-0.43,-0.43,-0.43,-0.43,-0.43,-0.43,-0.43,-0.4569,-0.4705,-0.4705,-0.5104,-0.5327,-0.5416,-0.5416,-0.5508,-0.5688,-0.5688,-0.5688,-0.5688,-0.5688,0.0,0.0,0.0,0.0,0.0,0.0,0.0,0.0,0.0,0.0,-0.5688,-0.5688,-0.5688,-0.5702,-0.582,-0.6369,0.0,0.0,0.0,0.0,-0.8322,-0.7819,-0.7279,-0.6531,-0.6379,-0.6079,-0.5236,-0.5732,-0.6229,-0.5789,-0.534,-0.509,-0.519,-0.514,-0.4987,-0.4834,-0.4784,-0.4784,-0.4784,-0.4784,-0.4784,-0.4784,-0.4784,-0.4762,-0.4757,-0.4726,-0.4657,-0.4491,-0.4502,-0.4489,-0.4488,-0.4667,-0.4919,-0.5235,-0.5235,-0.5371,-0.5597,-0.5597,-0.5644,-0.5688,-0.5688,-0.6349,-0.7452,-0.693,-0.7068,-0.7847,-0.9379,-1.0265,-1.0782,-1.2057,-1.2635,-1.2813,-1.2813,-1.2813,-1.2813,0.0,0.0,0.0,0.0,0.0,-0.6889,-0.6894,-0.7239,-0.7501,-0.7493,0.0,0.0,0.0,0.0,-0.5702,-0.3983,-0.4119,-0.43,-0.43,-0.43,-0.43,-0.43,-0.43,-0.43,-0.43,-0.4271,-0.4315,-0.4433,-0.4581,-0.4672,-0.4792,-0.5102,-0.5327,-0.5416,-0.5416,-0.5508,-0.5688,-0.5688,-0.5688,-0.5688,0.0,0.0,-0.5688,0.0,0.0,0.0,0.0,0.0,0.0,0.0,0.0,0.0,-0.5688,-0.5715,-0.5806,-0.588,-0.6694,0.0,-0.7743,0.0,0.0,0.0,-0.9008,-0.8368,-0.7226,0.0,-0.7273,-0.5539,-0.6282,-0.6977,-0.6139,-0.5691,-0.5491,-0.5491,-0.5391,-0.5238,-0.4987,-0.5035,-0.4985,-0.4834,-0.4885,-0.4887,-0.4784,-0.476,-0.4769,-0.4712,-0.4653,0.0,-0.4535,-0.4499,-0.4544,-0.4659,-0.4928,-0.5196,-0.5508,-0.5508,-0.5552,-0.5688,-0.5688,-0.5688,-0.5688,-0.6041,-0.6833,-0.8017,-0.8017,-0.8237,-0.86,-0.9807,-1.0643,-1.118,-1.2078,-1.2554,-1.2813,-1.2813,-1.2813,-1.2813,0.0,0.0,-0.6722,-0.6736,-0.7054,-0.7334,-0.7301,-0.764,-0.7908,-0.7929,0.0,0.0,0.0,0.0,0.0,-0.4433,-0.4253,-0.4253,-0.43,-0.4253,-0.4253,-0.43,-0.43,-0.43,-0.43,-0.4262,-0.4393,-0.4705,-0.4563,-0.4695,-0.501,-0.501,-0.5146,-0.5416,-0.5416,-0.5508,-0.5688,-0.5688,-0.5688,-0.5688,0.0,-0.5688,-0.5688,0.0,0.0,0.0,-0.5688,-0.5688,0.0,-0.5688,0.0,0.0,-0.5694,-0.5814,-0.5904,-0.5912,-0.6823,0.0,0.0,0.0,0.0,0.0,0.0,0.0,-0.7865,-0.8113,-0.8163,-0.5787,-0.6331,-0.7027,-0.6189,-0.5992,-0.5992,-0.5992,-0.5789,-0.5536,-0.524,-0.5436,-0.5386,-0.4885,-0.5035,-0.5083,-0.483,-0.4755,-0.4704,-0.4702,-0.4536,-0.4528,-0.4802,-0.4757,-0.4928,-0.5371,-0.5597,-0.5688,-0.5688,-0.5688,-0.5688,-0.5688,-0.5688,-0.5688,-0.5733,-0.6656,-0.7095,-0.7228,-0.9113,-1.0429,-1.124,-1.0608,-1.1051,-1.2116,-1.2312,-1.2549,-1.2813,-1.2813,-1.2813,-1.2813,0.0,-0.7001,-0.7166,-0.7246,-0.7512,-0.7746,-0.7727,-0.7954,-0.8116,0.0,0.0,0.0,0.0,-0.6257,-0.5295,-0.4389,-0.3673,-0.3583,-0.4253,-0.3673,-0.3583,-0.4253,-0.448,-0.4569,-0.4569,-0.4718,-0.4763,-0.4705,-0.4987,-0.5031,-0.4792,-0.5282,-0.5463,-0.5416,-0.5552,-0.5644,-0.5688,-0.5688,-0.5688,-0.5688,-0.5688,-0.5688,0.0,0.0,0.0,0.0,0.0,-0.5688,-0.5688,0.0,-0.5688,-0.5702,0.0,0.0,-0.5937,-0.6116,-0.75,0.0,-0.9055,0.0,0.0,0.0,0.0,0.0,-0.9989,-1.0186,-0.9842,-0.7428,-0.8021,-0.8418,-0.6634,-0.6287,-0.6287,-0.6287,-0.6039,-0.5789,-0.5539,-0.5388,-0.524,-0.509,-0.4932,-0.4794,-0.4743,-0.4663,-0.4583,0.0,-0.4604,-0.4684,-0.4705,-0.4851,-0.5057,-0.5371,-0.5463,-0.5552,-0.5688,-0.5688,-0.5688,-0.5688,-0.5688,-0.5688,-0.5733,-0.6656,-0.7492,-0.8193,-0.9375,-1.0429,-1.1267,-1.1109,-1.146,-1.21,-1.217,-1.2451,-1.2813,-1.2813,-1.2813,-1.2813,-0.7094,-0.7275,-0.7461,-0.7643,-0.7856,-0.8032,-0.8017,-0.8201,-0.838,0.0,0.0,0.0,0.0,0.0,-0.5159,-0.4525,-0.3987,-0.3941,-0.4565,-0.4072,-0.4028,-0.4565,-0.4746,-0.4792,-0.4705,-0.4749,-0.4791,-0.4837,-0.497,-0.5061,-0.5107,-0.5419,-0.5552,-0.5552,-0.5644,-0.5688,-0.5688,-0.5688,0.0,0.0,-0.5688,0.0,0.0,-0.5688,-0.5952,0.0,0.0,0.0,-0.6305,-0.6305,-0.6041,0.0,0.0,0.0,0.0,0.0,0.0,0.0,0.0,0.0,0.0,0.0,0.0,0.0,-1.0382,-1.0681,-1.0386,-0.7528,-0.7975,-0.8418,-0.6734,-0.6287,-0.6287,-0.6387,-0.6148,-0.5936,-0.5782,-0.5703,-0.5577,-0.5329,-0.5096,-0.4892,-0.4793,-0.4614,-0.4493,-0.4392,-0.463,-0.4811,-0.4975,-0.5193,-0.5371,-0.5508,-0.5508,-0.5597,-0.5688,-0.5688,-0.5688,-0.5688,-0.5688,-0.5911,-0.6305,-0.7272,-0.8193,-0.9157,-1.0077,-1.0781,-1.1305,-1.1305,-1.1569,-1.1954,-1.2056,-1.2327,-1.263,-1.2775,-1.2813,-1.2813,0.0,-0.7496,-0.7577,-0.7837,-0.8061,-0.8201,-0.8245,-0.8428,-0.8612,0.0,-0.8652,0.0,0.0,0.0,0.0,0.0,-0.4525,-0.4567,-0.4964,-0.4786,-0.4786,-0.4966,-0.501,-0.4924,-0.475,-0.466,-0.4743,-0.5055,-0.4789,0.0,0.0,0.0,0.0,-0.5688,-0.5688,-0.5688,-0.5688,-0.5688,0.0,-0.5688,-0.5688,-0.5688,0.0,0.0,-0.6393,-0.7095,-0.7228,-0.7272,-0.7272,-0.7272,-0.67,0.0,0.0,0.0,0.0,0.0,-0.8073,0.0,0.0,0.0,0.0,0.0,-1.2813,0.0,-1.0087,-1.0529,-1.048,-0.7229,-0.7528,-0.8021,-0.693,-0.6537,-0.6434,-0.6517,-0.6279,-0.6054,-0.6059,-0.6126,-0.6055,-0.5521,-0.5377,-0.5169,-0.4931,-0.461,-0.4466,-0.4466,-0.4664,-0.4971,-0.5416,-0.5599,-0.5688,-0.5688,-0.5688,-0.5688,-0.5688,-0.5688,-0.5688,-0.5688,-0.5688,-0.6171,-0.7139,-0.8061,-0.9026,-0.9946,-1.0868,-1.1305,-1.1305,-1.1305,-1.1445,-1.1725,-1.2002,-1.2199,-1.2441,-1.2678,-1.2813,-1.2813,-0.7187,-0.736,-0.7577,-0.7837,-0.8061,-0.8288,-0.8476,-0.8564,-0.8612,-0.8612,-0.8947,0.0,0.0,0.0,0.0,0.0,-0.3491,-0.3266,-0.4875,-0.3534,-0.3312,-0.4703,-0.4924,-0.4966,-0.4921,-0.5127,-0.526,-0.5327,0.0,0.0,0.0,0.0,0.0,0.0,-0.5688,-0.5688,-0.5688,-0.5688,0.0,-0.5688,-0.5688,-0.5688,-0.5777,-0.6526,-0.6918,-0.7183,-0.7973,-0.8237,-0.8237,-0.8237,-0.8105,-0.7893,0.0,0.0,0.0,-0.7853,0.0,0.0,0.0,0.0,0.0,0.0,0.0,0.0,-1.2214,-1.2316,-1.2068,-1.048,-1.0382,-1.0239,-0.916,-0.8916,-0.8576,-0.7664,-0.7337,-0.6946,-0.6347,-0.6008,-0.5696,-0.536,-0.5218,-0.5062,-0.4835,-0.4702,-0.4732,-0.4862,-0.5114,-0.5374,-0.5644,-0.5688,-0.5688,-0.5688,-0.5688,-0.5688,-0.5688,-0.5688,-0.5688,-0.5688,-0.5688,-0.6171,-0.7139,-0.8061,-0.9026,-0.9946,-1.0868,-1.1305,-1.1305,-1.1305,-1.1445,-1.1725,-1.2002,-1.2199,-1.2441,-1.2678,-1.2813,-1.2813,-0.7544,-0.7625,-0.7797,-0.8201,-0.8336,-0.8428,-0.8568,-0.8612,-0.87,-0.8915,-0.934,0.0,0.0,0.0,0.0,0.0,0.0,0.0,0.0,-0.4429,-0.4297,-0.5151,-0.5282,-0.5282,-0.5191,-0.5327,-0.5327,-0.5191,0.0,0.0,0.0,0.0,0.0,0.0,-0.5688,-0.5688,-0.5688,-0.5688,-0.5688,-0.5688,-0.5688,0.0,-0.6438,-0.6922,-0.7669,-0.8544,-0.9026,-0.92,-0.92,-0.92,-0.8588,0.0,-0.8576,-0.8629,-0.8425,0.0,-0.982,-1.1219,0.0,0.0,0.0,-1.2813,0.0,0.0,0.0,-1.2014,-1.1722,-1.0636,-1.0307,-1.0043,-0.9514,-0.9204,-0.8733,-0.7794,-0.7294,-0.6829,-0.6178,-0.585,-0.558,-0.5486,-0.5341,-0.5227,-0.5096,-0.4956,-0.4968,-0.5191,-0.5327,-0.5508,-0.5688,-0.5688,-0.5688,-0.5688,-0.5688,-0.5688,-0.5688,-0.5688,-0.5688,-0.5688,-0.5688,-0.6438,-0.7797,-0.8281,-0.9288,-1.0603,-1.1089,-1.1305,-1.1305,-1.1305,-1.1375,-1.1558,-1.1954,-1.217,-1.2321,-1.2678,-1.2813,-1.2813,-0.8296,-0.8021,-0.8021,-0.8428,-0.852,-0.852,-0.8612,-0.8612,-0.8784,-0.9345,-0.9781,0.0,0.0,0.0,0.0,0.0,0.0,0.0,0.0,-0.551,-0.5508,-0.5644,-0.5644,-0.5552,-0.5416,-0.5416,-0.5327,-0.5144,0.0,0.0,0.0,0.0,0.0,0.0,0.0,0.0,-0.5688,0.0,0.0,-0.5952,0.0,-0.6305,-0.6877,-0.7228,-0.8324,-0.9685,-1.0033,-1.0164,-1.012,-0.9946,-0.8894,-0.7919,-0.9413,-0.9138,0.0,0.0,0.0,0.0,0.0,0.0,0.0,0.0,0.0,-1.2565,0.0,0.0,0.0,-1.0347,0.0,0.0,0.0,0.0,0.0,0.0,0.0,0.0,0.0,-0.578,0.0,-0.5557,-0.5428,-0.5327,-0.5327,-0.5191,-0.5146,-0.5371,-0.5416,-0.5508,-0.5688,-0.5688,-0.5688,-0.5688,-0.5688,-0.5688,-0.5688,-0.5688,-0.5688,-0.5688,-0.5866,-0.6877,-0.85,-0.8675,-0.968,-1.1305,-1.1305,-1.1305,-1.1305,-1.1305,-1.1305,-1.1348,-1.1817,-1.2051,-1.2143,-1.2586,-1.2775,-1.2813,-0.9366,-0.8416,-0.7984,-0.8201,-0.8245,-0.8336,-0.8564,-0.8612,-0.8915,0.0,0.0,0.0,0.0,0.0,0.0,0.0,0.0,0.0,-0.5644,0.0,-0.4746,-0.5416,-0.5416,-0.5416,-0.5416,-0.5416,-0.5463,-0.5599,-0.5644,0.0,0.0,0.0,0.0,0.0,-0.5688,0.0,0.0,0.0,-0.6174,0.0,-0.6918,-0.6526,0.0,-0.7709,-0.8456,-0.8894,-1.0559,-1.1132,-1.0997,0.0,-0.9772,-0.953,0.0,-0.9701,-1.0347,-1.0826,0.0,0.0,0.0,0.0,0.0,0.0,-1.2813,0.0,0.0,0.0,-1.2506,-1.2157,0.0,0.0,0.0,0.0,0.0,0.0,0.0,0.0,-0.6862,-0.5966,-0.5437,-0.5437,-0.5198,-0.5055,-0.5055,-0.5235,-0.5371,-0.5416,-0.5552,-0.5688,-0.5688,-0.5688,-0.5688,-0.5688,-0.5688,-0.5688,-0.5688,-0.5688,-0.5688,-0.5688,-0.6526,-0.7492,-0.8544,-0.9375,-1.0299,-1.1305,-1.1305,-1.1305,-1.1305,-1.1305,-1.1305,-1.1332,-1.1639,-1.191,-1.2127,-1.2355,-1.2587,-1.2813,-0.984,-0.9148,-0.8807,-0.8472,-0.8428,-0.856,-0.8959,-0.9432,-0.995,-1.0519,0.0,0.0,0.0,0.0,0.0,0.0,0.0,-0.602,0.0,0.0,0.0,-0.5552,-0.5552,-0.5552,-0.5552,-0.5552,-0.5552,-0.5508,-0.5644,-0.5644,0.0,0.0,0.0,0.0,-0.5688,0.0,-0.6482,0.0,-0.626,0.0,0.0,-0.6877,0.0,-0.8588,-0.9637,-1.0207,-1.1003,-1.1305,-1.1219,0.0,-1.0342,0.0,0.0,0.0,0.0,-1.152,0.0,0.0,0.0,0.0,0.0,0.0,0.0,0.0,-1.2813,0.0,-1.2533,0.0,0.0,0.0,0.0,0.0,0.0,0.0,-0.8734,0.0,0.0,0.0,-0.5235,0.0,0.0,0.0,-0.5416,-0.5416,-0.5463,-0.5552,-0.5644,-0.5688,-0.5688,-0.5688,-0.5688,-0.5688,-0.5688,-0.5688,-0.5688,-0.5688,-0.5952,-0.6523,-0.6922,-0.7885,-0.9331,-0.9728,-1.0429,-1.1305,-1.1305,-1.1305,-1.1305,-1.1305,-1.1305,-1.1316,-1.1413,-1.1725,-1.2127,-1.2323,-1.2565,-1.2813,-1.1022,-1.0357,-0.9889,-0.9432,-0.9301,-0.9314,-0.9455,-1.0293,-1.0923,-1.087,0.0,0.0,-1.1048,-1.0505,0.0,0.0,-0.7417,-0.6737,0.0,0.0,-0.5814,-0.5737,-0.5734,0.0,-0.5688,-0.5688,-0.5644,-0.5463,-0.5644,0.0,0.0,0.0,0.0,0.0,0.0,-0.6219,-0.7051,0.0,-0.6789,-0.7885,-0.7885,-0.8017,-0.8368,-0.9462,-1.0472,-1.1305,-1.1305,-1.1305,-1.1262,-1.0997,-1.0472,0.0,-1.0809,-1.0811,-1.0796,0.0,0.0,0.0,-1.2813,0.0,0.0,0.0,0.0,0.0,0.0,0.0,0.0,0.0,0.0,0.0,0.0,0.0,0.0,0.0,0.0,-0.7746,0.0,-0.5549,0.0,0.0,0.0,0.0,0.0,-0.5508,-0.5463,-0.5688,-0.5688,-0.5688,-0.5688,-0.5688,-0.5688,-0.5688,-0.5688,-0.5688,-0.5688,-0.5688,-0.6174,-0.7095,-0.736,-0.8324,-0.9903,-1.0164,-1.0651,-1.1305,-1.1305,-1.1305,-1.1305,-1.1305,-1.1305,-1.1305,-1.1305,-1.1596,-1.2024,-1.2226,-1.2506,-1.2813,-1.3652,-1.2258,-1.1241,-1.1235,-1.1033,-1.067,-0.9974,-1.0956,-1.1507,-1.0699,-1.1073,0.0,0.0,0.0,0.0,0.0,0.0,-0.6125,-0.6075,0.0,-0.6021,0.0,0.0,-0.5847,0.0,-0.5688,-0.5688,-0.5688,-0.5688,0.0,0.0,0.0,0.0,0.0,-0.5688,-0.6219,-0.7095,-0.7051,-0.8105,-0.9816,-0.9816,-1.0342,-1.1089,0.0,-1.0472,-1.1305,-1.1305,0.0,0.0,-1.025,-0.9946,-0.9936,0.0,0.0,0.0,0.0,0.0,0.0,0.0,0.0,0.0,-1.2813,0.0,0.0,0.0,0.0,-1.2344,0.0,0.0,0.0,0.0,0.0,0.0,0.0,0.0,0.0,0.0,0.0,0.0,0.0,0.0,0.0,0.0,-0.5416,-0.5463,0.0,-0.5688,-0.5688,-0.5688,-0.5688,-0.5688,-0.5688,-0.5688,-0.5688,-0.5688,-0.5688,-0.6174,-0.7095,-0.8017,-0.8982,-0.9946,-1.0824,-1.1267,-1.1305,-1.1305,-1.1305,-1.1305,-1.1305,-1.1305,-1.1305,-1.1305,-1.1455,-1.1741,-1.2019,-1.2402,-1.2813,-1.4597,-1.4123,-1.3363,-1.2104,-1.1855,-1.1713,-1.139,-1.2124,-1.2505,-1.189,-1.1963,0.0,0.0,-1.1944,-1.1211,0.0,0.0,-0.8729,-0.7265,-0.7164,0.0,0.0,0.0,-0.6005,0.0,0.0,-0.5926,-0.5844,-0.5844,0.0,0.0,0.0,0.0,0.0,0.0,-0.6567,0.0,0.0,0.0,0.0,0.0,-1.0472,-1.1267,0.0,-1.1003,-1.1305,-1.1305,-1.1305,-1.1262,-1.0911,-1.0824,-1.084,-1.0912,-1.1234,-1.1686,-1.2099,-1.2499,-1.2813,0.0,0.0,-1.2813,-1.2813,0.0,0.0,0.0,0.0,0.0,0.0,0.0,0.0,0.0,0.0,0.0,0.0,0.0,0.0,0.0,0.0,0.0,0.0,0.0,0.0,0.0,0.0,0.0,0.0,-0.5688,0.0,-0.5688,-0.5688,-0.5688,-0.5688,-0.5688,-0.5688,-0.5688,-0.6305,-0.7095,-0.8017,-0.8982,-0.9903,-1.0824,-1.1176,-1.1305,-1.1305,-1.1305,-1.1305,-1.1305,-1.1305,-1.1305,-1.1305,-1.1305,-1.145,-1.1731,-1.2008,-1.23,-1.2554,-1.5591,-1.5591,-1.5099,-1.3559,-1.3562,-1.3521,-1.2973,-1.3449,-1.3601,-1.2744,-1.2581,0.0,-1.2797,0.0,-1.191,0.0,-1.0741,-0.9725,-0.7938,-0.817,0.0,-0.6247,-0.6527,-0.6504,0.0,0.0,0.0,0.0,0.0,-0.5909,0.0,0.0,0.0,0.0,0.0,-0.6745,-0.8456,-0.7841,-0.8675,0.0,0.0,-1.0781,0.0,0.0,-1.1305,-1.1305,-1.1305,-1.1305,-1.1305,-1.1305,-1.1305,-1.1305,-1.1305,-1.1671,-1.2094,-1.2094,-1.2435,-1.2813,-1.2813,-1.2813,0.0,-1.2657,-1.2641,0.0,-1.2575,0.0,-1.197,0.0,0.0,0.0,0.0,0.0,0.0,0.0,0.0,0.0,0.0,-0.5688,0.0,0.0,0.0,0.0,0.0,0.0,0.0,0.0,0.0,0.0,0.0,-0.5688,-0.5688,-0.5688,-0.5688,-0.5688,-0.5688,-0.6305,-0.7228,-0.85,-0.9113,-1.0077,-1.1305,-1.1305,-1.1305,-1.1305,-1.1305,-1.1305,-1.1305,-1.1305,-1.1305,-1.1305,-1.1305,-1.1402,-1.1612,-1.1975,-1.23,-1.256,-1.6588,-1.6581,-1.6353,-1.5535,-1.5997,-1.6014,-1.4613,-1.4806,-1.4663,-1.3318,-1.299,-1.2861,-1.2813,-1.1868,-1.1272,-1.1272,-1.0342,-0.9308,-0.8219,-0.911,0.0,0.0,-0.733,-0.7315,-0.62,0.0,0.0,0.0,0.0,0.0,0.0,0.0,0.0,0.0,-0.5696,0.0,-0.8456,-0.85,-0.9593,-1.1305,-1.1305,-1.1305,-1.1305,-1.1305,-1.1305,-1.1305,-1.1305,-1.1305,-1.1305,-1.1305,-1.1305,-1.1311,-1.1321,-1.1682,-1.2094,-1.2105,-1.2445,-1.2813,-1.2813,-1.2802,-1.2743,-1.2468,-1.2404,0.0,0.0,0.0,-1.1698,0.0,0.0,0.0,0.0,0.0,0.0,0.0,0.0,0.0,0.0,0.0,0.0,0.0,0.0,0.0,0.0,0.0,0.0,0.0,0.0,0.0,0.0,-0.5688,-0.5688,-0.5688,-0.5688,-0.5688,-0.5688,-0.5777,-0.6745,-0.85,-0.8588,-0.9593,-1.1305,-1.1305,-1.1305,-1.1305,-1.1305,-1.1305,-1.1305,-1.1305,-1.1305,-1.1305,-1.1305,-1.1316,-1.138,-1.1927,-1.2391,-1.2797,-1.6359,-1.6447,-1.6586,-1.6572,-1.656,-1.6303,-1.552,-1.5717,-1.5378,-1.3902,-1.3667,-1.3431,-1.2861,-1.2565,-1.2414,-1.2414,-1.2122,0.0,0.0,0.0,0.0,-0.8807,-0.8259,-0.7799,-0.7521,-0.6738,-0.6306,-0.627,0.0,0.0,-0.604,0.0,0.0,0.0,0.0,-0.6436,-0.7489,-0.8193,-0.9593,-1.1305,-1.1305,-1.1305,-1.1305,0.0,-1.1305,-1.1305,-1.1305,-1.1305,-1.1305,-1.1305,-1.1305,-1.1337,-1.1509,-1.1811,-1.2132,-1.2269,-1.2527,-1.2813,-1.2813,-1.2635,-1.249,-1.2431,-1.2274,-1.217,0.0,0.0,0.0,0.0,0.0,0.0,0.0,0.0,0.0,0.0,0.0,0.0,0.0,0.0,0.0,-0.5688,0.0,0.0,0.0,0.0,0.0,0.0,0.0,0.0,-0.5688,0.0,-0.5688,-0.5688,-0.5688,-0.5688,-0.5688,-0.7095,-0.8017,-0.85,-0.9903,-1.0824,-1.1305,-1.1305,-1.1305,-1.1305,-1.1305,-1.1305,-1.1305,-1.1305,-1.1305,-1.1305,-1.1305,-1.1413,-1.1645,-1.1986,-1.2289,-1.2527,-1.7372,-1.7005,-1.6831,-1.7113,-1.6918,-1.6683,-1.6487,-1.6055,-1.5432,-1.4526,-1.4094,0.0,-1.2856,-1.3098,-1.3141,-1.2813,-1.2813,0.0,-1.1272,0.0,0.0,-0.9657,-0.9452,-0.9156,-0.8715,-0.812,0.0,-0.7027,0.0,0.0,-0.6165,0.0,0.0,0.0,0.0,-0.6363,-0.7272,-0.8572,-0.9946,-1.1305,-1.1305,-1.1305,0.0,-1.1305,-1.1305,-1.1305,-1.1305,-1.1305,-1.1305,-1.1305,-1.1305,-1.1348,-1.1628,-1.186,-1.2143,-1.2339,-1.2581,-1.2813,-1.2813,-1.2592,-1.2388,-1.228,-1.2121,-1.191,-1.1768,-1.1639,-1.1548,0.0,-1.1402,-1.1305,0.0,0.0,0.0,0.0,0.0,0.0,0.0,0.0,0.0,0.0,-0.5688,0.0,0.0,0.0,0.0,0.0,0.0,0.0,0.0,0.0,-0.5688,-0.5688,-0.6086,-0.613,-0.5688,-0.7577,-0.85,-0.85,-0.999,-1.0911,-1.1305,-1.1305,-1.1305,-1.1305,-1.1305,-1.1305,-1.1305,-1.1305,-1.1305,-1.1305,-1.1305,-1.1391,-1.1575,-1.1811,-1.2118,-1.2452,-1.8603,-1.7753,-1.7066,-1.7286,-1.7153,-1.7113,-1.7286,-1.619,-1.5337,-1.5242,0.0,-1.3908,-1.3195,-1.3667,-1.3763,-1.3001,-1.2953,-1.2511,-1.1468,-1.2262,-1.197,-1.01,-1.0783,-1.0779,-0.985,-0.9657,-0.9061,0.0,0.0,0.0,0.0,0.0,0.0,0.0,0.0,0.0,0.0,-0.9279,-1.0429,-1.1305,-1.1305,-1.1305,-1.1305,-1.1305,-1.1305,-1.1305,-1.1305,-1.1305,-1.1305,-1.1305,-1.1305,-1.1354,-1.1661,-1.1932,-1.2148,-1.2377,-1.2603,-1.2807,-1.2775,-1.2544,-1.2307,-1.211,-1.1873,-1.1602,-1.1354,-1.1305,-1.1305,-1.1305,-1.1305,-1.1305,-1.1305,0.0,0.0,0.0,0.0,0.0,0.0,0.0,0.0,0.0,0.0,0.0,0.0,0.0,0.0,0.0,0.0,0.0,0.0,0.0,-0.5688,-0.5688,-0.6612,-0.67,-0.5911,-0.7753,-0.8675,-0.8675,-0.9641,-1.0516,-1.1305,-1.1305,-1.1305,-1.1305,-1.1305,-1.1305,-1.1305,-1.1305,-1.1305,-1.1305,-1.1305,-1.1305,-1.1337,-1.1612,-1.1984,-1.2404,-1.7559,-1.7246,-1.7066,-1.7286,-1.7286,-1.7239,-1.7279,-1.7091,-1.6716,-1.6096,-1.5859,-1.5527,-1.4765,-1.4813,-1.4573,-1.3763,-1.3715,0.0,0.0,0.0,0.0,-1.2268,-1.157,-1.1121,-1.0925,-1.0047,-0.9061,0.0,0.0,0.0,0.0,0.0,0.0,0.0,0.0,0.0,-0.9786,-0.9856,0.0,-1.1305,-1.1305,-1.1305,-1.1305,-1.1305,-1.1305,-1.1305,-1.1305,-1.1305,-1.1305,-1.1305,-1.1305,-1.1386,-1.19,-1.2062,-1.2181,-1.2624,-1.278,-1.277,-1.2527,-1.2296,-1.21,-1.1817,-1.1585,-1.1359,-1.1316,-1.1305,-1.1305,-1.1305,-1.1305,-1.1305,-1.1305,0.0,0.0,0.0,0.0,0.0,0.0,0.0,0.0,0.0,0.0,-0.6571,0.0,0.0,0.0,0.0,0.0,-0.5508,-0.5688,0.0,-0.5688,0.0,-0.6612,-0.701,0.0,0.0,-0.9637,-0.968,-1.0603,-1.1132,-1.1305,-1.1305,-1.1305,-1.1305,-1.1305,-1.1305,-1.1305,-1.1305,-1.1305,-1.1305,-1.1305,-1.1305,-1.1337,-1.1612,-1.1876,-1.2191,-1.7897,-1.7749,-1.765,-1.7563,-1.7582,-1.7523,-1.7355,-1.7279,-1.7044,-1.6285,-1.619,-1.5906,-1.5194,-1.5432,-1.5384,-1.4573,-1.4142,-1.3763,-1.3383,-1.3001,-1.2813,-1.2813,-1.2311,-1.2014,-1.2014,-1.1526,-1.044,-0.8814,0.0,0.0,0.0,0.0,0.0,0.0,0.0,-0.8477,0.0,0.0,-1.0741,-1.1532,-1.1532,-1.1413,-1.1305,-1.1305,-1.1305,-1.1305,-1.1305,-1.1305,-1.1305,-1.1305,-1.1305,-1.1391,-1.1943,-1.2094,-1.2186,-1.2672,-1.2678,-1.2554,-1.2447,-1.2145,-1.1838,-1.1731,-1.1482,-1.1305,-1.1305,-1.1305,-1.1305,-1.1305,-1.1305,-1.1305,-1.1305,-1.1305,0.0,0.0,0.0,0.0,0.0,0.0,-0.8324,0.0,0.0,0.0,0.0,0.0,0.0,0.0,0.0,-0.5599,-0.5688,0.0,-0.5688,0.0,0.0,0.0,-0.7095,0.0,-1.0386,-0.9903,-1.0868,-1.1305,-1.1305,-1.1305,-1.1305,-1.1305,-1.1305,-1.1305,-1.1305,-1.1305,-1.1305,-1.1305,-1.1305,-1.1305,-1.1321,-1.1434,-1.1741,-1.2127,-1.8395,-1.8299,-1.8218,-1.7962,-1.786,-1.7728,-1.7472,-1.7377,-1.7091,-1.652,-1.6426,-1.619,-1.5622,-1.6096,-1.6143,-1.5384,-1.4621,-1.4094,-1.3908,-1.319,-1.2813,-1.2813,-1.2813,-1.2813,-1.2813,-1.2813,-1.1873,0.0,0.0,0.0,0.0,0.0,0.0,0.0,0.0,0.0,0.0,-1.0621,-1.1243,-1.1774,-1.1774,-1.1634,-1.1386,-1.1386,-1.1354,-1.1305,-1.1305,-1.1337,-1.1386,-1.1386,-1.1348,-1.138,-1.1844,-1.2051,-1.2181,-1.2608,-1.256,-1.2404,-1.235,-1.2027,-1.1688,-1.1639,-1.1445,-1.1305,-1.1305,-1.1305,-1.1305,-1.1305,-1.1305,-1.1305,-1.1305,-1.1305,0.0,0.0,0.0,0.0,0.0,0.0,0.0,0.0,0.0,0.0,-0.85,0.0,0.0,0.0,0.0,-0.5997,-0.5997,-0.5997,-0.5997,-0.5997,0.0,-0.8456,-0.7709,0.0,-1.0911,-1.0207,-1.0959,-1.1305,-1.1305,-1.1305,-1.1305,-1.1305,-1.1305,-1.1305,-1.1305,-1.1305,-1.1305,-1.1305,-1.1305,-1.1305,-1.1305,-1.1305,-1.1612,-1.2056,-1.8299,-1.8299,-1.8291,-1.8262,-1.8013,-1.7801,-1.7772,-1.7523,-1.7279,-1.7232,-1.7185,-1.7185,-1.7091,-1.7138,-1.6904,-1.6143,-1.5432,-1.4669,-1.395,-1.319,-1.2813,-1.2813,-1.2813,-1.2813,-1.2813,-1.2813,-1.2214,0.0,0.0,-1.0038,0.0,0.0,0.0,0.0,0.0,-1.0183,-1.2078,-1.2001,-1.1986,-1.2062,-1.2062,-1.1921,-1.1666,-1.1666,-1.1488,-1.1305,-1.1305,-1.1445,-1.1666,-1.1666,-1.1482,-1.1354,-1.165,-1.1921,-1.2148,-1.2366,-1.2431,-1.2366,-1.2191,-1.1937,-1.1645,-1.1391,-1.1327,-1.1305,-1.1305,-1.1305,-1.1305,-1.1305,-1.1305,-1.1305,-1.1305,-1.1305,-1.1267,0.0,0.0,0.0,0.0,0.0,-1.0733,-0.9859,0.0,0.0,-0.8588,-0.85,0.0,0.0,-0.7448,-0.6966,-0.6966,-0.6966,-0.6966,-0.6966,-0.8807,-0.9728,-0.9641,-1.0738,-1.1262,-1.1176,-1.1262,-1.1305,-1.1305,-1.1305,-1.1305,-1.1305,-1.1305,-1.1305,-1.1305,-1.1305,-1.1305,-1.1305,-1.1305,-1.1305,-1.1305,-1.1305,-1.1472,-1.1763,-2.0766,-2.0806,-2.0542,-1.9698,-1.9452,-1.9102,-1.8228,-1.7999,-1.7911,-1.7911,-1.7574,-1.7279,-1.7279,-1.7279,-1.6998,-1.6237,-1.5527,-1.4765,-1.395,-1.319,-1.2813,-1.2813,-1.2813,-1.2813,-1.2813,-1.2813,-1.2262,0.0,0.0,0.0,0.0,0.0,0.0,0.0,-1.0352,-1.0902,-1.1732,-1.2273,-1.2445,-1.2269,-1.2269,-1.2124,-1.1954,-1.1954,-1.1849,-1.1768,-1.1768,-1.1828,-1.1954,-1.1954,-1.1894,-1.1811,-1.2054,-1.2194,-1.2312,-1.2554,-1.2527,-1.2361,-1.2159,-1.1921,-1.1645,-1.1364,-1.1305,-1.1305,-1.1305,-1.1305,-1.1305,-1.1305,-1.1305,-1.1305,-1.1305,-1.1305,-1.1305,-1.1305,0.0,0.0,0.0,0.0,0.0,-1.0781,0.0,-1.0603,0.0,-1.0164,0.0,0.0,0.0,-0.7929,-0.7929,-0.7929,-0.7929,-0.7929,0.0,-0.9903,-0.9903,-1.0824,-1.1305,-1.1305,-1.1305,-1.1305,-1.1305,-1.1305,-1.1305,-1.1305,-1.1305,-1.1305,-1.1305,-1.1305,-1.1305,-1.1305,-1.1305,-1.1305,-1.1305,-1.1305,-1.1455,-1.1736,-2.2583,-2.2534,-2.2105,-2.0803,-2.0474,-1.9983,-1.8624,-1.8364,-1.8299,-1.8299,-1.7904,-1.7582,-1.7479,-1.7472,-1.7192,-1.6581,-1.5669,-1.486,-1.4286,-1.3335,-1.2813,-1.2813,-1.2813,0.0,-1.2813,-1.2813,-1.2414,-1.1668,-1.2414,0.0,0.0,0.0,0.0,-1.0542,-1.0979,-1.137,-1.1717,-1.2165,-1.2223,-1.2029,-1.2029,-1.189,-1.1729,-1.2058,-1.2154,-1.2094,-1.2094,-1.2137,-1.2202,-1.2202,-1.2245,-1.231,-1.2296,-1.2355,-1.2447,-1.2614,-1.2544,-1.2377,-1.2251,-1.2029,-1.1747,-1.1466,-1.1407,-1.1391,-1.1321,-1.1305,-1.1305,-1.1305,-1.1305,-1.1305,-1.1305,-1.1305,-1.1305,-1.1305,0.0,0.0,0.0,-1.1305,0.0,-1.1305,-1.1305,-1.1305,-1.1305,-1.1305,0.0,0.0,0.0,-0.92,-0.8938,-0.8894,-0.8894,0.0,0.0,0.0,-1.0299,-1.0954,-1.1305,-1.1305,-1.1305,-1.1305,-1.1305,-1.1305,-1.1305,-1.1305,-1.1305,-1.1305,-1.1305,-1.1305,-1.1305,-1.1305,-1.1305,-1.1305,-1.1305,-1.1305,-1.1413,-1.1639,-2.2885,-2.2685,-2.2139,-2.1081,-2.0641,-2.0061,-1.8984,-1.8511,-1.8299,-1.8299,-1.8291,-1.8167,-1.7845,-1.7808,-1.7684,-1.7308,-1.5954,-1.5099,-1.5099,-1.3667,-1.2813,0.0,0.0,-1.2813,-1.2813,-1.2813,-1.2813,-1.2759,0.0,0.0,-1.117,-1.0096,-1.0739,-1.2716,-1.1668,-1.1765,-1.271,-1.1668,-1.1219,-1.1214,-1.1214,-1.1047,-1.091,-1.1973,-1.2258,-1.2094,-1.2094,-1.2251,-1.2409,-1.2409,-1.2565,-1.2721,-1.2245,-1.2221,-1.2414,-1.242,-1.242,-1.2414,-1.2414,-1.2231,-1.2035,-1.1752,-1.1698,-1.1634,-1.1359,-1.1305,-1.1305,-1.1305,-1.1305,-1.1305,-1.1305,-1.1305,-1.1305,-1.1305,0.0,0.0,0.0,-1.1305,0.0,-1.1305,-1.1305,-1.1305,-1.1305,-1.1305,0.0,0.0,0.0,-1.0868,-0.9946,0.0,0.0,-0.9903,-1.0781,0.0,-1.1262,-1.1305,-1.1305,-1.1305,-1.1305,-1.1305,-1.1305,-1.1305,-1.1305,-1.1305,-1.1305,-1.1305,-1.1305,-1.1305,-1.1305,-1.1305,-1.1305,-1.1305,-1.1305,-1.1305,-1.1311,-1.1375,-2.4815,-2.4156,-2.3235,-2.219,-2.129,-2.037,-1.9324,-1.903,-1.8964,-1.8964,-1.8964,-1.884,-1.8511,-1.8284,-1.7905,0.0,-1.6259,-1.5337,0.0,-1.3632,-1.2926,-1.2818,-1.2813,-1.2813,-1.2813,-1.2813,-1.2813,-1.2813,0.0,0.0,-1.2262,-1.1922,-1.217,-1.2813,-1.2462,-1.2462,-1.271,-1.1668,-1.1219,-1.1126,-1.0391,-1.0498,-1.1124,-1.1468,-1.2016,-1.2581,-1.2581,-1.2635,-1.2651,-1.2651,-1.2748,-1.2786,-1.2629,-1.2635,-1.2651,-1.2651,-1.2651,-1.2619,-1.2457,-1.2361,-1.2237,-1.2046,-1.1981,-1.1921,-1.1639,-1.1418,-1.1305,-1.1305,-1.1305,-1.1305,-1.1305,-1.1305,-1.1305,-1.1305,-1.1305,0.0,-1.1305,0.0,-1.1305,-1.1305,-1.1305,-1.1305,-1.1305,-1.1305,0.0,0.0,0.0,0.0,0.0,0.0,0.0,0.0,-1.1132,0.0,-1.1305,-1.1305,-1.1305,-1.1305,-1.1305,-1.1305,-1.1305,-1.1305,-1.1305,-1.1305,-1.1305,-1.1305,-1.1305,-1.1305,-1.1305,-1.1305,-1.1305,-1.1305,-1.1305,-1.1305,-1.1305,-1.1375,-2.6024,-2.4952,-2.3741,-2.2693,-2.1633,-2.0534,-1.948,-1.9279,-1.9279,-1.9279,-1.9279,-1.9199,-1.8994,-1.8789,0.0,-1.7676,-1.6837,-1.5958,-1.504,-1.418,-1.3518,-1.3089,-1.2991,-1.2888,-1.2888,-1.2856,-1.2813,-1.2813,-1.2813,-1.2813,-1.2813,-1.2813,-1.2813,-1.2813,-1.2813,-1.2813,-1.271,-1.1668,-1.1219,-1.1121,-1.0489,-1.0342,-1.0685,-1.1473,-1.1965,-1.2262,-1.2662,-1.2813,-1.2813,-1.2813,-1.2813,-1.2813,-1.2813,-1.2813,-1.2813,-1.2813,-1.2813,-1.278,-1.2587,-1.2252,-1.1998,-1.2149,-1.1615,-1.1015,-1.1085,-1.0686,-1.0523,-1.1148,-1.1003,-1.0868,-1.1219,-1.1305,-1.1305,-1.1305,-1.1305,-1.1305,-1.1305,-1.1305,-1.1305,-1.1305,-1.1305,-1.1305,-1.1305,-1.1305,-1.1305,0.0,0.0,0.0,0.0,0.0,-1.1305,-1.1305,-1.1305,-1.1305,-1.1305,-1.1305,-1.1305,-1.1305,-1.1305,-1.1305,-1.1305,-1.1305,-1.1305,-1.1305,-1.1305,-1.1305,-1.1305,-1.1305,-1.1305,-1.1305,-1.1305,-1.1305,-1.1305,-1.1305,-1.1364,-1.1493,-2.6448,-2.5138,-2.3741,-2.2634,-2.154,-2.0483,-1.948,-1.9279,-1.9279,-1.9279,-1.9279,-1.9279,-1.9279,-1.9279,-1.903,-1.8423,0.0,0.0,-1.601,-1.5202,-1.4338,-1.3532,-1.3254,-1.313,-1.313,-1.292,-1.2851,-1.2835,-1.2835,-1.2824,-1.2813,-1.2813,-1.2813,-1.2813,-1.2813,-1.2813,-1.271,-1.1668,-1.1219,-1.117,-1.1121,-1.0538,-0.9948,-1.1922,-1.2116,-1.1419,-1.2462,-1.2813,-1.2813,-1.2813,-1.2813,-1.2813,-1.2813,-1.2813,-1.2813,-1.271,-1.2759,-1.2764,-1.2613,-1.1917,-1.1371,-1.2056,-1.0687,-0.938,-1.0008,-0.9448,-0.9244,-1.0886,-1.0569,-1.025,-1.1132,-1.1305,-1.1305,-1.1305,-1.1305,-1.1305,-1.1305,-1.1305,-1.1305,-1.1305,0.0,0.0,-1.1305,-1.1305,-1.1305,0.0,0.0,0.0,0.0,0.0,-1.1305,-1.1305,-1.1305,-1.1305,-1.1305,-1.1305,-1.1305,-1.1305,-1.1305,-1.1305,-1.1305,-1.1305,-1.1305,-1.1305,-1.1305,-1.1305,-1.1305,-1.1305,-1.1305,-1.1305,-1.1305,-1.1305,-1.1305,-1.1305,-1.1455,-1.1736,0.0,0.0,-2.3384,-2.2089,-2.0987,-2.0086,-1.9376,-1.9279,-1.9279,-1.9279,-1.9279,-1.9279,-1.9279,-1.9279,-1.9213,-1.906,-1.8309,-1.7365,-1.6369,-1.5488,-1.4533,-1.3537,-1.3421,-1.3389,-1.3389,-1.334,-1.3217,-1.3023,-1.3023,-1.2931,-1.2813,-1.2813,-1.2813,-1.2813,-1.2813,-1.2813,-1.271,-1.1668,-1.1219,-1.1121,-1.0293,-1.0342,-1.0877,-1.137,-1.1917,-1.2462,-1.271,-1.2813,-1.2813,-1.2813,-1.2813,-1.2813,-1.2813,-1.2813,-1.2662,-1.1814,-1.2165,-1.2419,-1.0788,-1.0783,-1.1063,-1.0436,-0.9723,-0.9446,-1.0406,-1.0196,-0.9867,-1.0311,-1.0713,-1.1046,-1.1262,-1.1305,-1.1305,-1.1305,-1.1305,-1.1305,-1.1305,-1.1305,-1.1305,0.0,-1.1305,-1.1305,-1.1305,-1.1305,-1.1305,0.0,0.0,-1.1305,-1.1305,-1.1305,-1.1305,-1.1305,-1.1305,-1.1305,-1.1305,-1.1305,-1.1305,-1.1305,-1.1305,-1.1305,-1.1305,-1.1305,-1.1305,-1.1305,-1.1305,-1.1305,-1.1305,-1.1305,-1.1305,-1.1305,-1.1305,-1.1305,-1.1305,-1.1305,-1.1455,-1.1736,-2.5645,-2.4541,-2.3343,-2.2249,-2.1208,-2.0292,-1.9732,-1.968,-1.9576,-1.9324,-1.9279,-1.9279,-1.9279,-1.9279,-1.9279,-1.9279,-1.8848,-1.8189,-1.7179,-1.6344,-1.5398,-1.4479,-1.3899,-1.3636,-1.3636,-1.3534,-1.341,-1.3276,-1.3276,-1.3211,-1.3137,-1.3137,-1.3137,-1.3137,-1.3137,-1.3137,-1.3087,-1.2479,-1.2274,-1.2224,-1.1618,-1.1463,-1.1549,-1.1949,-1.2117,-1.226,-1.2656,-1.2813,-1.2813,-1.2813,-1.2813,-1.2813,-1.2813,-1.2813,-1.2613,-1.1517,-1.1619,-1.1819,-1.0636,-1.0043,-0.9501,-0.8414,-0.8743,-0.9482,-0.9971,-0.9554,-0.9405,-1.0601,-1.0834,-1.0948,-1.124,-1.1305,-1.1305,-1.1305,-1.1305,-1.1305,-1.1305,-1.1305,-1.1305,-1.1305,-1.1305,-1.1305,-1.1305,-1.1305,-1.1305,-1.1305,-1.1305,0.0,-1.1305,-1.1305,-1.1305,-1.1305,-1.1305,-1.1305,-1.1305,-1.1305,-1.1305,-1.1305,-1.1305,-1.1305,-1.1305,-1.1305,-1.1305,-1.1305,-1.1305,-1.1305,-1.1305,-1.1305,-1.1305,-1.1305,-1.1305,-1.1305,-1.1321,-1.1429,-1.1661,-1.1937,-2.5945,-2.4747,-2.3601,-2.2719,-2.1725,-2.0865,-2.0292,-2.013,-1.9931,-1.948,-1.9324,-1.9279,-1.9279,-1.9279,-1.9279,-1.9279,-1.9279,-1.8952,-1.8042,-1.7305,-1.6465,-1.5559,-1.4559,-1.3979,-1.3879,-1.3685,-1.3566,-1.3529,-1.3529,-1.3513,-1.348,-1.348,-1.348,-1.348,-1.348,-1.348,-1.348,-1.348,-1.348,-1.348,-1.348,-1.2951,-1.2196,-1.288,-1.2606,-1.1877,-1.2641,-1.2921,-1.2916,-1.2878,-1.2862,-1.2856,-1.2824,-1.2813,-1.2613,-1.1717,-1.1321,-1.117,-1.0974,-0.9649,-0.8071,-0.7329,-0.8368,-0.9567,-0.9497,-0.8864,-0.8863,-1.1106,-1.102,-1.0692,-1.1266,-1.1332,-1.1305,-1.1305,-1.1305,-1.1305,-1.1305,0.0,-1.1305,-1.1305,-1.1305,-1.1305,-1.1305,-1.1305,-1.1305,-1.1305,-1.1305,-1.1305,-1.1305,-1.1305,-1.1305,-1.1305,-1.1305,-1.1305,-1.1305,-1.1305,-1.1305,-1.1305,-1.1305,-1.1305,-1.1305,-1.1305,-1.1305,-1.1305,-1.1305,-1.1305,-1.1305,-1.1305,-1.1305,-1.1311,-1.1343,-1.1359,-1.1391,-1.1666,-1.1903,-1.2181,-2.6197,-2.5343,-2.4295,-2.307,-2.2123,-2.142,-2.0865,-2.0395,-2.0078,-1.9983,-1.9576,-1.9279,-1.9279,-1.9279,-1.9279,-1.9279,-1.9279,-1.8952,-1.8042,-1.7884,-1.7087,-1.5559,-1.531,-1.4871,-1.4137,-1.4105,-1.3981,-1.3766,-1.3766,-1.3669,-1.348,-1.348,-1.348,-1.348,-1.348,-1.348,-1.348,-1.348,-1.348,-1.348,-1.348,-1.3424,-1.3265,-1.3381,-1.3314,-1.3211,-1.3327,-1.3367,-1.3335,-1.312,-1.305,-1.3017,-1.2872,-1.2813,-1.2764,-1.2613,-1.1917,-1.0974,-1.0096,-0.9604,-0.9505,-1.0284,-1.0043,-0.9846,-1.0689,-1.0601,-1.0464,-1.0882,-1.1232,-1.1504,-1.1606,-1.1439,-1.1305,-1.1305,-1.1305,-1.1305,-1.1305,0.0,-1.1305,-1.1305,-1.1305,-1.1305,-1.1305,-1.1305,-1.1305,-1.1305,-1.1305,-1.1305,-1.1305,-1.1305,-1.1305,-1.1305,-1.1305,-1.1305,-1.1305,-1.1305,-1.1305,-1.1305,-1.1305,-1.1305,-1.1305,-1.1305,-1.1305,-1.1305,-1.1305,-1.1305,-1.1305,-1.1305,-1.1305,-1.1327,-1.1569,-1.1645,-1.1671,-1.1954,-1.2151,-1.2366,-2.6245,-2.579,-2.5099,-2.3569,-2.3029,-2.2476,-2.1471,-2.1113,-2.0747,-2.0189,-2.0145,-1.9946,-1.9376,-1.9576,-1.9628,-1.9331,-1.9279,-1.9116,-1.8736,-1.8251,-1.7667,-1.6876,-1.6411,-1.5773,-1.4928,-1.4461,-1.4137,-1.4024,-1.4024,-1.3965,-1.3868,-1.3868,-1.3868,-1.3868,-1.3868,-1.3868,-1.3868,-1.3868,-1.3868,-1.3868,-1.3868,-1.3868,-1.3852,-1.3717,-1.3663,-1.3647,-1.3523,-1.348,-1.3459,-1.3346,-1.3308,-1.3287,-1.3229,-1.3105,-1.2947,-1.2947,-1.2105,-1.0979,-0.9903,-0.9608,-0.9706,-1.0194,-0.9554,-0.9156,-1.0828,-1.0662,-1.0426,-1.1472,-1.1859,-1.2005,-1.1747,-1.1612,-1.145,-1.1327,-1.1305,-1.1305,-1.1305,-1.1305,-1.1305,-1.1305,-1.1305,-1.1305,-1.1305,-1.1305,-1.1305,-1.1305,-1.1305,-1.1305,-1.1305,-1.1305,-1.1305,-1.1305,-1.1305,-1.1305,-1.1305,-1.1305,-1.1305,-1.1305,-1.1305,-1.1305,-1.1305,-1.1305,-1.1305,-1.1305,-1.1305,-1.1305,-1.1305,-1.1305,-1.1386,-1.1548,-1.1661,-1.1774,-1.1959,-1.2156,-1.2318,-1.2431,-2.6486,-2.6245,-2.5703,-2.447,-2.3926,-2.3329,-2.2325,-2.1928,-2.1452,-2.0711,-2.0881,-2.0706,-1.9807,-2.0218,-2.027,-1.9551,-1.9656,-1.9656,-1.9499,-1.8897,-1.8351,-1.7989,-1.7147,-1.6305,-1.5506,-1.4826,-1.4407,-1.4196,-1.4196,-1.4196,-1.4196,-1.4196,-1.4196,-1.4196,-1.4196,-1.4196,-1.4196,-1.4196,-1.4196,-1.4196,-1.4196,-1.4196,-1.4175,-1.3981,-1.3906,-1.3884,-1.3706,-1.3647,-1.3636,-1.3577,-1.3556,-1.355,-1.3497,-1.3346,-1.319,-1.319,-1.2467,-1.1433,-1.06,-1.0346,-1.0346,-1.0346,-0.9702,-0.955,-1.1224,-1.0935,-1.0747,-1.2194,-1.2452,-1.2301,-1.1935,-1.1822,-1.1704,-1.1429,0.0,-1.137,-1.1316,-1.1305,-1.1305,-1.1305,-1.1305,-1.1305,-1.1305,-1.1305,-1.1305,-1.1305,-1.1305,-1.1305,-1.1305,-1.1305,-1.1305,-1.1305,-1.1305,-1.1305,-1.1305,-1.1305,-1.1305,-1.1305,-1.1305,-1.1305,-1.1305,-1.1305,-1.1305,-1.1311,-1.1364,-1.1391,-1.1391,-1.1445,-1.1618,-1.1785,-1.1844,-1.1973,-1.2208,-1.2404,-1.2495,-1.2522,-2.7204,-2.663,-2.6042,-2.5945,-2.4716,-2.3678,-2.3578,-2.2476,-2.1798,-2.21,-2.1768,-2.1309,-2.0986,-2.1502,-2.1394,-2.0219,-2.0646,-2.0754,-2.0164,-2.0055,-1.9456,-1.8062,-1.7147,-1.6305,-1.5506,-1.5452,-1.5035,-1.4196,-1.4196,-1.4196,-1.4196,-1.4196,-1.4196,-1.4196,-1.4196,-1.4196,-1.4196,-1.4196,-1.4196,-1.4196,-1.4196,-1.4196,-1.4191,-1.4175,-1.4164,-1.4164,-1.4148,-1.4143,-1.4105,-1.3873,-1.3793,-1.3755,-1.3545,-1.347,-1.3448,-1.3448,-1.322,-1.2879,-1.2623,-1.2565,-1.2565,-1.2565,-1.2516,-1.2511,-1.2662,-1.2613,-1.2608,-1.2737,-1.2565,-1.2404,-1.2366,-1.2178,-1.1991,-1.1709,0.0,0.0,-1.1337,-1.1305,-1.1305,-1.1305,-1.1305,-1.1305,-1.1305,-1.1305,-1.1305,-1.1305,-1.1305,-1.1305,-1.1305,-1.1305,-1.1305,-1.1305,-1.1305,-1.1305,-1.1305,-1.1305,-1.1305,-1.1305,-1.1305,-1.1305,-1.1305,-1.1305,-1.1305,-1.1321,-1.158,-1.1671,-1.1693,-1.1954,-1.2051,-1.2089,-1.2274,-1.2371,-1.2414,-1.2651,-1.2786,-1.2786,-2.7309,-2.7061,-2.6678,-2.6197,-2.583,-2.5251,-2.424,-2.3888,-2.3488,-2.2759,-2.2767,-2.2552,-2.1726,-2.2226,-2.2226,-2.1364,-2.1202,-2.0985,-2.0775,-2.0775,-2.033,-1.9388,-1.8557,-1.7736,-1.6807,-1.6258,-1.5548,-1.4622,-1.4622,-1.4622,-1.4622,-1.4476,-1.4406,-1.4401,-1.4256,-1.4196,-1.4196,-1.4196,-1.4196,-1.4196,-1.4196,-1.4196,-1.4196,-1.4196,-1.4196,-1.4196,-1.4196,-1.4196,-1.418,-1.4083,-1.4051,-1.4035,-1.3949,-1.3814,-1.3663,-1.3523,-1.341,-1.3319,-1.3227,-1.2535,-1.1965,-1.2613,-1.1824,-1.1184,-1.2516,-1.2268,-1.2014,-1.2662,-1.2743,-1.2587,-1.2441,-1.2339,-1.2194,-1.1997,0.0,-1.1833,-1.1602,-1.1564,-1.1472,-1.1327,-1.1305,-1.1305,-1.1305,-1.1305,-1.1305,-1.1305,-1.1305,-1.1305,-1.1305,-1.1305,-1.1305,-1.1305,-1.1305,-1.1305,-1.1305,-1.1305,-1.1305,-1.1305,-1.1305,-1.1386,-1.1564,-1.1564,-1.1645,-1.179,-1.1921,-1.1959,-1.197,-1.2056,-1.2186,-1.2285,-1.2377,-1.2501,-1.2641,-1.278,-1.2813,-1.2813,-2.7438,-2.7469,-2.7366,-2.6966,-2.6854,-2.6493,-2.5464,-2.4884,-2.4377,-2.3766,-2.3463,-2.3129,-2.2657,-2.2944,-2.2944,-2.2346,-2.1963,-2.1634,-2.1414,-2.1249,-2.0938,-2.051,-1.9785,-1.8954,-1.8063,-1.7167,-1.6278,-1.5327,-1.505,-1.4885,-1.488,-1.4719,-1.4643,-1.4638,-1.4482,-1.4412,-1.4406,-1.4331,-1.4304,-1.4293,-1.4223,-1.4196,-1.4196,-1.4196,-1.4196,-1.4196,-1.4196,-1.4196,-1.4196,-1.4196,-1.4196,-1.4196,-1.4196,-1.4078,-1.3906,-1.375,-1.3647,-1.3588,-1.3588,-1.2775,-1.2058,-1.2736,-1.1727,-1.0988,-1.2462,-1.2214,-1.1917,-1.2662,-1.2813,-1.2764,-1.2554,-1.2527,-1.2447,-1.2251,-1.2208,-1.2127,-1.1844,-1.1811,-1.1747,-1.1591,-1.1569,-1.1542,-1.1423,-1.1418,-1.1386,-1.1316,-1.1305,-1.1424,-1.1755,-1.1543,-1.1576,-1.191,-1.1657,-1.1569,-1.1569,-1.145,-1.1418,-1.1418,-1.1488,-1.1655,-1.1811,-1.1811,-1.1943,-1.21,-1.2175,-1.2208,-1.2213,-1.2289,-1.2418,-1.2527,-1.2527,-1.2619,-1.2813,-1.2813,-1.2813,-1.2813,-2.7841,-2.7935,-2.8069,-2.8535,-2.7743,-2.7084,-2.7348,-2.5265,-2.4051,-2.5352,-2.3716,-2.2783,-2.376,-2.3913,-2.3632,-2.307,-2.3014,-2.2732,-2.2108,-2.1546,-2.1144,-2.1131,-2.051,-1.9847,-1.9009,-1.8069,-1.7179,-1.6334,-1.5389,-1.4947,-1.4947,-1.4885,-1.4885,-1.4885,-1.4885,-1.4885,-1.4869,-1.4638,-1.448,-1.4464,-1.4288,-1.4196,-1.4196,-1.4196,-1.4196,-1.4196,-1.4196,-1.4196,-1.4196,-1.4196,-1.4196,-1.4196,-1.4196,-1.4196,-1.4196,-1.4196,-1.4019,-1.382,-1.382,-1.3653,-1.3421,-1.3168,-1.2937,-1.2818,-1.2813,-1.2813,-1.2813,-1.2813,-1.2813,-1.2813,-1.2813,-1.2813,-1.2689,-1.2457,-1.242,-1.2334,-1.2132,-1.2094,-1.2094,-1.2094,-1.2094,-1.2002,-1.1725,-1.1704,-1.1607,-1.1332,-1.1316,-1.1755,-1.2777,-1.2093,-1.2159,-1.316,-1.2495,-1.214,-1.2094,-1.1817,-1.1704,-1.1704,-1.1981,-1.2094,-1.2094,-1.2094,-1.2094,-1.2116,-1.2312,-1.242,-1.2436,-1.2667,-1.2813,-1.2813,-1.2813,-1.2813,-1.2813,-1.2813,-1.2813,-1.2813,-2.8317,-2.8411,-2.8452,-2.8587,-2.8432,-2.8133,-2.7607,-2.717,-2.643,-2.5193,-2.4645,-2.408,-2.3336,-2.3296,-2.3183,-2.3014,-2.2619,-2.2279,-2.2108,-2.1546,-2.1408,-2.1762,-2.1193,-2.0458,-1.9599,-1.9307,-1.8384,-1.6762,-1.653,-1.6361,-1.6361,-1.5503,-1.5478,-1.6035,-1.524,-1.4885,-1.4875,-1.481,-1.4778,-1.4756,-1.453,-1.4433,-1.4417,-1.4256,-1.4196,-1.4196,-1.4196,-1.4196,-1.4196,-1.4196,-1.4196,-1.4196,-1.4196,-1.4196,-1.4196,-1.4196,-1.4143,-1.4083,-1.4083,-1.3906,-1.3658,-1.3427,-1.3313,-1.3217,-1.3044,-1.3001,-1.2958,-1.2845,-1.2813,-1.2813,-1.2813,-1.2813,-1.2786,-1.2667,-1.2657,-1.2576,-1.2339,-1.2307,-1.2242,-1.2116,-1.2094,-1.2067,-1.1997,-1.1986,-1.1959,-1.1889,-1.1838,-1.2445,-1.3759,-1.3144,-1.2915,-1.3211,-1.3839,-1.38,-1.2905,-1.2779,-1.2744,-1.2744,-1.2819,-1.2957,-1.3136,-1.2582,-1.2393,-1.2602,-1.263,-1.2657,-1.271,-1.278,-1.2813,-1.2813,-1.2813,-1.2813,-1.2813,-1.2813,-1.2813,-1.2813,-2.8794,-2.8887,-2.8949,-2.9125,-2.9188,-2.901,-2.8468,-2.8158,-2.7511,-2.6318,-2.568,-2.5177,-2.4761,-2.4214,-2.3999,-2.4223,-2.3344,-2.2732,-2.2449,-2.2108,-2.2051,-2.2449,-2.2116,-2.1425,-2.0392,-1.9989,-1.9229,-1.811,-1.7753,-1.7578,-1.7513,-1.6838,-1.6768,-1.7277,-1.6201,-1.573,-1.5725,-1.5235,-1.5025,-1.5009,-1.4767,-1.467,-1.4649,-1.4417,-1.4326,-1.4315,-1.4223,-1.4196,-1.4196,-1.4196,-1.4196,-1.4196,-1.4196,-1.4196,-1.4196,-1.4196,-1.4196,-1.4196,-1.4196,-1.4083,-1.3938,-1.3798,-1.362,-1.3437,-1.3287,-1.3249,-1.3184,-1.2947,-1.2899,-1.2872,-1.2829,-1.2813,-1.2813,-1.2813,-1.2813,-1.2764,-1.2571,-1.2549,-1.2495,-1.2397,-1.2381,-1.2343,-1.2251,-1.2513,-1.2791,-1.2956,-1.299,-1.3532,-1.4819,-1.4371,-1.4232,-1.4668,-1.5127,-1.5081,-1.4523,-1.4444,-1.421,-1.3784,-1.3893,-1.3894,-1.3679,-1.321,-1.2912,-1.2813,-1.2813,-1.2813,-1.2813,-1.2813,-1.2813,-1.2813,-1.2813,-1.2813,-1.2861,-1.3147,-1.3238,-1.3286,-2.927,-2.9363,-2.9497,-2.9922,-2.9774,-2.9606,-2.9606,-2.8412,-2.7716,-2.8174,-2.6762,-2.6145,-2.7105,-2.6063,-2.5406,-2.5917,-2.462,-2.3576,-2.3014,-2.3014,-2.3014,-2.3014,-2.2958,-2.2392,-2.1318,-2.045,-1.9931,-1.9815,-1.8919,-1.8506,-1.8506,-1.8448,-1.8448,-1.8506,-1.7519,-1.705,-1.6921,-1.5832,-1.5337,-1.5204,-1.5015,-1.4918,-1.4891,-1.4659,-1.4496,-1.4509,-1.4299,-1.4213,-1.4196,-1.4196,-1.4196,-1.4196,-1.4196,-1.4196,-1.4196,-1.4196,-1.4196,-1.4196,-1.4196,-1.4196,-1.4196,-1.4196,-1.3868,-1.3534,-1.3518,-1.3513,-1.3437,-1.319,-1.3141,-1.3066,-1.2834,-1.2845,-1.2835,-1.2813,-1.2813,-1.2813,-1.2813,-1.2813,-1.2813,-1.2813,-1.2813,-1.2678,-1.2468,-1.3144,-1.388,-1.443,-1.4411,-1.4845,-1.5865,-1.5642,-1.5896,-1.6828,-1.6318,-1.617,-1.6445,-1.6419,-1.5866,-1.4908,-1.5119,-1.4765,-1.4004,-1.395,-1.348,-1.2813,-1.2813,-1.2813,-1.2813,-1.2813,-1.2813,-1.2813,-1.2856,-1.2905,-1.3001,-1.3715,-1.3998,-1.4094,-2.9756,-2.9849,-2.988,-2.9973,-2.9774,-2.9606,-2.9606,-2.9122,-2.8475,-2.7663,-2.7276,-2.6762,-2.6082,-2.57,-2.527,-2.4727,-2.3768,-2.3127,-2.3014,-2.3014,-2.3014,-2.3014,-2.2562,-2.2173,-2.1888,-2.171,-2.1024,-1.9815,-1.9577,-1.9519,-1.9455,-1.8745,-1.8803,-1.9461,-1.8512,-1.7689,-1.6991,-1.6704,-1.6217,-1.5505,-1.5268,-1.5113,-1.5086,-1.4902,-1.4697,-1.4475,-1.4421,-1.4347,-1.4196,-1.4196,-1.4196,-1.4196,-1.4196,-1.4196,-1.4196,-1.4196,-1.4196,-1.4196,-1.4196,-1.4196,-1.4196,-1.4196,-1.4116,-1.3986,-1.3793,-1.3744,-1.368,-1.3448,-1.34,-1.3324,-1.3077,-1.3028,-1.2969,-1.284,-1.2813,-1.2813,-1.2813,-1.2813,-1.2813,-1.2813,-1.2813,-1.2791,-1.2743,-1.34,-1.4368,-1.5665,-1.5243,-1.5551,-1.689,-1.6376,-1.6122,-1.6325,-1.7178,-1.7178,-1.6278,-1.7232,-1.7242,-1.6416,-1.6109,-1.5575,-1.4813,-1.419,-1.348,-1.2813,-1.2953,-1.2953,-1.2813,-1.2953,-1.2953,-1.2861,-1.3431,-1.3667,-1.3763,-1.4526,-1.486,-1.486,-2.9942,-2.9994,-2.9994,-2.9994,-2.9879,-2.9774,-2.9606,-2.9554,-2.929,-2.8528,-2.8581,-2.8412,-2.7785,-2.7346,-2.6535,-2.5287,-2.4761,-2.4167,-2.3464,-2.3408,-2.3408,-2.3408,-2.2845,-2.2675,-2.2958,-2.2675,-2.1824,-2.0457,-2.0457,-2.0457,-2.045,-1.9982,-1.9982,-2.045,-1.9513,-1.881,-1.8286,-1.7408,-1.6703,-1.6231,-1.5638,-1.5418,-1.5392,-1.5149,-1.4982,-1.4848,-1.5049,-1.5241,-1.541,-1.541,-1.541,-1.541,-1.541,-1.5148,-1.4826,-1.4826,-1.4509,-1.4196,-1.4196,-1.4196,-1.4196,-1.4196,-1.4196,-1.4159,-1.4029,-1.3997,-1.3927,-1.369,-1.3642,-1.3566,-1.3324,-1.3281,-1.3243,-1.3175,-1.3051,-1.2926,-1.2926,-1.2878,-1.2813,-1.2813,-1.2813,-1.2953,-1.3286,-1.4004,-1.4956,-1.6096,-1.619,-1.648,-1.7279,-1.7185,-1.7091,-1.7091,-1.7753,-1.7893,-1.7458,-1.7613,-1.766,-1.7458,-1.6615,-1.5812,-1.5051,-1.4286,-1.348,-1.2813,-1.2905,-1.3098,-1.3335,-1.3431,-1.3667,-1.3956,-1.4334,-1.4478,-1.4573,-1.5337,-1.5859,-1.6143,-2.9994,-2.9994,-2.9994,-2.9994,-2.9942,-2.9879,-2.9722,-2.9722,-2.9732,-2.9606,-2.9722,-2.9784,-2.9837,-2.891,-2.7716,-2.6364,-2.5808,-2.5165,-2.4136,-2.4024,-2.4136,-2.4239,-2.3624,-2.3568,-2.4128,-2.3408,-2.2505,-2.1489,-2.1489,-2.1432,-2.1375,-2.1375,-2.1325,-2.1153,-2.0392,-1.9931,-1.9693,-1.8169,-1.7402,-1.7167,-1.6242,-1.5946,-1.6042,-1.5668,-1.5569,-1.5706,-1.606,-1.6423,-1.6793,-1.6696,-1.6677,-1.6677,-1.6677,-1.6252,-1.5719,-1.5719,-1.5196,-1.4617,-1.4455,-1.4401,-1.4407,-1.425,-1.4196,-1.4196,-1.4196,-1.4196,-1.4132,-1.3927,-1.3884,-1.3814,-1.3583,-1.354,-1.3523,-1.3486,-1.3303,-1.3152,-1.3109,-1.2942,-1.2856,-1.2818,-1.2813,-1.3147,-1.3998,-1.4717,-1.548,-1.6332,-1.6951,-1.7279,-1.7279,-1.7707,-1.7939,-1.7939,-1.7939,-1.8125,-1.8542,-1.7699,-1.752,-1.7947,-1.6756,-1.5859,-1.5289,-1.4621,-1.3908,-1.3195,-1.3244,-1.3576,-1.4094,-1.4142,-1.4526,-1.5099,-1.5242,-1.5289,-1.5384,-1.6143,-1.6756,-1.7279,-2.9994,-2.9994,-2.9994,-2.9994,-2.9827,-2.9722,-2.9942,-2.9363,-2.9046,-2.9554,-2.9205,-2.894,-2.9185,-2.7555,-2.6581,-2.6871,-2.4778,-2.3792,-2.4599,-2.4684,-2.5,-2.5762,-2.5,-2.4714,-2.5029,-2.3664,-2.2901,-2.2732,-2.2732,-2.2505,-2.2002,-2.2002,-2.1717,-2.1211,-2.1096,-2.0572,-1.9758,-1.9519,-1.8926,-1.8156,-1.7167,-1.7285,-1.7923,-1.7073,-1.7093,-1.7628,-1.7667,-1.7475,-1.7115,-1.6813,-1.6677,-1.6677,-1.6677,-1.6624,-1.6518,-1.6518,-1.6465,-1.6199,-1.5506,-1.5298,-1.5143,-1.4407,-1.4196,-1.4196,-1.4196,-1.4196,-1.4186,-1.4153,-1.4143,-1.4067,-1.382,-1.3776,-1.3706,-1.3513,-1.3448,-1.3351,-1.3136,-1.3077,-1.2985,-1.2835,-1.2813,-1.3383,-1.4813,-1.5051,-1.5669,-1.7044,-1.7232,-1.7279,-1.7279,-1.7372,-1.7426,-1.7426,-1.7426,-1.7426,-1.7512,-1.7372,-1.7333,-1.7419,-1.6567,-1.6143,-1.6048,-1.5954,-1.548,-1.4813,-1.4962,-1.5003,-1.4956,-1.5146,-1.5146,-1.5146,-1.5812,-1.6048,-1.6143,-1.6904,-1.7232,-1.7279,-2.9994,-2.9994,-2.9994,-2.9994,-2.9889,-2.9827,-2.9774,-2.9459,-2.9248,-2.929,-2.9079,-2.8983,-2.9079,-2.8315,-2.778,-2.7745,-2.6645,-2.5926,-2.5762,-2.5744,-2.5899,-2.6336,-2.5186,-2.491,-2.5689,-2.4278,-2.3689,-2.4033,-2.3352,-2.2845,-2.2619,-2.2619,-2.2449,-2.2222,-2.2222,-2.1995,-2.1524,-2.1045,-2.0573,-2.0099,-1.8777,-1.8551,-1.8842,-1.8098,-1.7965,-1.8244,-1.861,-1.8791,-1.8823,-1.8519,-1.8416,-1.8388,-1.8215,-1.7838,-1.7411,-1.7411,-1.7094,-1.6624,-1.6252,-1.5826,-1.5405,-1.5035,-1.4563,-1.4196,-1.4196,-1.4196,-1.4196,-1.4196,-1.4196,-1.4159,-1.4051,-1.4029,-1.3997,-1.3895,-1.376,-1.3631,-1.3518,-1.3394,-1.3423,-1.3615,-1.3516,-1.3859,-1.5003,-1.548,-1.6001,-1.6615,-1.7091,-1.7279,-1.7279,-1.7279,-1.7279,-1.7279,-1.7613,-1.7753,-1.7753,-1.8032,-1.8032,-1.7753,-1.7699,-1.7131,-1.619,-1.5764,-1.5432,-1.5099,-1.5194,-1.5432,-1.5717,-1.5812,-1.6048,-1.6379,-1.6709,-1.6998,-1.7279,-1.7613,-1.7753,-1.7753]},{"header":{"parameterUnit":"m.s-1","parameterCategory":1,"la1":30.6,"la2":28.766,"lo1":-90.7593,"lo2":-88.6598,"dy":0.0162,"dx":0.0183,"nx":116,"ny":114,"refTime":"2024-04-15T12:00:00:Z","depth":0,"parameterNumber":3,"parameterNumberName":"V-component_of_WINDS"},"data":[0.0,0.0,0.0,0.0,0.0,0.0,0.0,0.0,0.0,0.0,0.0,0.0,0.0,0.0,0.0,0.0,0.0,0.0,0.0,0.0,0.0,0.0,0.0,0.0,0.0,0.0,0.0,0.0,0.0,0.0,0.0,0.0,0.0,0.0,0.0,0.0,0.0,0.0,0.0,0.0,0.0,0.0,0.0,0.0,0.0,0.0,0.0,0.0,0.0,0.0,0.0,0.0,0.0,0.0,0.0,0.0,0.0,0.0,0.0,0.0,0.0,0.0,0.0,0.0,0.0,0.0,0.0,0.0,0.0,0.0,0.0,0.0,0.0,0.0,0.0,0.0,0.0,0.0,0.0,0.0,0.0,0.0,0.0,0.0,0.0,0.0,0.0,0.0,0.0,0.0,0.0,0.0,0.0,0.0,0.0,0.0,0.0,0.0,0.0,0.0,0.0,0.0,0.0,0.0,0.0,0.0,0.0,0.0,0.0,0.0,0.0,0.0,0.0,0.0,0.0,0.0,0.0,0.0,0.0,0.0,0.0,0.0,0.0,0.0,0.0,0.0,0.0,0.0,0.0,0.0,0.0,0.0,0.0,0.0,0.0,0.0,0.0,0.0,0.0,0.0,0.0,0.0,0.0,0.0,0.0,0.0,0.0,0.0,0.0,0.0,0.0,0.0,0.0,0.0,0.0,0.0,0.0,0.0,0.0,0.0,0.0,0.0,0.0,0.0,0.0,0.0,0.0,0.0,0.0,0.0,0.0,0.0,0.0,0.0,0.0,0.0,0.0,0.0,0.0,0.0,0.0,0.0,0.0,0.0,0.0,0.0,0.0,0.0,0.0,0.0,0.0,0.0,0.0,0.0,0.0,0.0,0.0,0.0,0.0,0.0,0.0,0.0,0.0,0.0,0.0,0.0,0.0,0.0,0.0,0.0,0.0,0.0,0.0,0.0,0.0,0.0,0.0,0.0,0.0,0.0,0.0,0.0,0.0,0.0,0.0,0.0,0.0,0.0,0.0,0.0,0.0,0.0,0.0,0.0,0.0,0.0,0.0,0.0,0.0,0.0,0.0,0.0,0.0,0.0,0.0,0.0,0.0,0.0,0.0,0.0,0.0,0.0,0.0,0.0,0.0,0.0,0.0,0.0,0.0,0.0,0.0,0.0,0.0,0.0,0.0,0.0,0.0,0.0,0.0,0.0,0.0,0.0,0.0,0.0,0.0,0.0,0.0,0.0,0.0,0.0,0.0,0.0,0.0,0.0,0.0,0.0,0.0,0.0,0.0,0.0,0.0,0.0,0.0,0.0,0.0,0.0,0.0,0.0,0.0,0.0,0.0,0.0,0.0,0.0,0.0,0.0,0.0,0.0,0.0,0.0,0.0,0.0,0.0,0.0,0.0,0.0,0.0,0.0,0.0,0.0,0.0,0.0,0.0,0.0,0.0,0.0,0.0,0.0,0.0,0.0,0.0,0.0,0.0,0.0,0.0,0.0,0.0,0.0,0.0,0.0,0.0,0.0,0.0,0.0,0.0,0.0,0.0,0.0,0.0,0.0,0.0,0.0,0.0,0.0,0.0,0.0,0.0,0.0,0.0,0.0,0.0,0.0,0.0,0.0,0.0,0.0,0.0,0.0,0.0,0.0,0.0,0.0,0.0,0.0,0.0,0.0,0.0,0.0,0.0,0.0,0.0,0.0,0.0,0.0,0.0,0.0,0.0,0.0,0.0,0.0,0.0,0.0,0.0,0.0,0.0,0.0,0.0,0.0,0.0,0.0,0.0,0.0,0.0,0.0,0.0,0.0,0.0,0.0,0.0,0.0,0.0,0.0,0.0,0.0,0.0,0.0,0.0,0.0,0.0,0.0,0.0,0.0,0.0,0.0,0.0,0.0,0.0,0.0,0.0,0.0,0.0,0.0,0.0,0.0,0.0,0.0,0.0,0.0,0.0,0.0,0.0,0.0,0.0,0.0,0.0,0.0,0.0,0.0,0.0,0.0,0.0,0.0,0.0,0.0,0.0,0.0,0.0,0.0,0.0,0.0,0.0,0.0,0.0,0.0,0.0,0.0,0.0,0.0,0.0,0.0,0.0,0.0,0.0,0.0,0.0,0.0,0.0,0.0,0.0,0.0,0.0,0.0,0.0,0.0,0.0,0.0,0.0,0.0,0.0,0.0,0.0,0.0,0.0,0.0,0.0,0.0,0.0,0.0,0.0,0.0,0.0,0.0,0.0,0.0,0.0,0.0,0.0,0.0,0.0,0.0,0.0,0.0,0.0,0.0,0.0,0.0,0.0,0.0,0.0,0.0,0.0,0.0,0.0,0.0,0.0,0.0,0.0,0.0,0.0,0.0,0.0,0.0,0.0,0.0,0.0,0.0,0.0,0.0,0.0,0.0,0.0,0.0,0.0,0.0,0.0,0.0,0.0,0.0,0.0,0.0,0.0,0.0,0.0,0.0,0.0,0.0,0.0,0.0,0.0,0.0,0.0,0.0,0.0,0.0,0.0,0.0,0.0,0.0,0.0,0.0,0.0,0.0,0.0,0.0,0.0,0.0,0.0,0.0,0.0,0.0,0.0,0.0,0.0,0.0,0.0,0.0,0.0,0.0,0.0,0.0,0.0,0.0,0.0,0.0,0.0,0.0,0.0,0.0,0.0,0.0,0.0,0.0,0.0,0.0,0.0,0.0,0.0,0.0,0.0,0.0,0.0,0.0,0.0,0.0,0.0,0.0,0.0,0.0,0.0,0.0,0.0,0.0,0.0,0.0,0.0,0.0,0.0,0.0,0.0,0.0,0.0,0.0,0.0,0.0,0.0,0.0,0.0,0.0,0.0,0.0,0.0,0.0,0.0,0.0,0.0,0.0,0.0,0.0,0.0,0.0,0.0,0.0,0.0,0.0,0.0,0.0,0.0,0.0,0.0,0.0,0.0,0.0,0.0,0.0,0.0,0.0,0.0,0.0,0.0,0.0,0.0,0.0,0.0,0.0,0.0,0.0,0.0,0.0,0.0,0.0,0.0,0.0,0.0,0.0,0.0,0.0,0.0,0.0,0.0,0.0,0.0,0.0,0.0,0.0,0.0,0.0,0.0,0.0,0.0,0.0,0.0,0.0,0.0,0.0,0.0,0.0,0.0,0.0,0.0,0.0,0.0,0.0,0.0,0.0,0.0,0.0,0.0,0.0,0.0,0.0,0.0,0.0,0.0,0.0,0.0,0.0,0.0,0.0,0.0,0.0,0.0,0.0,0.0,0.0,0.0,0.0,0.0,0.0,0.0,0.0,0.0,0.0,0.0,0.0,0.0,0.0,0.0,0.0,0.0,0.0,0.0,0.0,0.0,0.0,0.0,0.0,0.0,0.0,0.0,0.0,0.0,0.0,0.0,0.0,0.0,0.0,0.0,0.0,0.0,0.0,0.0,0.0,0.0,0.0,0.0,0.0,0.0,0.0,0.0,0.0,0.0,0.0,0.0,0.0,0.0,0.0,0.0,0.0,0.0,0.0,0.0,0.0,0.0,0.0,0.0,0.0,0.0,0.0,0.0,0.0,0.0,0.0,0.0,0.0,0.0,0.0,0.0,0.0,0.0,0.0,0.0,0.0,0.0,0.0,0.0,0.0,0.0,0.0,0.0,0.0,0.0,0.0,0.0,0.0,0.0,0.0,0.0,0.0,0.0,0.0,0.0,0.0,0.0,0.0,0.0,0.0,0.0,0.0,0.0,0.0,0.0,0.0,0.0,0.0,0.0,0.0,0.0,0.0,0.0,0.0,0.0,0.0,0.0,0.0,0.0,0.0,0.0,0.0,0.0,0.0,0.0,0.0,0.0,0.0,0.0,0.0,0.0,0.0,0.0,0.0,0.0,0.0,0.0,0.0,0.0,0.0,0.0,0.0,0.0,0.0,0.0,0.0,0.0,0.0,0.0,0.0,0.0,0.0,0.0,0.0,0.0,0.0,0.0,0.0,0.0,0.0,0.0,0.0,0.0,0.0,0.0,0.0,0.0,0.0,0.0,0.0,0.0,0.0,0.0,0.0,0.0,0.0,0.0,0.0,0.0,0.0,0.0,0.0,0.0,0.0,0.0,0.0,0.0,0.0,0.0,0.0,0.0,0.0,0.0,0.0,0.0,0.0,0.0,0.0,0.0,0.0,0.0,0.0,0.0,0.0,0.0,0.0,0.0,0.0,0.0,0.0,0.0,0.0,0.0,0.0,0.0,0.0,0.0,0.0,0.0,0.0,0.0,0.0,0.0,0.0,0.0,0.0,0.0,0.0,0.0,0.0,0.0,0.0,0.0,0.0,0.0,0.0,0.0,0.0,0.0,0.0,0.0,0.0,0.0,0.0,0.0,0.0,0.0,0.0,0.0,0.0,0.0,0.0,0.0,0.0,0.0,0.0,0.0,0.0,0.0,0.0,0.0,0.0,0.0,0.0,0.0,0.0,0.0,0.0,0.0,0.0,0.0,0.0,0.0,0.0,0.0,0.0,0.0,0.0,0.0,0.0,0.0,0.0,0.0,0.0,0.0,0.0,0.0,0.0,0.0,0.0,0.0,0.0,0.0,0.0,0.0,0.0,0.0,0.0,0.0,0.0,0.0,0.0,0.0,0.0,0.0,0.0,0.0,0.0,0.0,0.0,0.0,0.0,0.0,0.0,0.0,0.0,0.0,0.0,0.0,0.0,0.0,0.0,0.0,0.0,0.0,0.0,0.0,0.0,0.0,0.0,0.0,0.0,0.0,0.0,0.0,0.0,0.0,0.0,0.0,0.0,0.0,0.0,0.0,0.0,0.0,0.0,0.0,0.0,0.0,0.0,0.0,0.0,0.0,0.0,0.0,0.0,0.0,0.0,0.0,0.0,0.0,0.0,0.0,0.0,0.0,0.0,0.0,0.0,0.0,0.0,0.0,0.0,0.0,0.0,0.0,0.0,0.0,0.0,0.0,0.0,0.0,0.0,0.0,0.0,0.0,0.0,0.0,0.0,0.0,0.0,0.0,0.0,0.0,0.0,0.0,0.0,0.0,0.0,0.0,0.0,0.0,0.0,0.0,0.0,0.0,0.0,0.0,0.0,0.0,0.0,0.0,0.0,0.0,0.0,0.0,0.0,0.0,0.0,0.0,0.0,0.0,0.0,0.0,0.0,0.0,0.0,0.0,0.0,0.0,0.0,0.0,0.0,0.0,0.0,0.0,0.0,0.0,0.0,0.0,0.0,0.0,0.0,0.0,0.0,0.0,0.0,0.0,0.0,0.0,0.0,0.0,0.0,0.0,0.0,0.0,0.0,0.0,0.0,0.0,0.0,0.0,0.0,0.0,0.0,0.0,0.0,0.0,0.0,0.0,0.0,0.0,0.0,0.0,0.0,0.0,0.0,0.0,0.0,0.0,0.0,0.0,0.0,0.0,0.0,0.0,0.0,0.0,0.0,0.0,0.0,0.0,0.0,0.0,0.0,0.0,0.0,0.0,0.0,0.0,0.0,0.0,0.0,0.0,0.0,0.0,0.0,0.0,0.0,0.0,0.0,0.0,0.0,0.0,0.0,0.0,0.0,0.0,0.0,0.0,0.0,0.0,0.0,0.0,0.0,0.0,0.0,0.0,0.0,0.0,0.0,0.0,0.0,0.0,0.0,0.0,0.0,0.0,0.0,0.0,0.0,0.0,0.0,0.0,0.0,0.0,0.0,0.0,0.0,0.0,0.0,0.0,0.0,0.0,0.0,0.0,0.0,0.0,0.0,0.0,0.0,0.0,0.0,0.0,0.0,0.0,0.0,0.0,0.0,0.0,0.0,0.0,0.0,0.0,0.0,0.0,0.0,0.0,0.0,0.0,0.0,0.0,0.0,0.0,0.0,0.0,0.0,0.0,0.0,0.0,0.0,0.0,0.0,0.0,0.0,0.0,0.0,0.0,0.0,0.0,0.0,0.0,0.0,0.0,0.0,0.0,0.0,0.0,0.0,0.0,0.0,0.0,0.0,0.0,0.0,0.0,0.0,0.0,0.0,0.0,0.0,0.0,0.0,0.0,0.0,0.0,0.0,0.0,0.0,0.0,0.0,0.0,0.0,0.0,0.0,0.0,0.0,0.0,0.0,0.0,0.0,0.0,0.0,0.0,0.0,2.6808,0.0,0.0,0.0,0.0,0.0,0.0,0.0,0.0,0.0,0.0,0.0,0.0,0.0,0.0,0.0,0.0,0.0,0.0,0.0,0.0,0.0,0.0,0.0,0.0,3.5308,3.5293,3.5293,3.5174,3.4925,3.4529,0.0,0.0,0.0,0.0,0.0,3.561,3.5813,3.634,3.7213,3.7323,3.7637,3.8138,3.8289,3.8272,3.8105,0.0,0.0,0.0,0.0,0.0,0.0,0.0,0.0,0.0,0.0,0.0,0.0,0.0,0.0,0.0,0.0,0.0,0.0,0.0,0.0,0.0,0.0,0.0,0.0,0.0,0.0,0.0,0.0,0.0,0.0,0.0,0.0,0.0,0.0,0.0,0.0,0.0,0.0,0.0,0.0,0.0,0.0,0.0,0.0,0.0,0.0,0.0,0.0,0.0,0.0,0.0,0.0,0.0,0.0,0.0,0.0,0.0,0.0,0.0,0.0,0.0,0.0,0.0,0.0,0.0,0.0,0.0,0.0,0.0,0.0,0.0,2.7671,0.0,0.0,0.0,0.0,0.0,0.0,0.0,0.0,0.0,0.0,0.0,0.0,0.0,0.0,0.0,0.0,0.0,0.0,0.0,0.0,0.0,3.5357,3.53,3.5293,3.5278,3.5277,3.5062,3.4841,3.4725,3.4526,3.4648,3.5202,3.5224,3.5628,3.6486,3.6739,3.6961,3.717,3.776,3.8121,3.8239,3.8274,3.8189,3.8001,3.8122,0.0,0.0,0.0,0.0,0.0,0.0,0.0,0.0,0.0,0.0,0.0,0.0,0.0,0.0,0.0,0.0,0.0,0.0,0.0,0.0,0.0,0.0,0.0,0.0,0.0,0.0,0.0,0.0,0.0,0.0,0.0,0.0,0.0,0.0,0.0,0.0,0.0,0.0,0.0,0.0,0.0,0.0,0.0,0.0,0.0,0.0,0.0,0.0,0.0,0.0,0.0,0.0,0.0,0.0,0.0,0.0,0.0,0.0,0.0,0.0,0.0,0.0,0.0,3.2512,3.2567,3.2979,3.26,3.2617,3.2799,3.1092,3.0387,3.045,3.0176,0.0,0.0,0.0,0.0,0.0,0.0,0.0,0.0,0.0,0.0,0.0,0.0,0.0,0.0,0.0,0.0,0.0,0.0,0.0,3.53,3.53,3.5242,3.5198,3.5218,3.5009,3.5085,3.5503,3.5354,3.5499,3.6097,3.6138,3.6505,3.7327,3.6949,3.723,3.8298,3.8265,3.8189,3.8035,3.8174,3.8139,3.8001,3.8086,0.0,0.0,0.0,0.0,0.0,0.0,0.0,0.0,0.0,0.0,0.0,0.0,0.0,0.0,0.0,0.0,0.0,0.0,0.0,0.0,0.0,0.0,0.0,0.0,0.0,0.0,0.0,0.0,0.0,0.0,0.0,0.0,0.0,0.0,0.0,0.0,0.0,0.0,0.0,0.0,0.0,0.0,0.0,3.4641,3.4606,0.0,0.0,0.0,0.0,0.0,0.0,0.0,0.0,0.0,0.0,0.0,0.0,0.0,3.34,3.3129,3.3716,3.415,3.4423,3.5249,3.5685,3.5784,3.5703,3.5552,3.5311,3.506,0.0,3.2685,3.2767,0.0,0.0,0.0,0.0,0.0,0.0,0.0,0.0,0.0,0.0,0.0,0.0,0.0,0.0,0.0,0.0,0.0,0.0,0.0,0.0,0.0,3.5089,3.4991,3.5037,3.5087,3.5236,3.552,3.5799,3.6279,3.7,3.7036,3.7404,3.8195,3.7883,3.7919,3.8385,3.8322,3.8241,3.8105,3.8174,3.8157,3.8105,3.8052,3.836,3.8915,3.8872,0.0,0.0,0.0,0.0,0.0,0.0,0.0,0.0,0.0,0.0,0.0,0.0,0.0,0.0,0.0,0.0,0.0,0.0,0.0,0.0,0.0,0.0,0.0,0.0,0.0,0.0,0.0,0.0,0.0,0.0,0.0,0.0,0.0,0.0,0.0,0.0,0.0,0.0,0.0,3.5169,3.5048,3.503,3.5187,3.5341,0.0,0.0,0.0,0.0,0.0,0.0,0.0,0.0,0.0,3.4805,3.4785,3.4754,3.4759,3.5465,3.5763,3.5662,3.6356,3.6673,3.6673,3.6673,3.6547,3.6314,3.6314,3.5925,3.5241,3.4517,3.4651,3.5367,0.0,0.0,0.0,0.0,3.6784,3.6559,0.0,0.0,0.0,0.0,0.0,0.0,0.0,0.0,0.0,0.0,0.0,0.0,3.522,3.5019,3.4898,3.4851,3.5154,3.546,3.5758,3.6325,3.7047,3.794,3.7923,3.8155,3.8762,3.859,3.835,3.8104,3.8224,3.8241,3.8209,3.8209,3.8209,3.8192,3.8105,3.8394,3.8938,3.8857,3.9216,0.0,0.0,0.0,0.0,0.0,0.0,0.0,0.0,0.0,0.0,0.0,0.0,0.0,0.0,0.0,0.0,0.0,0.0,0.0,0.0,0.0,0.0,0.0,0.0,0.0,0.0,0.0,0.0,0.0,0.0,0.0,0.0,0.0,0.0,0.0,0.0,0.0,0.0,3.5896,3.581,3.574,3.5863,3.5984,0.0,0.0,0.0,0.0,0.0,0.0,3.5634,3.54,3.5514,3.6017,3.5883,3.5925,3.6186,3.6615,3.6753,3.6557,3.6871,3.7007,3.7007,3.7007,3.6908,3.6766,3.6766,3.6893,3.7023,3.5901,3.605,3.6955,3.6916,3.7252,3.779,3.8234,3.8201,3.7965,0.0,0.0,0.0,0.0,0.0,0.0,0.0,0.0,0.0,0.0,0.0,3.536,3.5206,3.5191,3.5038,3.4743,3.5192,3.5868,3.6768,3.7086,3.7794,3.898,3.8781,3.8652,3.8707,3.8496,3.8117,3.7542,3.7984,3.8209,3.8209,3.8209,3.8209,3.8209,3.8192,3.8415,3.8799,3.8868,3.9216,3.9717,0.0,0.0,0.0,0.0,0.0,0.0,0.0,0.0,0.0,0.0,0.0,0.0,0.0,0.0,0.0,0.0,0.0,0.0,0.0,0.0,0.0,0.0,0.0,0.0,0.0,0.0,0.0,0.0,0.0,0.0,0.0,0.0,0.0,0.0,0.0,0.0,0.0,0.0,0.0,3.7488,3.7488,0.0,0.0,0.0,0.0,3.6816,3.6417,3.6339,3.6777,3.6814,3.6927,3.7206,3.6847,3.6746,3.693,3.6597,3.6615,3.697,3.6987,3.7007,3.7007,3.7007,3.6989,3.6987,3.6987,3.7127,3.7357,3.7023,3.7083,3.7417,3.7858,3.7613,3.7143,3.8064,3.8115,3.7789,0.0,0.0,0.0,0.0,0.0,3.594,3.596,3.5869,3.5741,3.5611,3.5456,3.5302,3.5206,3.4983,3.4793,3.4763,3.5229,3.5826,3.6595,3.7308,3.8113,3.9064,3.8877,3.8686,3.8496,3.8403,3.8204,3.795,3.8123,3.8209,3.8209,3.8387,3.8465,3.8462,3.8643,3.89,3.9234,3.8957,3.9122,3.9568,3.9717,3.9815,0.0,0.0,0.0,0.0,0.0,0.0,0.0,0.0,0.0,0.0,0.0,0.0,0.0,0.0,0.0,0.0,0.0,0.0,0.0,0.0,0.0,0.0,0.0,0.0,0.0,0.0,0.0,0.0,0.0,0.0,0.0,0.0,0.0,0.0,0.0,0.0,0.0,3.8296,3.8153,0.0,3.8267,3.7879,3.7703,3.7894,3.7523,3.745,3.7772,3.7632,3.7595,3.7685,3.7558,3.7596,3.7843,3.7523,3.7632,3.816,3.7756,3.7667,3.7825,3.7649,3.7521,3.7392,3.7392,3.7632,3.8046,3.7943,3.8008,3.8216,3.8737,3.8659,3.8332,3.8799,3.8824,3.8649,0.0,0.0,0.0,0.0,0.0,3.5912,3.596,3.5843,3.5732,3.5601,3.5412,3.5268,3.5206,3.4936,3.4763,3.4763,3.5307,3.5924,3.6582,3.7471,3.8308,3.9064,3.8844,3.859,3.8368,3.8322,3.8257,3.8209,3.829,3.8338,3.8338,3.8615,3.873,3.873,3.8929,3.9117,3.9326,3.9127,3.9274,3.9647,3.9728,3.9815,3.99,0.0,0.0,0.0,0.0,0.0,0.0,0.0,0.0,0.0,0.0,0.0,0.0,0.0,0.0,0.0,0.0,0.0,0.0,0.0,0.0,0.0,0.0,0.0,0.0,0.0,0.0,0.0,0.0,0.0,0.0,0.0,0.0,0.0,0.0,0.0,3.8803,3.8799,3.8597,3.8476,3.8554,3.8281,3.8152,3.8285,3.8136,3.8068,3.8167,3.8068,3.7984,3.7899,3.7899,3.8036,3.831,3.8117,3.8298,3.8795,3.8392,3.8298,3.8465,3.8281,3.8135,3.7998,3.7998,3.8261,3.8663,3.8689,3.8802,3.8998,3.9313,3.9324,3.9192,3.9324,3.9313,3.9262,0.0,0.0,0.0,0.0,0.0,3.5909,3.5909,3.5785,3.5676,3.5601,3.5419,3.5265,3.5206,3.5138,3.5001,3.4743,3.5428,3.6163,3.6871,3.7645,3.8384,3.9073,3.8737,3.8446,3.8323,3.8322,3.829,3.8225,3.8478,3.8615,3.8615,3.8886,3.9008,3.9008,3.9022,3.9022,3.9049,3.9364,3.9658,3.99,3.99,3.99,3.99,0.0,0.0,0.0,0.0,0.0,0.0,0.0,0.0,0.0,0.0,0.0,0.0,0.0,0.0,0.0,0.0,0.0,0.0,0.0,0.0,0.0,0.0,0.0,0.0,0.0,0.0,0.0,0.0,0.0,0.0,0.0,0.0,0.0,3.9539,3.9331,3.9173,3.9036,3.8896,3.8741,3.8554,3.8407,3.8214,3.7951,3.8167,3.8216,3.7951,3.8167,3.8181,3.7951,3.7934,3.8069,3.8323,3.8323,3.8496,3.8839,3.881,3.881,3.8824,3.881,3.881,3.881,3.881,3.8957,3.9213,3.9281,3.9458,3.9693,3.9556,3.9514,3.9514,3.9514,3.9495,3.9532,0.0,0.0,0.0,3.6007,3.5936,3.5912,3.5979,3.5862,3.5721,3.5626,3.5411,3.5276,3.5206,3.5138,3.5084,3.5066,3.522,3.5855,3.7114,3.7403,3.8075,3.9345,3.9189,3.8957,3.8673,3.8799,3.8741,3.8494,3.8759,3.89,3.89,3.9203,3.9364,3.9364,3.9568,3.9651,3.967,3.9758,3.9826,3.99,3.99,3.99,3.99,0.0,0.0,0.0,0.0,0.0,0.0,0.0,0.0,0.0,0.0,0.0,0.0,0.0,0.0,0.0,0.0,0.0,0.0,0.0,0.0,0.0,0.0,0.0,0.0,0.0,0.0,0.0,0.0,0.0,0.0,0.0,3.9856,3.977,3.9414,3.9471,3.9544,3.9501,3.93,3.9187,3.9227,3.8966,3.8781,3.8711,3.8579,3.8563,3.8696,3.8579,3.8563,3.8696,3.8711,3.8839,3.9163,3.8924,3.9077,3.9592,3.9144,3.9063,3.93,3.9068,3.8952,3.8952,3.8952,3.9122,3.9408,3.9446,3.9592,3.9837,3.9804,3.9735,3.9647,3.9647,3.9766,3.9962,0.0,0.0,0.0,3.5992,3.5964,3.596,3.599,3.5856,3.572,3.5616,3.5393,3.5235,3.5204,3.5172,3.5164,3.5206,3.5505,3.6158,3.7269,3.7891,3.8644,3.9576,3.9414,3.921,3.8966,3.9085,3.9031,3.8799,3.9109,3.9229,3.9216,3.952,3.9658,3.967,3.9826,3.99,3.99,3.99,3.99,3.99,3.99,3.99,3.99,3.99,3.9837,3.9792,3.9792,3.9693,3.9599,3.9682,0.0,0.0,0.0,0.0,0.0,0.0,0.0,0.0,0.0,0.0,0.0,0.0,0.0,0.0,0.0,0.0,0.0,0.0,0.0,0.0,0.0,0.0,0.0,0.0,3.99,3.9834,3.9575,3.9701,3.9792,3.9792,3.9647,3.9539,3.9495,3.9326,3.9149,3.9008,3.899,3.899,3.8994,3.899,3.899,3.8994,3.8994,3.9163,3.9502,3.9313,3.9439,3.99,3.9537,3.9477,3.9658,3.9464,3.9371,3.9371,3.9371,3.9477,3.9658,3.9658,3.9758,0.0,0.0,0.0,0.0,0.0,3.995,4.0223,0.0,0.0,0.0,3.5999,3.5994,3.6009,3.5999,3.5833,3.5689,3.5607,3.536,3.5209,3.5209,3.5196,3.5206,3.5201,3.5916,3.6667,3.7395,3.8685,3.9528,3.9829,3.9548,3.932,3.9257,3.9295,3.9257,3.9165,3.9508,3.9623,3.9563,3.9792,3.9911,3.99,3.99,3.99,3.99,3.99,3.99,3.99,3.99,3.99,3.99,3.99,3.9889,3.9878,3.9878,3.9792,3.9682,3.9682,0.0,0.0,0.0,0.0,0.0,0.0,0.0,0.0,0.0,0.0,0.0,0.0,0.0,0.0,0.0,0.0,0.0,0.0,0.0,0.0,0.0,0.0,0.0,0.0,3.99,3.99,3.99,3.99,3.99,3.99,3.99,3.9804,3.9575,3.9551,3.9421,3.9077,3.9326,3.9364,3.9063,0.0,0.0,0.0,0.0,3.9242,3.9544,3.9563,3.967,3.9922,3.9922,3.9922,3.9922,3.9911,3.9911,3.9922,3.99,3.9911,3.9922,3.9911,3.9911,3.9922,3.9922,3.9933,3.9914,3.9935,4.0101,4.0307,0.0,0.0,0.0,3.6001,3.5997,3.5997,3.5999,3.5833,3.5689,3.5607,3.5399,3.5261,3.5209,3.5201,3.5201,3.5201,3.5406,3.6168,3.7634,3.8432,3.9266,4.0167,3.9916,3.9724,3.9618,3.9865,3.9862,3.9573,3.9859,3.9965,3.9903,3.9954,3.9954,3.99,3.99,3.99,3.99,3.99,3.99,3.99,3.99,3.99,3.99,3.99,3.9826,3.9739,3.9739,3.9658,3.9551,3.9551,3.9508,3.9514,3.9514,0.0,0.0,0.0,0.0,0.0,0.0,0.0,0.0,0.0,0.0,0.0,0.0,0.0,0.0,0.0,0.0,0.0,0.0,0.0,0.0,3.99,3.99,3.99,3.99,3.99,3.99,3.99,3.99,3.9878,3.9834,3.9815,3.9712,3.9414,3.9458,3.9471,3.9408,3.9458,3.9575,3.9717,3.9728,3.9773,3.9892,3.9892,3.9954,4.0057,0.0,0.0,4.0057,4.0015,4.0015,4.0046,3.9962,3.9954,4.0057,3.9996,4.0007,4.0057,4.005,4.0051,4.0071,4.0176,4.0326,4.0462,0.0,0.0,0.0,3.6007,3.6006,3.6006,3.6006,3.5883,3.5788,3.5718,3.5576,3.5451,3.5369,3.5355,3.5326,3.5254,3.5672,3.6656,3.8336,3.8726,3.9328,4.0263,4.0176,4.0068,3.9989,4.0157,4.0157,3.9946,4.0087,4.0127,4.0057,4.0026,3.9975,3.9943,3.9911,3.99,3.99,3.99,3.99,3.99,3.99,3.99,3.99,3.99,3.9867,3.9804,3.9804,3.9705,3.9611,3.9611,3.9563,3.9514,3.9514,3.964,3.9791,0.0,0.0,0.0,0.0,0.0,0.0,0.0,0.0,0.0,0.0,0.0,0.0,0.0,0.0,4.002,4.0081,0.0,4.0101,4.0101,4.005,3.9989,3.9989,3.9967,3.9933,3.99,3.99,3.9911,3.9943,3.9943,3.9911,3.9815,3.9804,3.9804,3.9804,3.9804,3.9859,4.0005,4.0005,4.0015,4.0057,4.0057,4.0067,4.0106,4.0106,4.0106,4.0106,4.0067,4.0067,4.0106,4.0026,4.0036,4.0098,4.0148,4.0213,4.0309,4.0372,4.0315,4.0221,4.0345,4.0487,4.0604,0.0,0.0,0.0,3.5992,3.5992,3.5992,3.5992,3.594,3.5883,3.581,3.5741,3.5645,3.5529,3.5513,3.5445,3.533,3.5941,3.6998,3.8516,3.8757,3.919,4.0005,4.0205,4.0301,4.0301,4.0301,4.0263,4.0215,4.0215,4.0176,4.0106,4.0046,4.0015,3.9975,3.9922,3.99,3.99,3.99,3.99,3.99,3.99,3.99,3.99,3.99,3.99,3.99,3.99,3.9826,3.9728,3.9717,3.9658,3.958,3.9556,3.9717,3.9943,3.9943,4.012,0.0,0.0,0.0,0.0,0.0,0.0,0.0,0.0,0.0,4.0157,4.0283,4.0212,4.0167,4.0283,4.0309,4.0356,4.0545,4.0469,4.0472,4.0653,4.0606,4.0525,4.0473,4.0154,3.9954,4.0007,4.0007,4.0046,4.0106,4.0106,4.0106,4.0106,4.0106,4.0106,4.0106,4.0106,4.0117,4.0127,4.0147,4.0158,4.0186,4.0206,4.0206,4.0186,4.0148,4.0147,4.0137,4.0137,4.0157,4.0158,4.0285,4.0412,4.0545,4.0692,4.0617,4.0427,4.0531,4.0642,4.0746,0.0,0.0,0.0,0.0,0.0,3.5992,3.5992,3.594,3.5883,3.581,3.5741,3.5669,3.5597,3.5546,3.547,3.5393,3.5415,3.5852,3.6822,3.7496,3.8237,3.9107,3.9881,4.0301,4.0301,4.0301,4.0301,4.0291,4.0291,4.0225,4.0106,4.0087,4.0026,3.9911,3.99,3.99,3.99,3.99,3.99,3.99,3.99,3.99,3.99,3.99,3.99,3.99,3.99,3.9889,3.9867,3.9739,3.9777,3.9827,3.9728,3.9863,4.0081,4.0081,4.0183,4.0309,4.0309,4.0283,4.0273,4.0407,4.0359,4.0283,0.0,0.0,4.0283,4.03,4.0292,4.0292,4.03,4.0309,4.0564,4.1404,4.1527,4.1813,4.2649,4.261,4.2487,4.2478,4.1064,4.0077,4.0096,4.0096,4.0087,4.0106,4.0106,4.0106,4.0106,4.0106,4.0106,4.0106,4.0106,4.0137,4.0186,4.0306,4.0408,4.0457,4.0574,4.0574,4.0449,4.0389,4.0334,4.0282,4.0282,4.0308,4.0372,4.0457,4.0559,4.07,4.0833,4.0864,4.0824,4.0859,4.0869,4.0883,0.0,0.0,0.0,0.0,0.0,3.5992,3.5992,3.5981,3.5949,3.5925,3.5858,3.5776,3.5676,3.5554,3.5489,3.546,3.5369,3.5676,3.6543,3.6845,3.7597,3.8935,3.9355,3.9766,4.0282,4.0301,4.0272,4.0244,4.0272,4.0234,4.0106,4.0106,4.0046,3.9954,3.9922,3.99,3.99,3.99,3.99,3.99,3.99,3.99,3.99,3.99,3.9946,4.001,4.001,4.008,0.0,0.0,4.0082,4.0129,4.0063,4.0183,4.0321,4.0321,4.0458,4.0557,4.0394,4.0394,4.0415,4.0434,4.0434,4.0458,4.0564,4.0508,4.0458,4.0571,4.0508,4.0593,4.1188,4.1316,4.1634,0.0,4.2666,4.2763,4.3163,4.3074,4.2941,4.2872,4.2291,4.1829,4.1626,4.1218,4.0996,4.1023,4.0666,4.0414,4.0351,4.0323,4.0308,4.0225,4.028,4.0351,4.0377,4.0508,4.0595,4.0609,4.0668,4.092,4.131,4.1296,4.1261,4.1208,4.0746,4.0588,4.0687,4.0724,4.0818,4.0935,4.0992,4.1023,4.1023,4.1023,4.1023,4.1027,0.0,0.0,0.0,0.0,0.0,3.5992,3.5992,3.5992,3.5989,3.596,3.5934,3.584,3.5691,3.5599,3.5528,3.5507,3.5372,3.5576,3.6197,3.6397,3.713,3.8572,3.8877,3.9412,4.0282,4.0301,4.0263,4.0196,4.0253,4.0196,4.0067,4.0067,4.0036,3.9965,3.9922,3.99,3.99,3.99,3.99,3.99,3.99,3.99,3.99,3.99,4.0,4.0158,4.011,4.0185,0.0,0.0,4.0315,4.0359,4.0359,4.0466,4.0574,4.0574,4.0694,4.0752,4.0559,4.0552,4.0566,4.0527,4.0557,4.0621,4.0778,4.0694,4.0621,4.0778,4.0867,4.113,4.1886,4.2257,4.2743,4.3649,4.376,4.3799,4.4067,4.3986,4.3853,4.3778,4.3831,4.3789,4.355,4.2631,4.2067,4.2117,4.1666,4.1242,4.0899,4.0892,4.0743,4.0413,4.0496,4.0564,4.0564,4.0687,4.0767,4.0767,4.0782,4.1208,4.1955,4.2176,4.2254,4.2215,4.1396,4.112,4.1218,4.0985,4.098,4.1107,4.1107,4.1107,4.1107,4.1107,4.1107,4.1107,0.0,0.0,0.0,0.0,0.0,3.5992,3.5992,3.5992,3.5981,3.5919,3.5892,3.582,3.562,3.5607,3.557,3.5514,3.5372,3.5308,3.5346,3.6072,3.6863,3.7693,3.8553,3.9412,4.0282,4.0301,4.0263,4.0196,4.0196,4.0128,3.9996,3.9996,3.9965,3.99,3.99,3.99,3.99,3.99,3.99,3.99,3.99,3.99,3.99,3.99,4.0051,4.0283,4.0158,0.0,0.0,4.0309,4.0391,4.0484,4.0484,4.0621,0.0,4.079,4.079,4.0809,4.0784,4.0794,4.079,4.079,4.079,4.079,4.0797,4.079,4.079,4.0797,4.1429,4.1989,4.2081,4.279,4.3663,4.4617,4.4766,4.5075,4.5974,4.6002,4.5914,4.5914,4.5731,4.5626,0.0,4.4124,4.3144,4.3144,4.3131,4.2744,4.1899,4.1861,4.1506,4.0707,4.0687,4.0687,4.0687,4.0828,4.0883,4.0903,4.103,4.1435,4.2126,4.2838,4.3157,4.3112,4.2235,4.1939,4.1995,4.1218,4.098,4.1107,4.1107,4.1107,4.1107,4.1107,4.1107,4.1107,0.0,0.0,0.0,0.0,0.0,0.0,3.5936,3.5936,3.5897,3.5771,3.5732,0.0,0.0,0.0,0.0,0.0,3.5372,3.5308,3.5308,3.5512,3.5999,3.68,3.7632,3.8452,3.9281,3.9862,4.0137,4.0077,4.0108,4.0067,3.9933,3.9975,3.9965,3.99,3.99,3.99,3.99,3.99,3.99,3.99,3.99,3.99,3.9911,3.9989,4.0129,4.0309,0.0,0.0,4.0633,4.0633,4.0654,4.07,4.07,4.0746,4.0797,4.0797,4.0808,4.0792,4.0794,4.079,4.0797,4.0797,4.0797,4.0797,4.0797,4.0797,4.0951,4.1487,4.1853,4.2437,4.3618,4.4092,4.4618,4.5525,4.5694,4.5834,4.6157,4.6154,4.6098,4.6007,4.6013,0.0,0.0,0.0,0.0,4.4201,4.3739,4.3301,4.2925,4.2901,4.2474,4.1538,4.1577,4.1362,4.0833,4.0971,4.1034,4.1034,4.1623,4.2013,4.226,4.3089,4.3465,4.3445,4.3154,4.3054,4.3078,4.2805,4.2723,4.2763,4.2763,4.2763,4.2763,4.2763,4.2763,4.2685,0.0,0.0,0.0,0.0,0.0,0.0,0.0,0.0,0.0,0.0,0.0,0.0,0.0,0.0,0.0,0.0,0.0,3.535,3.535,3.5269,3.5594,3.6387,3.6935,3.7728,3.8842,3.9423,3.9842,4.0077,4.0087,4.0046,3.9933,3.9954,3.9943,3.99,3.99,3.99,3.99,3.99,3.9933,3.9977,3.9977,3.9989,4.006,4.0148,4.0257,0.0,0.0,0.0,4.0797,4.0797,4.0797,4.0803,4.0831,4.0851,4.0853,4.0812,4.0815,4.0828,4.0806,4.0796,4.0797,4.0797,4.0796,4.0808,4.0808,4.0825,4.1075,4.1908,4.2349,4.3042,4.4475,4.5021,4.546,4.6041,4.6162,4.6199,4.6199,4.6199,4.6181,4.6084,4.6146,4.6177,0.0,0.0,0.0,4.5239,4.4803,4.4362,4.396,4.394,4.3505,4.2542,4.2582,4.2244,4.1403,4.1496,4.138,4.1107,4.1932,4.2497,4.2783,4.3666,4.4221,4.4507,4.4195,4.407,4.4044,4.3753,4.3636,4.3636,4.3606,4.3591,4.3591,4.3599,4.3597,4.3526,0.0,0.0,0.0,0.0,0.0,0.0,0.0,0.0,0.0,0.0,0.0,0.0,0.0,0.0,0.0,0.0,0.0,0.0,3.5405,3.5331,3.5629,3.6403,3.6468,3.7217,3.883,3.8945,3.9366,4.0139,4.0118,4.0067,3.9996,3.9954,3.9922,3.9922,3.9943,3.9924,3.9933,3.9933,4.0008,4.011,4.011,4.0185,4.0309,4.0317,0.0,0.0,0.0,0.0,4.0797,4.0797,4.0797,4.0815,4.0868,4.0941,4.0963,4.0829,4.0844,4.0874,4.0818,4.08,4.0797,4.0797,4.0806,4.0807,4.0793,4.0893,4.1218,4.2097,4.2966,4.3841,0.0,0.0,4.6134,4.6192,4.6199,4.6199,4.6199,4.6199,4.6199,0.0,0.0,0.0,0.0,0.0,0.0,4.6199,0.0,4.5848,4.5011,4.4972,4.4579,4.3698,4.3659,4.3254,4.2377,4.2361,4.1974,4.1234,4.2073,4.2852,4.3634,4.451,4.535,4.6076,4.5297,4.4961,4.4898,4.4137,4.3825,4.3825,4.375,4.373,4.3729,4.3723,4.3725,4.373,0.0,0.0,0.0,0.0,0.0,0.0,0.0,0.0,0.0,0.0,0.0,0.0,0.0,0.0,0.0,0.0,0.0,0.0,3.5405,3.5289,3.5321,3.5512,3.6067,3.6556,3.6975,3.8204,3.8947,3.9156,3.9793,4.0077,4.0077,4.0167,4.0194,4.0203,4.0296,4.0321,4.0281,4.0281,4.0264,4.0248,0.0,4.0274,4.0317,0.0,0.0,0.0,0.0,0.0,4.0797,4.0797,4.0797,4.0803,4.0814,4.0837,4.0835,4.0806,4.0804,4.0818,4.08,4.0809,4.0809,4.0792,4.0796,4.0818,4.0859,4.1383,4.2112,4.2986,4.385,4.4738,0.0,0.0,0.0,4.6196,4.6199,0.0,4.6199,4.6199,0.0,4.6199,0.0,4.6199,4.6199,4.6199,0.0,0.0,4.6199,4.6102,4.5887,4.5868,4.5478,4.4598,4.4572,4.4153,4.3275,4.3267,4.3166,4.2972,4.3182,4.3398,4.3633,4.4453,4.4941,4.5175,4.5605,4.578,4.5779,4.5564,4.5486,4.5486,4.5465,4.5464,4.5464,4.5462,4.5463,4.5465,0.0,0.0,0.0,0.0,0.0,0.0,0.0,0.0,0.0,0.0,0.0,0.0,0.0,0.0,0.0,0.0,0.0,0.0,0.0,3.5312,3.5239,3.5239,3.5632,3.6029,3.6384,3.7661,3.8318,0.0,0.0,0.0,3.9575,4.0015,4.0241,4.029,4.0388,4.0423,4.0446,4.0446,0.0,0.0,0.0,0.0,0.0,0.0,0.0,0.0,0.0,0.0,0.0,4.0797,4.0814,4.0848,4.0815,4.0832,4.0888,4.082,4.0818,4.0848,4.0802,4.0796,4.0806,4.0801,4.0844,4.1005,4.1421,4.189,4.2602,4.3867,4.4491,4.5114,4.599,4.6165,4.6199,0.0,0.0,0.0,4.6199,4.6199,4.6199,0.0,4.6199,0.0,4.6199,4.6199,4.6199,0.0,4.6199,4.6199,4.6199,4.6199,4.5975,4.549,4.546,4.5043,4.4183,4.3786,4.3594,4.3593,4.3608,4.3776,4.415,4.4617,4.5043,4.5408,0.0,4.6128,4.6134,4.6134,4.6134,4.6134,4.6104,4.6099,4.6099,4.6067,4.6069,4.6099,0.0,0.0,0.0,0.0,0.0,0.0,0.0,0.0,0.0,0.0,3.5446,3.5405,0.0,0.0,0.0,0.0,0.0,0.0,0.0,0.0,0.0,0.0,3.5281,3.5605,3.6309,3.712,3.7597,0.0,0.0,0.0,0.0,0.0,0.0,0.0,0.0,0.0,0.0,0.0,0.0,0.0,0.0,0.0,0.0,0.0,0.0,0.0,0.0,0.0,0.0,0.0,4.0848,4.0873,4.0808,4.0878,4.0957,4.0837,4.0834,4.0868,4.0814,4.0806,4.0793,4.0828,4.0917,4.1229,4.2093,4.2392,4.2919,4.4562,4.4991,4.5306,4.6066,4.6203,4.6203,4.6203,0.0,4.6199,4.6199,4.6199,4.6199,4.6199,4.6199,4.6199,4.6199,4.6199,4.6199,4.6199,4.6206,4.6206,4.6199,4.6206,4.6192,4.6214,4.6216,4.5857,4.5094,4.4333,4.3956,4.3943,4.3946,4.4288,4.4958,4.5028,4.5425,4.6092,4.6092,4.6128,4.6162,4.6162,4.6162,4.6177,4.6102,4.6089,4.608,4.6017,4.6052,4.6089,0.0,0.0,0.0,0.0,0.0,0.0,0.0,0.0,0.0,0.0,3.5446,3.5372,0.0,0.0,0.0,0.0,0.0,0.0,0.0,0.0,0.0,0.0,3.5261,3.5267,3.5411,3.6271,0.0,0.0,0.0,0.0,0.0,0.0,0.0,0.0,0.0,0.0,0.0,0.0,0.0,0.0,0.0,0.0,0.0,0.0,0.0,0.0,0.0,0.0,0.0,0.0,4.0809,4.0827,4.0803,4.0827,4.0831,4.0809,4.0809,4.0814,4.0804,4.0801,4.0828,4.0935,4.0984,4.1237,4.2107,4.2857,0.0,4.4699,4.5469,4.6024,4.6161,4.62,4.62,4.62,4.6206,4.6199,4.6199,4.6199,4.6199,0.0,4.6199,4.6199,4.6199,4.6199,0.0,0.0,4.6198,4.6201,4.6199,4.6198,4.6238,4.6284,4.6284,4.6208,4.6054,4.5849,4.5751,4.5755,4.5699,4.5706,4.5793,4.5808,4.59,4.6027,4.6027,0.0,4.6027,4.6027,4.6027,4.6027,4.6017,4.6012,4.6012,4.6002,4.6007,4.6012,0.0,0.0,0.0,0.0,0.0,0.0,0.0,3.5634,3.5552,3.5599,3.5457,3.535,3.5289,3.5293,3.5281,0.0,0.0,0.0,0.0,0.0,0.0,0.0,0.0,0.0,0.0,0.0,0.0,0.0,0.0,0.0,0.0,0.0,0.0,0.0,0.0,0.0,0.0,0.0,0.0,0.0,0.0,0.0,0.0,0.0,0.0,0.0,0.0,0.0,0.0,0.0,4.0806,4.08,4.0803,4.0797,4.0797,4.0797,4.0802,4.0792,4.0801,4.0849,4.0921,4.0984,4.103,4.1399,4.2682,0.0,0.0,4.5299,4.5901,4.6206,4.6206,4.6192,4.6195,4.6206,4.6196,4.6209,4.6199,4.6199,4.6199,4.6199,4.6199,4.6199,4.6199,4.6198,4.6199,4.6199,4.6177,4.6157,4.6201,4.6228,4.6248,4.6248,4.6242,4.6258,4.6301,4.623,4.6198,4.6203,4.6127,4.6051,4.6002,4.6002,4.6002,4.6002,4.6002,4.6002,4.6002,4.6002,4.6002,4.6002,4.6002,4.6002,4.6002,4.6002,4.6002,4.6002,0.0,0.0,0.0,0.0,0.0,0.0,3.5908,3.5736,3.5635,3.5697,3.5525,3.5383,3.5376,3.53,3.5261,0.0,0.0,0.0,0.0,0.0,0.0,0.0,0.0,0.0,0.0,0.0,0.0,0.0,0.0,0.0,0.0,0.0,0.0,0.0,0.0,0.0,0.0,0.0,0.0,0.0,0.0,0.0,0.0,0.0,0.0,0.0,0.0,0.0,0.0,0.0,4.0815,4.0829,4.0823,4.0812,4.0797,4.079,4.0792,4.0812,4.0839,4.0921,4.0996,4.1027,4.1068,4.1536,4.3211,4.3601,4.4091,4.5832,4.62,4.6192,4.6215,4.6223,4.6228,0.0,4.6209,4.62,4.6206,4.6199,4.6199,0.0,4.6203,0.0,4.6206,4.6197,0.0,4.6184,4.6131,4.6111,4.6179,4.623,4.6239,4.6202,4.6197,4.6228,4.6286,4.6225,4.6192,4.6185,4.6134,4.6051,4.6002,4.6002,4.6002,4.6002,4.6002,4.6002,4.6002,4.6002,4.6002,4.6002,4.6002,4.6002,4.6002,4.6002,4.6002,4.6002,0.0,0.0,0.0,0.0,0.0,0.0,3.5908,3.5772,3.5697,3.5702,3.5684,3.5649,3.5585,3.5357,3.5209,0.0,0.0,0.0,0.0,0.0,0.0,0.0,0.0,0.0,0.0,0.0,0.0,3.7968,3.8268,0.0,0.0,0.0,0.0,0.0,0.0,0.0,0.0,0.0,0.0,0.0,0.0,0.0,0.0,0.0,0.0,0.0,0.0,0.0,4.0893,4.0898,4.0898,4.0886,4.0892,4.0846,4.0809,4.0804,4.0801,4.0828,4.0943,4.0988,4.1003,4.1078,4.1107,4.1536,4.3211,0.0,4.4095,4.5849,4.6195,4.6228,4.6279,4.6282,4.6284,0.0,0.0,4.6203,4.6203,4.6209,4.6199,4.6199,0.0,0.0,4.6207,4.6199,4.617,4.611,4.6092,4.6097,4.6103,4.6119,4.6138,4.6193,4.6206,4.6206,4.6209,4.6203,4.6162,4.6102,4.6098,4.6051,4.6002,4.6002,4.6002,4.6002,4.6002,4.6002,0.0,4.6002,4.6002,4.6002,4.6002,4.6002,4.6002,4.6002,4.6002,4.6002,0.0,0.0,0.0,0.0,0.0,0.0,3.5953,3.5858,3.5797,3.5866,3.5732,3.566,3.5654,3.5529,3.5432,3.5432,0.0,0.0,0.0,0.0,0.0,0.0,0.0,0.0,0.0,0.0,3.7031,3.8215,3.8887,0.0,0.0,0.0,0.0,0.0,0.0,0.0,0.0,0.0,0.0,0.0,0.0,0.0,0.0,0.0,0.0,0.0,0.0,0.0,4.0952,4.0961,4.0954,4.0941,4.0902,4.0877,4.0859,4.0855,4.0886,4.0926,4.0996,4.103,4.1071,4.1085,4.1107,4.1536,4.3211,0.0,4.4091,4.5832,4.6223,4.6279,4.6303,4.629,4.6292,0.0,0.0,0.0,4.6206,4.62,4.6193,4.6193,4.62,0.0,0.0,0.0,4.6117,4.6031,4.6037,4.6045,4.6045,4.6128,4.6151,4.6142,4.6185,4.6199,4.6199,4.6199,4.6177,4.6098,4.6098,4.6051,4.6002,4.6002,4.6002,4.6002,4.6002,4.6002,0.0,4.6002,4.6002,4.6002,4.6002,4.6002,4.6002,4.6002,4.6002,4.6002,0.0,0.0,0.0,0.0,0.0,3.5992,3.5992,3.5921,3.5897,3.5981,3.5817,3.5709,3.5753,3.5724,3.5684,3.5684,3.5625,0.0,0.0,0.0,0.0,0.0,0.0,0.0,0.0,0.0,3.761,3.8742,3.9441,4.0257,0.0,0.0,0.0,0.0,0.0,0.0,0.0,0.0,0.0,0.0,0.0,0.0,0.0,0.0,0.0,0.0,0.0,0.0,0.0,0.0,0.0,4.1025,4.0967,4.0955,0.0,0.0,4.0961,4.1009,4.1025,4.1052,4.1107,4.1107,4.1107,4.1539,4.3221,0.0,4.4103,4.5866,4.6272,4.6306,4.6308,4.6296,4.6298,0.0,0.0,4.6279,4.624,4.6215,4.6192,4.6192,0.0,4.6183,0.0,4.6114,4.6057,4.5993,4.6002,4.6002,4.6002,4.6089,4.613,4.6075,4.6126,4.6142,4.6142,4.6142,4.6126,4.6075,4.6075,4.6056,4.6002,4.6002,4.6002,4.6002,4.6002,4.6002,0.0,4.6002,4.6002,4.6002,4.6002,4.6002,4.6002,4.6002,4.6002,4.6002,0.0,0.0,0.0,0.0,0.0,3.5992,3.5992,3.5997,3.6003,3.6005,3.5943,3.5908,3.5908,3.5908,3.5908,3.5908,3.5711,0.0,0.0,0.0,0.0,0.0,0.0,0.0,0.0,0.0,3.8053,3.9787,3.9787,4.0255,4.1093,4.1093,4.1108,4.1095,0.0,0.0,0.0,0.0,0.0,0.0,0.0,0.0,0.0,0.0,0.0,0.0,0.0,0.0,0.0,0.0,0.0,0.0,0.0,4.1093,4.1085,4.1017,4.0998,4.1014,4.1075,4.1107,4.1107,4.1107,4.1107,4.1542,4.322,4.3593,4.4109,4.5928,4.6303,4.6308,4.6298,4.63,4.63,4.63,0.0,0.0,4.6303,4.6236,4.6206,0.0,0.0,4.6172,4.6101,4.6029,4.6002,4.6002,4.6002,0.0,4.6002,4.6002,4.6002,4.6002,4.6002,4.6002,4.6002,4.6002,4.6002,4.6002,4.6002,4.6002,4.6002,4.6002,4.6002,4.6002,4.6002,4.6002,0.0,4.6002,4.6002,4.6002,4.6002,4.6002,4.6002,4.6002,4.6002,4.6002,0.0,0.0,0.0,0.0,0.0,0.0,3.6004,3.5994,3.5981,3.5936,3.5899,3.5908,3.5908,3.5908,3.5908,3.5908,3.5833,0.0,0.0,0.0,0.0,0.0,0.0,0.0,0.0,3.778,3.8658,3.9809,4.0403,4.083,4.1093,4.1103,4.11,4.1108,4.1108,0.0,0.0,0.0,0.0,0.0,0.0,0.0,0.0,0.0,0.0,0.0,0.0,0.0,0.0,0.0,0.0,0.0,0.0,0.0,0.0,4.1074,4.1073,4.1069,4.1094,4.1095,4.1096,4.1096,4.1103,4.1538,4.3223,4.3648,4.4168,4.5933,4.629,4.6296,4.63,4.63,4.63,4.63,4.6298,0.0,0.0,0.0,0.0,4.6217,4.6165,4.6119,0.0,0.0,4.6002,4.6002,4.6002,4.6002,4.6002,4.6002,4.6002,4.6002,4.6002,4.6002,4.6002,4.6002,4.6002,4.6002,4.6002,4.6002,4.6002,4.6002,4.6002,4.6002,4.6002,4.6002,4.6002,4.6002,4.6002,4.6002,4.6002,4.6002,4.6002,4.6002,4.6002,4.6002,0.0,0.0,0.0,0.0,0.0,0.0,3.6001,3.5992,3.5981,3.5912,3.5897,3.5908,3.5908,3.5908,3.5908,3.5908,3.5908,0.0,0.0,0.0,0.0,0.0,0.0,0.0,3.7674,3.8534,3.9419,4.0246,4.0795,4.1069,4.1065,4.1069,4.1083,4.1104,4.1104,4.1092,0.0,0.0,0.0,0.0,0.0,0.0,4.1106,0.0,0.0,0.0,0.0,0.0,0.0,0.0,0.0,0.0,0.0,0.0,0.0,0.0,4.111,4.1094,4.1106,4.1106,4.11,4.1105,4.1349,4.1944,4.3314,4.3914,4.4588,4.6017,4.6296,4.63,4.63,4.63,4.63,4.63,4.63,4.6298,0.0,0.0,0.0,4.621,0.0,0.0,0.0,4.6018,4.6002,4.6002,4.6002,4.6002,4.6002,4.6002,4.6002,4.6002,4.6002,4.6002,4.6002,4.6002,4.6002,4.6002,4.6002,4.6002,4.6002,4.6002,4.6002,4.6002,4.6002,4.6002,0.0,4.6002,4.6002,4.6002,4.6002,4.6002,4.6002,4.6002,4.6002,4.6002,0.0,0.0,0.0,0.0,0.0,0.0,0.0,3.5992,3.596,3.5912,3.5897,3.5908,3.5908,3.5892,3.5894,3.5894,3.5897,0.0,0.0,0.0,0.0,0.0,0.0,0.0,3.8476,3.9355,4.0192,4.0992,4.0992,4.0992,4.0992,4.0992,4.1027,4.1093,4.1093,4.1102,4.1098,0.0,0.0,0.0,4.1097,4.1093,0.0,0.0,0.0,0.0,0.0,0.0,0.0,0.0,0.0,0.0,0.0,0.0,0.0,0.0,0.0,0.0,0.0,4.109,4.1106,4.1096,4.1761,4.2622,4.3492,4.4374,0.0,4.6122,4.63,4.63,4.63,4.63,4.63,4.63,4.63,4.63,0.0,4.6305,0.0,0.0,4.6137,0.0,4.6012,4.6002,4.6002,4.6002,4.6002,4.6002,4.6002,4.6002,4.6002,4.6002,4.6002,4.6002,4.6002,4.6002,4.6002,4.6002,4.6002,4.6002,4.6002,4.6002,4.6002,0.0,4.6002,4.6002,4.6002,4.6002,4.6002,4.6002,4.6002,4.6002,4.6002,4.6002,4.6002,4.6002,0.0,0.0,0.0,0.0,0.0,0.0,0.0,0.0,0.0,0.0,3.5897,3.5908,3.5908,3.5897,3.5892,0.0,0.0,0.0,0.0,0.0,0.0,0.0,0.0,0.0,3.8485,3.9302,4.0137,4.0992,4.0992,4.0992,4.0992,4.0992,4.1016,4.1023,4.1023,4.1053,4.1104,4.1108,0.0,0.0,4.1103,4.109,0.0,0.0,0.0,0.0,4.1011,4.1026,0.0,0.0,0.0,0.0,0.0,0.0,0.0,0.0,4.1066,4.1092,4.1106,0.0,4.1108,4.109,4.1765,4.2633,0.0,4.4378,0.0,0.0,0.0,4.63,4.63,4.63,4.63,4.63,4.63,4.63,4.63,0.0,0.0,4.6204,4.6095,4.6027,4.6002,4.6002,4.6002,4.6002,4.6002,4.6002,4.6002,4.6002,4.6002,4.6002,4.6002,4.6002,4.6002,4.6002,4.6002,4.6002,4.6002,4.6002,4.6002,4.6002,4.6002,4.6002,4.6002,4.6002,4.6002,4.6002,4.6002,4.6002,4.6002,4.6002,4.6002,4.6002,4.6002,4.6002,0.0,0.0,0.0,0.0,0.0,0.0,0.0,0.0,0.0,0.0,3.589,3.5897,3.5897,3.5892,3.5906,0.0,0.0,0.0,0.0,0.0,0.0,0.0,0.0,3.7996,3.8445,3.9653,4.0518,4.0944,4.0944,4.0944,4.0944,4.0944,4.0978,4.1003,4.1003,4.1023,4.1054,4.109,4.1073,4.105,4.1094,0.0,0.0,0.0,0.0,0.0,4.0994,4.0995,0.0,4.0996,4.1005,4.1009,0.0,0.0,0.0,0.0,4.1046,4.1092,4.1103,4.1095,4.1109,4.1094,4.2064,4.3111,4.3599,4.4676,0.0,0.0,0.0,4.63,4.63,4.63,4.63,4.63,4.63,0.0,0.0,0.0,4.6202,4.6202,4.608,4.6002,0.0,4.6002,4.6002,4.6002,4.6002,4.6002,4.6002,4.6002,4.6002,4.6002,4.6002,4.6002,4.6002,4.6002,4.6002,4.6002,4.6002,4.6002,4.6002,4.6002,4.6002,4.6002,4.6002,4.6002,4.6002,4.6002,4.6002,4.6002,4.6002,4.6002,4.6002,4.6002,4.6002,4.6002,0.0,0.0,0.0,0.0,0.0,0.0,0.0,0.0,0.0,0.0,0.0,0.0,0.0,0.0,0.0,0.0,0.0,0.0,0.0,0.0,0.0,0.0,3.7544,3.8458,3.84,4.0087,4.0949,4.0888,4.0859,4.0854,4.0854,4.0854,4.0902,4.0967,4.1001,4.1007,4.0995,4.1054,4.105,4.0996,4.1063,0.0,0.0,0.0,0.0,0.0,0.0,0.0,0.0,4.0992,4.1003,4.099,4.099,0.0,0.0,0.0,0.0,0.0,4.1101,4.1108,4.1136,4.1262,4.2515,4.3725,4.386,0.0,0.0,0.0,0.0,0.0,4.63,4.63,0.0,0.0,0.0,0.0,4.6288,4.6228,4.6173,4.6173,4.6072,0.0,4.6002,4.6002,4.6002,4.6002,4.6002,4.6002,4.6002,4.6002,4.6002,4.6002,4.6002,4.6002,4.6002,4.6002,4.6002,4.6002,4.6002,4.6002,4.6002,4.6002,4.6002,4.6002,0.0,0.0,4.6002,4.6002,4.6002,4.6002,4.6002,4.6002,4.6002,4.6002,4.6002,4.6002,0.0,0.0,0.0,0.0,0.0,0.0,0.0,0.0,0.0,0.0,0.0,0.0,0.0,0.0,0.0,0.0,0.0,0.0,0.0,0.0,0.0,3.5822,3.7494,3.8401,3.8404,4.0009,4.0834,4.0818,4.07,4.0642,4.0642,4.0642,4.0719,4.0832,4.0956,4.1009,4.0995,4.1012,4.1013,4.1001,4.1017,0.0,0.0,0.0,0.0,0.0,0.0,0.0,0.0,4.0989,4.1003,4.099,4.099,0.0,0.0,0.0,0.0,0.0,4.1093,4.1105,4.1282,4.2025,4.2962,4.3899,4.4621,4.5578,0.0,0.0,0.0,0.0,0.0,4.63,4.63,0.0,0.0,4.621,0.0,0.0,4.6115,4.6115,0.0,4.6002,4.6002,4.6002,4.6002,4.6002,4.6002,4.6002,4.6002,4.6002,4.6002,4.6002,4.6002,4.6002,4.6002,4.6002,4.6002,4.6002,4.6002,4.6002,4.6002,4.6002,4.6002,4.6002,0.0,4.6002,4.6002,4.6002,4.6002,4.6002,4.6002,4.6002,4.6002,4.6002,4.6002,4.6002,0.0,0.0,0.0,0.0,0.0,0.0,0.0,0.0,0.0,0.0,0.0,0.0,0.0,0.0,0.0,0.0,0.0,0.0,0.0,0.0,3.5786,3.5644,3.7346,3.8302,3.8302,3.9946,4.0751,4.0681,4.0635,4.0595,4.0595,4.0595,4.0635,4.0707,4.0839,4.0893,4.0902,4.0967,4.0975,4.0944,0.0,0.0,0.0,0.0,0.0,0.0,0.0,0.0,0.0,0.0,4.0949,4.0949,4.0949,0.0,0.0,0.0,0.0,0.0,4.1093,4.1108,4.1304,4.2181,4.306,4.3801,4.4211,4.5343,0.0,0.0,0.0,0.0,0.0,0.0,4.6287,4.6243,0.0,4.6191,4.6204,4.6138,4.6098,0.0,0.0,4.6002,4.6002,4.6002,4.6002,4.6002,4.6002,4.6002,4.6002,4.6002,4.6002,4.6002,4.6002,4.6002,4.6002,4.6002,4.6002,4.6002,4.6002,4.6002,4.6002,4.6002,4.6002,4.6002,0.0,4.6002,4.6002,4.6002,4.6002,4.6002,4.6002,4.6002,4.6002,4.6002,4.6002,4.6002,0.0,0.0,0.0,0.0,0.0,0.0,0.0,0.0,0.0,0.0,0.0,0.0,0.0,0.0,0.0,0.0,0.0,0.0,0.0,3.5736,3.5684,3.5556,3.7234,3.8185,3.8185,3.985,4.0655,4.0552,4.0542,4.0527,4.0527,4.0557,4.0552,4.0559,4.0681,4.0776,4.0806,4.0915,4.0937,4.0893,0.0,0.0,0.0,0.0,0.0,0.0,0.0,0.0,0.0,0.0,0.0,0.0,0.0,0.0,0.0,4.0953,4.0994,4.1003,4.1052,4.109,4.1304,4.2181,4.306,4.3743,4.3957,4.5207,0.0,0.0,0.0,0.0,0.0,4.6287,0.0,4.6211,4.619,4.6179,4.6173,4.6118,4.6072,4.6072,4.6032,4.6002,4.6002,4.6002,4.6002,4.6002,4.6002,4.6002,4.6002,4.6002,4.6002,4.6002,4.6002,4.6002,4.6002,4.6002,4.6002,4.6002,4.6002,4.6002,4.6002,4.6002,4.6002,4.6002,4.6002,4.6002,4.6002,4.6002,4.6002,4.6002,4.6002,4.6002,4.6002,4.6002,4.6002,4.6002,0.0,0.0,0.0,0.0,0.0,0.0,0.0,0.0,0.0,0.0,0.0,0.0,0.0,0.0,0.0,0.0,0.0,0.0,0.0,3.5629,3.5568,3.5678,3.7229,3.8112,3.8112,3.9626,4.043,4.0422,4.0344,4.0319,4.0319,4.0394,4.0422,4.0422,4.0552,4.0675,4.08,4.0812,4.0842,4.0907,4.0917,0.0,0.0,0.0,0.0,0.0,0.0,0.0,0.0,0.0,0.0,0.0,0.0,0.0,4.0894,4.0915,4.0944,4.0992,4.1019,4.1055,4.1304,4.2181,4.306,4.3918,4.4719,4.5636,0.0,4.63,0.0,0.0,0.0,4.6243,4.6211,4.6191,4.6142,4.6112,4.6109,0.0,4.6012,4.6012,4.6007,4.6002,4.6002,4.6002,4.6002,4.6002,4.6002,4.6002,4.6002,4.6002,4.6002,4.6002,4.6002,4.6002,4.6002,4.6002,4.6002,4.6002,4.6002,4.6002,4.6002,4.6002,4.6002,4.6002,4.6002,4.6002,4.6002,4.6002,4.6002,4.6002,4.6002,4.6002,4.6002,4.6002,4.6002,4.6002,0.0,0.0,0.0,0.0,0.0,0.0,0.0,0.0,0.0,0.0,0.0,0.0,0.0,0.0,0.0,0.0,0.0,0.0,0.0,3.5537,3.5708,3.6183,3.7339,3.8189,3.8649,3.9794,4.0383,4.0335,4.031,4.0301,4.0301,4.0327,4.0335,4.0335,4.0441,4.05,4.0564,4.0641,4.0745,4.0851,4.0851,4.0863,0.0,0.0,0.0,0.0,0.0,0.0,0.0,0.0,4.0898,4.0898,4.0898,4.0874,4.0844,4.0883,4.0945,4.0995,4.0992,4.1055,4.1304,4.2181,4.306,0.0,0.0,4.5675,4.63,4.63,4.63,0.0,0.0,0.0,4.6191,4.6202,4.6138,4.6084,4.605,4.6027,4.6002,4.6002,4.6002,4.6002,4.6002,4.6002,4.6002,4.6002,4.6002,4.6002,4.6002,4.6002,4.6002,4.6002,4.6002,4.6002,4.6002,4.6002,4.6002,4.6002,4.6002,4.6002,4.6002,4.6002,4.6002,4.6002,4.6002,4.6002,4.6002,4.6002,4.6002,4.6002,4.6002,4.6002,4.6002,4.6002,4.6002,4.6002,0.0,0.0,0.0,0.0,0.0,0.0,0.0,0.0,0.0,0.0,0.0,0.0,0.0,0.0,0.0,0.0,0.0,0.0,3.5562,3.5457,3.5746,3.649,3.7373,3.8199,3.8973,3.9912,4.0344,4.0301,4.0301,4.0301,4.0301,4.0301,4.0301,4.031,4.0353,4.0366,4.0372,4.0515,4.0629,4.0732,4.0812,4.0867,0.0,0.0,0.0,0.0,0.0,0.0,0.0,0.0,4.0898,4.0902,4.0872,4.0832,4.0815,4.0842,4.0914,4.0969,4.0964,4.1028,4.1343,4.2528,0.0,0.0,4.515,4.587,4.63,4.63,4.63,4.6284,4.6274,0.0,0.0,0.0,4.6112,4.6039,4.6012,4.6002,4.6002,4.6002,4.6002,4.6002,4.6002,4.6002,4.6002,4.6002,4.6002,4.6002,4.6002,4.6002,4.6002,4.6002,4.6002,4.6002,4.6002,4.6002,4.6002,4.6002,4.6002,4.6002,4.6002,4.6002,4.6002,4.6002,4.6002,4.6002,4.6002,4.6002,4.6002,4.6002,4.6002,4.6002,4.6002,4.6002,4.6002,4.5997,0.0,0.0,0.0,0.0,0.0,0.0,0.0,0.0,3.5698,3.5698,3.5756,0.0,0.0,0.0,0.0,0.0,0.0,0.0,3.5672,3.5388,3.5629,3.6576,3.7321,3.8113,3.8992,3.9862,4.0301,4.0301,4.0301,4.0301,4.0301,4.0301,4.0301,4.0301,4.0301,4.0291,4.0316,4.0434,4.0547,4.061,4.0815,4.0898,4.0907,0.0,0.0,0.0,0.0,0.0,0.0,0.0,4.0902,4.0897,4.0818,4.0804,4.08,4.0796,4.0844,4.0902,4.0905,4.095,4.1429,4.3242,0.0,0.0,4.5898,4.6302,4.63,4.6302,4.6302,4.6272,4.621,4.6202,0.0,4.6112,4.605,4.6002,4.6002,4.6002,4.6002,4.6002,4.6002,4.6002,4.6002,4.6002,4.6002,4.6002,4.6002,4.6002,4.6002,4.6002,4.6002,4.6002,4.6002,4.6002,4.6002,4.6002,4.6002,4.6002,4.6002,4.6002,4.6002,4.6002,4.6002,4.6002,4.6002,4.6002,4.6002,4.6002,4.6002,4.6002,4.6002,4.6002,4.6002,4.6002,4.6002,4.5986,0.0,0.0,0.0,0.0,0.0,0.0,0.0,0.0,3.5689,3.5696,3.5678,0.0,0.0,0.0,0.0,0.0,0.0,0.0,3.5483,3.5887,3.6487,3.7332,3.8169,3.903,3.99,4.0167,4.0301,4.0301,4.0301,4.0301,4.0301,4.0301,4.0301,4.0301,4.0205,4.0206,4.031,4.0234,4.0364,4.0609,4.0603,4.0738,4.0893,0.0,0.0,0.0,0.0,0.0,0.0,0.0,0.0,0.0,4.0812,4.0794,4.0796,4.0806,4.0815,4.0848,4.0882,4.0942,0.0,4.3188,0.0,0.0,0.0,4.6267,0.0,0.0,4.6228,4.6211,4.6202,4.6167,0.0,4.6102,4.605,4.6002,4.6002,4.6002,4.6002,4.6002,4.6002,4.6002,4.6002,4.6002,4.6002,4.6002,4.6002,4.6002,4.6002,4.6002,4.6002,4.6002,4.6002,4.6002,4.6002,4.6002,4.6002,4.6002,4.6002,4.6002,4.6002,4.6002,4.6002,4.6002,4.6002,4.6002,4.6002,4.6002,4.6002,4.6002,4.6002,4.6002,4.5997,4.6,4.596,4.5918,0.0,0.0,0.0,0.0,0.0,0.0,0.0,0.0,3.5609,3.5612,3.5596,3.5543,0.0,0.0,0.0,0.0,0.0,0.0,3.5937,3.63,3.705,3.8238,3.876,3.9412,4.0282,4.0301,4.0301,4.0301,4.0301,4.0301,4.0301,4.0244,4.0244,4.0301,4.0157,4.0117,4.0147,4.0147,4.0251,4.0439,4.0477,4.0636,4.0867,0.0,0.0,0.0,0.0,0.0,0.0,0.0,0.0,0.0,4.0802,4.0809,4.0803,4.0808,4.0804,4.0815,4.0889,4.1174,0.0,4.3205,4.3817,4.4445,4.5886,0.0,0.0,0.0,4.6206,4.6181,4.6167,4.6128,0.0,4.6056,4.6022,4.6002,4.6002,4.6002,4.6002,4.6002,4.6002,4.6002,4.6002,4.6002,4.6002,4.6002,4.6002,4.6002,4.6002,4.6002,4.6002,4.6002,4.6002,4.6002,4.6002,4.6002,4.6002,4.6002,4.6002,4.6002,4.6002,4.6002,4.6002,4.6002,4.6002,4.6002,4.6002,4.6002,4.5991,4.6005,4.6005,4.5927,4.5854,4.5929,4.5828,4.5658,0.0,0.0,3.55,3.55,0.0,0.0,0.0,0.0,3.55,3.5474,3.5489,3.543,0.0,0.0,0.0,3.5405,3.5366,3.5756,3.6742,3.6746,3.7453,3.9127,3.9138,3.9497,4.0309,4.0328,4.0319,4.0301,4.0291,4.0301,4.0291,4.0166,4.0186,4.0282,4.0137,4.0026,3.9933,4.009,4.0167,4.0238,4.0415,4.061,4.0801,4.0801,0.0,0.0,0.0,0.0,0.0,0.0,0.0,0.0,4.0803,4.0797,4.0803,4.0808,4.0798,4.0807,4.0872,4.1524,4.2407,4.3288,4.4201,0.0,4.5987,4.6171,4.6173,4.6197,0.0,4.6165,4.6102,4.6091,4.6064,4.6017,4.6002,4.6002,4.6002,4.6002,4.6002,4.6002,4.6002,4.6002,4.6002,4.6002,4.6002,4.6002,4.6002,4.6002,4.6002,4.6002,4.6002,4.6002,4.6002,4.6002,4.6002,4.5919,4.588,4.588,4.5875,4.5875,4.5875,4.5958,4.6002,4.6002,4.6002,4.6002,4.6002,4.6002,4.6005,4.5997,4.5997,4.5835,4.5627,4.5802,4.5619,4.5295,0.0,0.0,3.55,3.55,0.0,0.0,0.0,0.0,0.0,3.5364,0.0,0.0,0.0,0.0,0.0,3.5398,3.5993,3.6505,3.6781,3.7744,3.8573,3.9173,3.9786,4.0241,4.0534,4.0534,4.0489,4.0375,4.0327,4.0244,4.0147,4.0225,4.0225,4.0137,4.0005,3.9994,4.0046,3.9873,4.0012,4.0353,4.0342,4.0526,4.0806,4.0802,4.0796,0.0,0.0,0.0,0.0,0.0,0.0,0.0,4.0797,4.0797,4.0797,4.0803,4.0808,4.0792,4.0826,4.1498,0.0,0.0,4.4632,4.5789,4.6002,4.6046,4.6067,4.6112,4.6122,4.6102,4.6032,4.6018,4.6027,4.6002,4.6002,4.6002,4.6002,4.6002,4.6002,4.6002,4.6002,4.6002,4.6002,4.6002,4.6002,4.6002,4.6002,4.6002,4.6002,4.6002,4.6002,4.6002,4.6002,4.6002,4.6002,4.5315,4.4974,4.4974,4.499,4.4973,4.4998,4.5689,4.6002,4.6002,4.6002,4.6002,4.6002,4.6002,4.6005,4.5997,4.5997,4.5835,4.5611,4.565,4.5445,4.515,0.0,0.0,0.0,0.0,0.0,0.0,0.0,0.0,0.0,0.0,0.0,0.0,0.0,3.5645,0.0,0.0,3.6841,3.752,3.7827,3.8453,3.9075,3.9699,4.025,4.0588,4.0653,4.0614,4.0559,4.05,4.0468,4.0362,4.0205,4.0263,4.0272,4.0234,4.0007,4.0008,4.0177,3.995,4.0072,4.0438,4.0414,4.0564,4.0796,4.0803,4.0797,4.0797,0.0,0.0,0.0,0.0,0.0,0.0,0.0,0.0,4.0797,4.079,4.0808,4.0806,4.0801,0.0,0.0,4.4379,0.0,4.6005,4.5997,4.6002,4.6017,4.6031,4.6039,4.6046,4.6012,4.6002,4.6002,4.6002,4.6002,4.6002,4.6002,4.6002,4.6002,4.6002,4.6002,4.6002,4.6002,4.6002,4.6002,4.6002,4.6002,4.6002,4.6002,4.6002,4.6002,4.6002,4.5633,4.5433,4.5433,4.4533,4.407,4.407,4.4081,4.4083,4.4122,4.5378,4.5958,4.5958,4.5994,4.6,4.6,4.5997,4.5975,4.5949,4.5848,4.5676,4.549,4.5437,4.5211,4.4917,0.0,0.0,0.0,0.0,0.0,0.0,0.0,0.0,0.0,0.0,0.0,0.0,0.0,3.635,3.6923,0.0,0.0,0.0,3.9002,3.9109,3.9541,4.0372,4.059,4.0706,4.0726,4.0688,4.0655,4.0641,4.0655,4.0542,4.0327,4.0342,4.0377,4.0386,4.0109,4.0101,4.0292,4.012,4.0203,4.0496,4.0496,4.0631,4.0797,4.0797,4.0797,0.0,0.0,4.0797,4.0797,4.0797,0.0,0.0,0.0,0.0,4.0797,4.0802,4.0794,4.08,4.079,0.0,4.3823,4.5553,4.5989,0.0,4.6005,4.5997,4.6002,4.6002,4.6002,4.6002,4.6002,4.6002,4.6002,4.6002,4.6002,4.6002,4.6002,4.6002,4.6002,4.6002,4.6002,4.6002,4.6002,4.6002,4.6002,4.6002,4.6002,4.6002,4.6002,4.6002,4.5944,4.5808,4.5142,4.4734,4.4579,4.3659,4.3183,4.3183,4.3183,4.3244,4.3431,4.4827,4.555,4.5698,4.5741,4.585,4.5986,4.5953,4.5904,4.5835,4.5619,4.5435,4.5273,4.518,4.4922,4.4667,0.0,0.0,0.0,0.0,0.0,0.0,0.0,0.0,0.0,0.0,3.5967,3.6396,3.6345,3.7235,3.7842,3.7912,3.8562,3.9034,3.9156,0.0,0.0,4.0815,4.0746,4.0759,4.0873,4.0859,4.0823,4.0776,4.0823,4.0736,4.0466,4.053,4.05,4.0397,4.0356,4.0319,4.0281,4.0213,4.0304,4.0496,4.0496,4.0631,4.0797,4.0797,0.0,0.0,0.0,4.0797,4.0797,4.0797,4.0797,0.0,0.0,0.0,4.0797,4.0797,4.0796,4.08,4.08,0.0,4.3804,0.0,4.596,4.5997,0.0,0.0,4.6002,0.0,4.6002,4.6002,4.6002,4.6002,4.6002,4.6002,4.6002,4.6002,4.6002,4.6002,4.6002,4.6002,4.6002,4.6002,4.6002,4.6002,4.6002,4.6002,4.6002,4.6002,4.6002,4.6002,4.5691,4.4986,4.4851,4.4443,4.3685,4.2805,4.2363,4.2363,4.2302,4.2647,4.3318,4.355,4.4086,4.4858,4.4864,4.5271,4.5905,4.5728,4.5646,4.561,4.5342,4.5093,4.4891,4.4849,4.4701,4.4542,0.0,0.0,0.0,0.0,0.0,0.0,0.0,0.0,0.0,0.0,0.0,3.6857,3.6783,3.7415,3.7919,3.815,3.9354,4.0121,4.0145,4.0621,4.0907,4.0907,4.0835,4.0829,4.0907,4.0907,4.0888,4.0853,4.0888,4.0839,4.0725,4.0744,4.0681,4.0508,4.0394,4.0427,4.0571,4.0422,4.0481,4.0666,4.0666,4.072,4.0797,0.0,0.0,0.0,0.0,0.0,0.0,4.0797,4.0797,4.0797,4.0797,0.0,0.0,0.0,4.0803,4.1009,4.1995,4.2795,4.3756,0.0,4.5955,4.596,4.5994,4.5991,4.6002,4.6002,4.6002,4.6002,4.6002,4.6002,4.6002,4.6002,4.6002,4.6002,4.6002,4.6002,4.6002,4.6002,4.6002,4.6002,4.6002,4.6002,4.6002,4.6002,4.6002,4.5808,4.5356,4.5336,4.4948,4.4093,4.3607,4.3161,4.2772,4.1877,4.1413,4.1418,4.1388,4.1557,4.1893,4.1893,4.2647,4.3911,4.395,4.4175,4.4518,4.4776,4.4866,4.4878,4.4984,4.4969,4.4891,4.4707,4.4608,4.4605,0.0,0.0,0.0,0.0,0.0,0.0,0.0,0.0,0.0,0.0,0.0,3.7275,3.7191,0.0,0.0,0.0,4.0116,4.0941,4.0907,4.0907,4.0907,4.0907,4.0907,4.0907,4.0907,4.0907,4.0907,4.0907,4.0898,4.0903,4.0902,4.0877,4.0792,4.0648,4.0496,4.0571,4.079,4.0646,4.066,4.0797,4.0797,4.0797,0.0,0.0,0.0,0.0,0.0,0.0,0.0,0.0,4.0797,4.0797,4.0797,4.0797,0.0,0.0,0.0,4.1435,0.0,0.0,4.3916,4.5544,4.5893,4.5841,0.0,0.0,4.6002,0.0,4.6002,4.5997,4.5991,4.5997,4.5997,4.5991,4.5997,4.6002,4.6002,4.6002,4.6002,4.6002,4.6002,4.6002,4.6002,4.6002,4.6002,4.6002,4.5808,4.5433,4.4831,4.4598,4.4068,4.3209,4.2529,4.2083,4.1845,4.1139,4.0804,4.0803,4.0803,4.0803,4.0797,4.0797,4.1487,4.2686,4.2925,4.3111,4.3274,4.3928,4.4165,4.4173,4.4619,4.4838,4.4838,4.4587,4.4551,4.4632,0.0,0.0,0.0,0.0,0.0,0.0,0.0,0.0,0.0,0.0,0.0,3.7819,3.7674,3.9444,4.0595,4.0485,4.0849,4.1034,4.0912,4.0907,4.0907,4.0907,4.0907,0.0,4.0907,4.0907,4.0907,4.0907,4.0898,4.0902,4.0902,4.0823,4.0809,4.0788,4.0782,4.077,4.0797,4.079,4.079,4.0797,4.0797,0.0,0.0,0.0,0.0,0.0,0.0,0.0,0.0,0.0,0.0,4.0797,4.0797,4.0797,4.0797,0.0,0.0,0.0,0.0,4.372,0.0,4.5527,4.5718,4.5665,0.0,0.0,4.6002,4.6002,4.6002,4.5991,4.6003,4.6,4.5991,4.6003,4.6,4.6002,4.6002,4.6002,4.6002,4.6002,4.6002,4.6002,4.6002,4.6002,4.6002,4.6002,4.5297,4.4831,4.4792,4.4015,4.3165,4.231,4.2213,4.177,4.087,4.0826,4.079,4.0794,4.0794,4.0802,4.0797,4.0797,4.0855,4.0971,4.1745,4.2318,4.2805,4.3588,4.3817,4.3699,4.4288,4.451,4.451,4.4515,4.4496,4.4515,0.0,0.0,0.0,0.0,0.0,0.0,0.0,0.0,0.0,0.0,0.0,0.0,0.0,4.032,4.0834,4.0806,4.0906,4.0945,4.0907,4.0907,4.0907,4.0907,4.0907,4.0907,4.0907,4.0907,4.0907,4.0907,4.0898,4.0902,4.0902,4.0834,4.0806,4.0794,4.0794,4.0802,4.0797,4.0797,4.0797,4.0797,4.0797,0.0,0.0,0.0,0.0,0.0,0.0,0.0,0.0,0.0,0.0,4.0797,4.0797,4.0797,4.0893,4.1409,4.1684,0.0,0.0,0.0,0.0,4.5177,4.5505,4.5634,4.5747,4.5749,4.579,4.5953,4.5854,4.5769,4.5906,4.598,4.6008,4.5997,4.6003,4.6,4.5997,4.6002,4.6002,4.6002,4.6002,4.6002,4.6002,4.6002,4.5788,4.5258,4.4967,4.4307,4.3185,4.283,4.2262,4.1398,4.1359,4.1172,4.0798,4.0798,4.08,4.079,4.079,4.0803,4.0797,4.0797,4.066,4.0452,4.0862,4.1135,4.1332,4.1873,4.2348,4.2844,4.3476,4.4064,4.4501,4.4501,4.4501,4.4501,0.0,0.0,0.0,0.0,0.0,3.7398,3.7198,3.8127,3.8813,3.8775,0.0,0.0,0.0,0.0,4.0893,4.09,4.0906,4.0907,4.0907,4.0907,4.0907,4.0907,4.0907,4.0907,4.0907,4.0635,4.0631,4.0893,4.0602,4.0611,4.0872,4.0815,4.0806,4.0794,4.0794,4.0802,4.0797,4.0797,4.0797,4.0797,0.0,0.0,4.0797,0.0,0.0,0.0,0.0,0.0,0.0,0.0,0.0,0.0,4.0797,4.099,4.1313,4.1835,4.2266,0.0,4.3912,0.0,0.0,0.0,4.5285,4.5427,4.5623,0.0,4.5595,4.5937,4.5782,4.5661,4.586,4.5938,4.5962,4.5962,4.5974,4.5972,4.6,4.5975,4.598,4.5997,4.5991,4.6011,4.6002,4.5769,4.5375,4.4831,4.4268,0.0,4.2257,4.1927,4.149,4.0888,4.0876,4.0843,4.0802,4.0802,4.0796,4.0797,4.0797,4.0797,4.0797,4.0726,4.0561,4.0304,4.0304,4.026,4.0244,4.0851,4.1529,4.2277,4.3004,4.3782,4.4501,4.4501,4.4501,4.4501,0.0,0.0,3.7409,3.7962,3.8063,3.7512,3.5886,3.8408,4.0445,4.0321,0.0,0.0,0.0,0.0,0.0,4.0893,4.0893,4.0893,4.0907,4.0893,4.0893,4.0907,4.0907,4.0907,4.0907,4.0126,4.0112,4.0902,4.0053,4.0038,4.0807,4.0807,4.0809,4.0794,4.0794,4.0802,4.0797,4.0797,4.0797,4.0797,0.0,4.0797,4.0797,0.0,0.0,0.0,4.0797,4.0797,0.0,4.0797,0.0,0.0,4.0835,4.1371,4.2009,4.2067,4.3076,0.0,0.0,0.0,0.0,0.0,0.0,0.0,4.5477,4.5433,4.5425,4.5886,4.5775,4.5654,4.5854,4.59,4.59,4.59,4.5906,4.5917,4.5991,4.5929,4.5935,4.5991,4.5975,4.595,4.5958,4.5239,4.4753,4.4734,4.3161,4.2199,4.2149,4.1348,4.0876,4.08,4.079,4.0797,4.0797,4.0797,4.0797,4.0797,4.0797,4.0797,4.079,4.0591,4.0496,4.0473,4.007,3.9789,3.9689,4.065,4.1422,4.2079,4.2938,4.3764,4.4501,4.4501,4.4501,4.4501,0.0,3.7775,3.8201,3.9576,3.9805,3.9621,3.9067,3.9759,4.0344,0.0,0.0,0.0,0.0,4.0654,4.0909,4.0898,4.0949,4.0957,4.0893,4.0949,4.0957,4.0893,4.0908,4.0898,4.0898,4.0625,4.062,4.0902,4.0613,4.0607,4.0872,4.0812,4.0808,4.0794,4.0796,4.0803,4.0797,4.0797,4.0797,4.0797,4.0797,4.0797,0.0,0.0,0.0,0.0,0.0,4.0797,4.0797,0.0,4.0797,4.0893,0.0,0.0,4.2241,4.3518,4.3935,0.0,4.4757,0.0,0.0,0.0,0.0,0.0,4.5058,4.5014,4.5091,4.561,4.549,4.5418,4.5752,4.5821,4.5821,4.5821,4.5874,4.5906,4.5937,4.5955,4.5991,4.6008,4.5495,4.5137,4.5122,4.4365,4.3607,0.0,4.2466,4.1927,4.1295,4.0983,4.0821,4.08,4.0808,4.0796,4.0797,4.0797,4.0797,4.0797,4.0797,4.0797,4.079,4.0591,4.0425,4.0269,4.001,3.9789,3.962,3.9888,4.0804,4.2023,4.2267,4.3243,4.4501,4.4501,4.4501,4.4501,3.8989,3.9015,3.9298,4.0257,4.0415,4.0381,4.0304,4.0307,4.029,0.0,0.0,0.0,0.0,0.0,4.0906,4.0903,4.0939,4.0924,4.0859,4.0891,4.0896,4.0859,4.0858,4.0872,4.0902,4.0504,4.0479,4.0867,4.0477,4.0486,4.0854,4.0814,4.0796,4.0796,4.0803,4.0797,4.0797,4.0797,0.0,0.0,4.0797,0.0,0.0,4.0797,4.0739,0.0,0.0,0.0,4.0666,4.0666,4.0726,0.0,0.0,0.0,0.0,0.0,0.0,0.0,0.0,0.0,0.0,0.0,0.0,0.0,4.4969,4.4919,4.4988,4.5594,4.5518,4.5418,4.5737,4.5821,4.5821,4.5807,4.5544,4.5473,4.5848,4.5621,4.5421,4.545,4.473,4.4222,4.4213,4.3447,4.2753,4.2233,4.1854,4.1421,4.089,4.0823,4.08,4.0802,4.0802,4.079,4.0797,4.0797,4.0797,4.0797,4.0797,4.0765,4.0666,4.0465,4.0269,4.006,3.9859,3.9715,3.9589,3.9589,4.0347,4.1516,4.1873,4.2811,4.4045,4.4369,4.4501,4.4501,0.0,4.0444,4.0389,4.0319,4.0295,4.0307,4.0298,4.03,4.0301,0.0,4.0272,0.0,0.0,0.0,0.0,0.0,4.0903,4.0878,4.0793,4.0814,4.0814,4.0812,4.0807,4.0837,4.0897,4.0121,4.0072,4.0801,4.0086,0.0,0.0,0.0,0.0,4.0797,4.0797,4.0797,4.0797,4.0797,0.0,4.0797,4.0797,4.0797,0.0,0.0,4.0653,4.0496,4.0473,4.0465,4.0465,4.0465,4.0583,0.0,0.0,0.0,0.0,0.0,4.4925,0.0,0.0,0.0,0.0,0.0,4.4501,0.0,4.5036,4.4935,4.4947,4.5642,4.5594,4.549,4.5688,4.5786,4.578,4.565,4.5033,4.4847,4.5635,4.5015,4.4492,4.4562,4.3792,4.3266,4.3275,4.2524,4.2049,4.2049,4.1339,4.0851,4.0794,4.0809,4.0797,4.0797,4.0797,4.0797,4.0797,4.0797,4.0797,4.0797,4.0797,4.0687,4.0489,4.0295,4.009,3.9892,3.9691,3.9589,3.9589,3.9589,4.0078,4.0891,4.1685,4.2543,4.3388,4.4214,4.4501,4.4501,4.05,4.0449,4.0389,4.0319,4.0295,4.0289,4.031,4.0291,4.0301,4.0301,4.0148,0.0,0.0,0.0,0.0,0.0,4.0926,4.0924,4.0804,4.0902,4.094,4.0883,4.0837,4.0812,4.0818,4.0654,4.0637,4.0806,0.0,0.0,0.0,0.0,0.0,0.0,4.0797,4.0797,4.0797,4.0797,0.0,4.0797,4.0797,4.0797,4.0784,4.0631,4.0527,4.0481,4.0313,4.026,4.026,4.026,4.0286,4.0607,0.0,0.0,0.0,4.4825,0.0,0.0,0.0,0.0,0.0,0.0,0.0,0.0,4.4608,4.46,4.4648,4.4947,4.4969,4.5022,4.5274,4.5342,4.517,4.46,4.4437,4.448,4.4806,4.4144,4.3634,4.3656,4.2887,4.2374,4.244,4.1669,4.1135,4.108,4.0912,4.082,4.0803,4.0797,4.0797,4.0797,4.0797,4.0797,4.0797,4.0797,4.0797,4.0797,4.0797,4.0687,4.0489,4.0295,4.009,3.9892,3.9691,3.9589,3.9589,3.9589,4.0078,4.0891,4.1685,4.2543,4.3388,4.4214,4.4501,4.4501,4.0455,4.04,4.0347,4.0307,4.0299,4.03,4.031,4.0301,4.0282,4.0215,4.0058,0.0,0.0,0.0,0.0,0.0,0.0,0.0,0.0,4.0854,4.0888,4.0848,4.0812,4.0812,4.0804,4.0806,4.0806,4.0804,0.0,0.0,0.0,0.0,0.0,0.0,4.0797,4.0797,4.0797,4.0797,4.0797,4.0797,4.0797,0.0,4.0646,4.0546,4.0392,4.0196,4.009,4.005,4.005,4.005,4.0186,0.0,4.1686,4.2412,4.309,0.0,4.4756,4.4788,0.0,0.0,0.0,4.4501,0.0,0.0,0.0,4.4642,4.472,4.495,4.4646,4.4386,4.4522,4.4248,4.3905,4.3645,4.3296,4.3115,4.3272,4.2983,4.2743,4.2755,4.1986,4.1449,4.1505,4.1108,4.0832,4.0804,4.0806,4.0802,4.0797,4.0797,4.0797,4.0797,4.0797,4.0797,4.0797,4.0797,4.0797,4.0797,4.0797,4.0646,4.0347,4.0251,4.003,3.9743,3.965,3.9589,3.9589,3.9589,3.9833,4.0309,4.1516,4.2267,4.2793,4.4031,4.4501,4.4501,4.0327,4.0323,4.0323,4.03,4.0301,4.0301,4.0301,4.0301,4.0244,4.0077,3.9973,0.0,0.0,0.0,0.0,0.0,0.0,0.0,0.0,4.0821,4.0802,4.0803,4.0803,4.0796,4.0794,4.0794,4.0806,4.079,0.0,0.0,0.0,0.0,0.0,0.0,0.0,0.0,4.0797,0.0,0.0,4.0739,0.0,4.0666,4.0554,4.0473,4.0242,3.9956,3.987,3.9837,3.9848,3.9892,4.012,4.0503,4.1184,4.2086,0.0,0.0,0.0,0.0,0.0,0.0,0.0,0.0,0.0,4.4551,0.0,0.0,0.0,4.4817,0.0,0.0,0.0,0.0,0.0,0.0,0.0,0.0,0.0,4.179,0.0,4.1859,4.1226,4.0806,4.0806,4.0804,4.0809,4.08,4.0794,4.0802,4.0797,4.0797,4.0797,4.0797,4.0797,4.0797,4.0797,4.0797,4.0797,4.0797,4.0771,4.0554,4.0205,4.0167,3.9937,3.9589,3.9589,3.9589,3.9589,3.9589,3.9589,3.9739,4.121,4.1854,4.2173,4.3712,4.4369,4.4501,3.9972,4.0243,4.037,4.0307,4.0298,4.0299,4.0291,4.0301,4.0215,0.0,0.0,0.0,0.0,0.0,0.0,0.0,0.0,0.0,4.0803,0.0,4.0858,4.0794,4.0794,4.0794,4.0794,4.0794,4.0808,4.0809,4.0803,0.0,0.0,0.0,0.0,0.0,4.0797,0.0,0.0,0.0,4.0706,0.0,4.0527,4.0631,0.0,4.0364,4.0214,4.012,3.9754,3.9638,3.9656,0.0,3.9935,4.0275,0.0,4.2441,4.269,4.4241,0.0,0.0,0.0,0.0,0.0,0.0,4.4501,0.0,0.0,0.0,4.4344,4.3651,0.0,0.0,0.0,0.0,0.0,0.0,0.0,0.0,4.0735,4.0836,4.0949,4.0949,4.0862,4.0801,4.0801,4.0798,4.08,4.0794,4.0796,4.0797,4.0797,4.0797,4.0797,4.0797,4.0797,4.0797,4.0797,4.0797,4.0797,4.0797,4.0631,4.0425,4.0196,4.001,3.9823,3.9589,3.9589,3.9589,3.9589,3.9589,3.9589,3.9683,4.0591,4.1366,4.2117,4.3088,4.3895,4.4501,3.9838,4.0022,4.0139,4.0291,4.03,4.0272,4.0205,4.0057,4.0092,4.0492,0.0,0.0,0.0,0.0,0.0,0.0,0.0,4.1203,0.0,0.0,0.0,4.0796,4.0796,4.0796,4.0796,4.0796,4.0796,4.0802,4.0803,4.0803,0.0,0.0,0.0,0.0,4.0797,0.0,4.0639,0.0,4.0673,0.0,0.0,4.0554,0.0,4.0186,3.9948,3.9826,3.9674,3.9589,3.9614,0.0,3.9811,0.0,0.0,0.0,0.0,4.2995,0.0,0.0,0.0,0.0,0.0,0.0,0.0,0.0,4.4501,0.0,4.3707,0.0,0.0,0.0,0.0,0.0,0.0,0.0,4.0654,0.0,0.0,0.0,4.0798,0.0,0.0,0.0,4.0794,4.0794,4.0808,4.0796,4.0803,4.0797,4.0797,4.0797,4.0797,4.0797,4.0797,4.0797,4.0797,4.0797,4.0739,4.0612,4.0546,4.033,4.002,3.9946,3.9789,3.9589,3.9589,3.9589,3.9589,3.9589,3.9589,3.9627,3.9965,4.0891,4.2117,4.2975,4.382,4.4501,4.0256,4.0049,3.9846,4.0057,4.0288,4.0545,4.0753,4.053,4.0587,4.1288,0.0,0.0,4.215,4.2329,0.0,0.0,4.2066,4.1943,0.0,0.0,4.1371,4.1145,4.1126,0.0,4.0797,4.0797,4.0803,4.0808,4.0803,0.0,0.0,0.0,0.0,0.0,0.0,4.0699,4.0504,0.0,4.0569,4.033,4.033,4.0304,4.0233,3.9989,3.9777,3.9589,3.9589,3.9589,3.9602,3.9656,3.9777,0.0,3.9991,4.1062,4.2316,0.0,0.0,0.0,4.4501,0.0,0.0,0.0,0.0,0.0,0.0,0.0,0.0,0.0,0.0,0.0,0.0,0.0,0.0,0.0,0.0,4.0317,0.0,4.0776,0.0,0.0,0.0,0.0,0.0,4.0802,4.0808,4.0797,4.0797,4.0797,4.0797,4.0797,4.0797,4.0797,4.0797,4.0797,4.0797,4.0797,4.0706,4.0496,4.0449,4.0242,3.9903,3.9837,3.975,3.9589,3.9589,3.9589,3.9589,3.9589,3.9589,3.9589,3.9589,4.044,4.176,4.2637,4.3613,4.4501,4.1401,4.0408,3.9526,3.9508,4.0294,4.126,4.2357,4.2174,4.2027,4.2321,4.2245,0.0,0.0,0.0,0.0,0.0,0.0,4.324,4.3227,0.0,4.2841,0.0,0.0,4.1603,0.0,4.0797,4.0797,4.0797,4.0797,0.0,0.0,0.0,0.0,0.0,4.0797,4.0699,4.0496,4.0504,4.0286,3.9924,3.9924,3.9811,3.965,0.0,3.9777,3.9589,3.9589,0.0,0.0,3.9815,3.9892,4.0035,0.0,0.0,0.0,0.0,0.0,0.0,0.0,0.0,0.0,4.4501,0.0,0.0,0.0,0.0,4.305,0.0,0.0,0.0,0.0,0.0,0.0,0.0,0.0,0.0,0.0,0.0,0.0,0.0,0.0,0.0,0.0,4.0794,4.0808,0.0,4.0797,4.0797,4.0797,4.0797,4.0797,4.0797,4.0797,4.0797,4.0797,4.0797,4.0706,4.0496,4.0304,4.01,3.9892,3.9703,3.962,3.9589,3.9589,3.9589,3.9589,3.9589,3.9589,3.9589,3.9589,4.0115,4.0947,4.1742,4.3074,4.4501,4.1222,4.0871,4.0674,4.1025,4.1342,4.1707,4.214,4.1935,4.2047,4.2874,4.2955,0.0,0.0,4.3811,4.3742,0.0,0.0,4.3388,4.3123,4.31,0.0,0.0,0.0,4.2725,0.0,0.0,4.2164,4.1583,4.1583,0.0,0.0,0.0,0.0,0.0,0.0,4.0605,0.0,0.0,0.0,0.0,0.0,3.9777,3.962,0.0,3.9674,3.9589,3.9589,3.9589,3.9602,3.9679,3.9703,3.976,4.0024,4.1029,4.214,4.2369,4.3412,4.4501,0.0,0.0,4.4501,4.4501,0.0,0.0,0.0,0.0,0.0,0.0,0.0,0.0,0.0,0.0,0.0,0.0,0.0,0.0,0.0,0.0,0.0,0.0,0.0,0.0,0.0,0.0,0.0,0.0,4.0797,0.0,4.0797,4.0797,4.0797,4.0797,4.0797,4.0797,4.0797,4.0666,4.0496,4.0304,4.01,3.9903,3.9703,3.9626,3.9589,3.9589,3.9589,3.9589,3.9589,3.9589,3.9589,3.9589,3.9589,4.0096,4.091,4.1704,4.2718,4.3782,4.1838,4.1838,4.1769,4.1575,4.1739,4.208,4.26,4.2493,4.2649,4.3545,4.3694,0.0,4.4444,0.0,4.4448,0.0,4.4101,4.4096,4.3897,4.3815,0.0,4.3755,4.3675,4.352,0.0,0.0,0.0,0.0,0.0,4.2048,0.0,0.0,0.0,0.0,0.0,4.0576,4.0214,4.0339,4.0167,0.0,0.0,3.9715,0.0,0.0,3.9589,3.9589,3.9589,3.9589,3.9589,3.9589,3.9589,3.9589,3.9589,4.0703,4.2004,4.2004,4.3187,4.4501,4.4501,4.4501,0.0,4.4139,4.4083,0.0,4.3675,0.0,4.1573,0.0,0.0,0.0,0.0,0.0,0.0,0.0,0.0,0.0,0.0,4.0797,0.0,0.0,0.0,0.0,0.0,0.0,0.0,0.0,0.0,0.0,0.0,4.0797,4.0797,4.0797,4.0797,4.0797,4.0797,4.0666,4.0473,4.0205,4.007,3.9859,3.9589,3.9589,3.9589,3.9589,3.9589,3.9589,3.9589,3.9589,3.9589,3.9589,3.9589,3.9927,4.0497,4.1591,4.2718,4.3801,4.3214,4.3196,4.274,4.1275,4.1538,4.2409,4.3675,4.3775,4.3823,4.425,4.4388,4.4487,4.4501,4.4681,4.4795,4.4795,4.5019,4.5244,4.5454,4.5284,0.0,0.0,4.4399,4.4005,4.3427,0.0,0.0,0.0,0.0,0.0,0.0,0.0,0.0,0.0,4.0855,0.0,4.0214,4.0205,3.9958,3.9589,3.9589,3.9589,3.9589,3.9589,3.9589,3.9589,3.9589,3.9589,3.9589,3.9589,3.9589,3.9608,3.9646,4.0741,4.2004,4.2042,4.3224,4.4501,4.4501,4.4463,4.4257,4.3482,4.3257,0.0,0.0,0.0,4.0797,0.0,0.0,0.0,0.0,0.0,0.0,0.0,0.0,0.0,0.0,0.0,0.0,0.0,0.0,0.0,0.0,0.0,0.0,0.0,0.0,0.0,0.0,4.0797,4.0797,4.0797,4.0797,4.0797,4.0797,4.0784,4.0576,4.0205,4.0186,3.9958,3.9589,3.9589,3.9589,3.9589,3.9589,3.9589,3.9589,3.9589,3.9589,3.9589,3.9589,3.9627,3.9852,4.1423,4.3037,4.4444,4.3323,4.3269,4.3069,4.2614,4.2723,4.3031,4.3526,4.3477,4.3577,4.4091,4.4185,4.4277,4.4487,4.4551,4.4573,4.4573,4.4653,0.0,0.0,0.0,0.0,4.5045,4.5109,4.5092,4.4941,4.5085,4.4871,4.4265,0.0,0.0,4.2976,0.0,0.0,0.0,0.0,4.1219,4.0406,4.0269,3.9958,3.9589,3.9589,3.9589,3.9589,0.0,3.9589,3.9589,3.9589,3.9589,3.9589,3.9589,3.9589,3.9702,4.0303,4.1191,4.2136,4.2787,4.3688,4.4501,4.4501,4.4064,4.3557,4.3351,4.2806,4.2267,0.0,0.0,0.0,0.0,0.0,0.0,0.0,0.0,0.0,0.0,0.0,0.0,0.0,0.0,0.0,4.0797,0.0,0.0,0.0,0.0,0.0,0.0,0.0,0.0,4.0797,0.0,4.0797,4.0797,4.0797,4.0797,4.0797,4.0496,4.0304,4.0205,3.9903,3.9703,3.9589,3.9589,3.9589,3.9589,3.9589,3.9589,3.9589,3.9589,3.9589,3.9589,3.9589,3.9965,4.0609,4.1629,4.268,4.3688,4.2863,4.3031,4.3142,4.303,4.3087,4.3178,4.3232,4.3374,4.3579,4.3889,4.403,0.0,4.4468,4.4397,4.4364,4.4501,4.4501,0.0,4.4795,0.0,0.0,4.5191,4.5194,4.5255,4.5362,4.5472,0.0,4.5001,0.0,0.0,4.3866,0.0,0.0,0.0,0.0,4.1645,4.0981,4.0329,3.9892,3.9589,3.9589,3.9589,0.0,3.9589,3.9589,3.9589,3.9589,3.9589,3.9589,3.9589,3.9589,3.9739,4.0553,4.136,4.2173,4.3031,4.3876,4.4501,4.4501,4.3914,4.32,4.2825,4.2098,4.1366,4.1041,4.0591,4.0272,0.0,3.9927,3.9589,0.0,0.0,0.0,0.0,0.0,0.0,0.0,0.0,0.0,0.0,4.0797,0.0,0.0,0.0,0.0,0.0,0.0,0.0,0.0,0.0,4.0797,4.0797,4.072,4.0713,4.0797,4.0389,4.0205,4.0205,3.9881,3.9679,3.9589,3.9589,3.9589,3.9589,3.9589,3.9589,3.9589,3.9589,3.9589,3.9589,3.9589,3.989,4.0365,4.1191,4.2262,4.3426,4.2279,4.2728,4.3049,4.2919,4.2994,4.303,4.2919,4.3303,4.3612,4.3646,0.0,4.4109,4.4368,4.4185,4.4155,4.4426,4.444,4.4546,4.4745,4.4595,4.4674,4.5094,4.4915,4.4896,4.5129,4.5191,4.5294,0.0,0.0,0.0,0.0,0.0,0.0,0.0,0.0,0.0,0.0,4.0393,3.9789,3.9589,3.9589,3.9589,3.9589,3.9589,3.9589,3.9589,3.9589,3.9589,3.9589,3.9589,3.9589,3.9758,4.0666,4.1441,4.2192,4.3163,4.3951,4.4482,4.4369,4.3745,4.2919,4.2061,4.1235,4.0459,3.9758,3.9589,3.9589,3.9589,3.9589,3.9589,3.9589,0.0,0.0,0.0,0.0,0.0,0.0,0.0,0.0,0.0,0.0,0.0,0.0,0.0,0.0,0.0,0.0,0.0,0.0,0.0,4.0797,4.0797,4.0598,4.0583,4.0765,4.0356,4.0167,4.0167,3.9967,3.9766,3.9589,3.9589,3.9589,3.9589,3.9589,3.9589,3.9589,3.9589,3.9589,3.9589,3.9589,3.9589,3.9702,4.0497,4.1792,4.3257,4.2787,4.2956,4.3049,4.2919,4.2919,4.2938,4.2901,4.2976,4.3124,4.3338,4.3425,4.3545,4.3809,4.3793,4.3873,4.4155,4.417,0.0,0.0,0.0,0.0,4.4613,4.4739,4.4812,4.4861,4.5085,4.5294,0.0,0.0,0.0,0.0,0.0,0.0,0.0,0.0,0.0,4.1157,4.0276,0.0,3.9589,3.9589,3.9589,3.9589,3.9589,3.9589,3.9589,3.9589,3.9589,3.9589,3.9589,3.9589,3.9871,4.1329,4.1892,4.2305,4.3844,4.4388,4.435,4.3688,4.2881,4.2023,4.121,4.0403,3.9777,3.9627,3.9589,3.9589,3.9589,3.9589,3.9589,3.9589,0.0,0.0,0.0,0.0,0.0,0.0,0.0,0.0,0.0,0.0,4.0624,0.0,0.0,0.0,0.0,0.0,4.0802,4.0797,0.0,4.0797,0.0,4.0598,4.0531,0.0,0.0,3.9948,3.9937,3.9743,3.9638,3.9589,3.9589,3.9589,3.9589,3.9589,3.9589,3.9589,3.9589,3.9589,3.9589,3.9589,3.9589,3.9702,4.0497,4.1417,4.2342,4.402,4.4207,4.4099,4.3608,4.3516,4.3371,4.2955,4.2901,4.2995,4.3267,4.3303,4.3408,4.3662,4.3579,4.3595,4.3873,4.4014,4.4155,4.4292,4.4426,4.4501,4.4501,4.4581,4.4642,4.4642,4.477,4.4996,4.5343,0.0,0.0,0.0,0.0,0.0,0.0,0.0,4.3359,0.0,0.0,4.0797,4.0215,4.0215,3.9965,3.9589,3.9589,3.9589,3.9589,3.9589,3.9589,3.9589,3.9589,3.9589,3.989,4.1479,4.2004,4.2323,4.4013,4.4214,4.3782,4.3407,4.2355,4.1285,4.091,4.0209,3.9589,3.9589,3.9589,3.9589,3.9589,3.9589,3.9589,3.9589,3.9589,0.0,0.0,0.0,0.0,0.0,0.0,4.0242,0.0,0.0,0.0,0.0,0.0,0.0,0.0,0.0,4.0809,4.0797,0.0,4.0797,0.0,0.0,0.0,4.0496,0.0,3.98,3.9903,3.9691,3.9589,3.9589,3.9589,3.9589,3.9589,3.9589,3.9589,3.9589,3.9589,3.9589,3.9589,3.9589,3.9589,3.9646,4.004,4.0947,4.2117,4.5104,4.5291,4.5091,4.4458,4.4204,4.3878,4.3244,4.3009,4.2976,4.3178,4.3214,4.3303,4.3511,4.3338,4.332,4.3595,4.3857,4.403,4.4109,4.435,4.4501,4.4501,4.4501,4.4501,4.4501,4.4501,4.47,0.0,0.0,0.0,0.0,0.0,0.0,0.0,0.0,0.0,0.0,4.2401,4.1775,4.106,4.106,4.0572,3.9871,3.9871,3.9758,3.9589,3.9589,3.9702,3.9871,3.9871,3.9739,3.9852,4.1304,4.1854,4.2305,4.3787,4.3801,4.3257,4.3069,4.1942,4.076,4.0591,4.0078,3.9589,3.9589,3.9589,3.9589,3.9589,3.9589,3.9589,3.9589,3.9589,0.0,0.0,0.0,0.0,0.0,0.0,0.0,0.0,0.0,0.0,4.0205,0.0,0.0,0.0,0.0,4.0733,4.0733,4.0733,4.0733,4.0733,0.0,4.0214,4.0364,0.0,3.9679,3.9826,3.9686,3.9589,3.9589,3.9589,3.9589,3.9589,3.9589,3.9589,3.9589,3.9589,3.9589,3.9589,3.9589,3.9589,3.9589,3.9589,4.0497,4.1873,4.5291,4.5291,4.5273,4.52,4.4584,4.4059,4.3987,4.3371,4.2901,4.292,4.2939,4.2939,4.2976,4.2957,4.305,4.332,4.3579,4.3841,4.4075,4.435,4.4501,4.4501,4.4501,4.4501,4.4501,4.4501,4.4608,0.0,0.0,4.5047,0.0,0.0,0.0,0.0,0.0,4.3672,4.3186,4.2376,4.1974,4.1892,4.1892,4.1404,4.0685,4.0685,4.0228,3.9589,3.9589,4.0078,4.0685,4.0685,4.0209,3.9758,4.0628,4.1404,4.2192,4.3125,4.3351,4.3125,4.2342,4.146,4.0609,3.989,3.9664,3.9589,3.9589,3.9589,3.9589,3.9589,3.9589,3.9589,3.9589,3.9589,3.962,0.0,0.0,0.0,0.0,0.0,3.9708,3.9914,0.0,0.0,4.0186,4.0205,0.0,0.0,4.0433,4.0539,4.0539,4.0539,4.0539,4.0539,4.0139,3.9946,3.9967,3.9727,3.9602,3.9626,3.9602,3.9589,3.9589,3.9589,3.9589,3.9589,3.9589,3.9589,3.9589,3.9589,3.9589,3.9589,3.9589,3.9589,3.9589,3.9589,4.0171,4.1022,4.5698,4.5787,4.5735,4.5574,4.5275,4.5,4.4834,4.4548,4.4331,4.4331,4.3498,4.2901,4.2901,4.2901,4.3013,4.3285,4.3545,4.3809,4.4075,4.435,4.4501,4.4501,4.4501,4.4501,4.4501,4.4501,4.4595,0.0,0.0,0.0,0.0,0.0,0.0,0.0,4.4616,4.4343,4.4171,4.37,4.3224,4.2787,4.2787,4.228,4.1516,4.1516,4.1323,4.1041,4.1041,4.1248,4.1516,4.1516,4.131,4.1191,4.2036,4.2524,4.2938,4.3782,4.3688,4.3106,4.223,4.1404,4.0609,3.9796,3.9589,3.9589,3.9589,3.9589,3.9589,3.9589,3.9589,3.9589,3.9589,3.9589,3.9589,3.9589,0.0,0.0,0.0,0.0,0.0,3.9715,0.0,3.9743,0.0,3.9837,0.0,0.0,0.0,4.0321,4.0321,4.0321,4.0321,4.0321,0.0,3.9903,3.9903,3.9703,3.9589,3.9589,3.9589,3.9589,3.9589,3.9589,3.9589,3.9589,3.9589,3.9589,3.9589,3.9589,3.9589,3.9589,3.9589,3.9589,3.9589,3.9589,4.0115,4.0929,4.5919,4.6074,4.6086,4.6046,4.5851,4.5684,4.5665,4.5454,4.5291,4.5291,4.4313,4.3516,4.3262,4.3244,4.323,4.3196,4.3494,4.3777,4.3968,4.4306,4.4501,4.4501,4.4501,0.0,4.4501,4.4501,4.4573,4.4714,4.4573,0.0,0.0,0.0,0.0,4.4992,4.4868,4.477,4.4701,4.4621,4.4261,4.3747,4.3747,4.3239,4.2473,4.2401,4.2211,4.2004,4.2004,4.2155,4.238,4.238,4.253,4.2755,4.2881,4.3088,4.3407,4.3989,4.3745,4.3163,4.2549,4.1779,4.0966,4.0153,3.9946,3.989,3.9646,3.9589,3.9589,3.9589,3.9589,3.9589,3.9589,3.9589,3.9589,3.9589,0.0,0.0,0.0,3.9589,0.0,3.9589,3.9589,3.9589,3.9589,3.9589,0.0,0.0,0.0,4.005,4.011,4.012,4.012,0.0,0.0,0.0,3.9823,3.9668,3.9589,3.9589,3.9589,3.9589,3.9589,3.9589,3.9589,3.9589,3.9589,3.9589,3.9589,3.9589,3.9589,3.9589,3.9589,3.9589,3.9589,3.9589,3.9965,4.0591,4.59,4.6,4.6286,4.6799,4.6226,4.5863,4.6403,4.5816,4.5291,4.5291,4.5273,4.4965,4.4168,4.4077,4.3769,4.2973,4.339,4.3695,4.3695,4.4185,4.4501,0.0,0.0,4.4501,4.4501,4.4501,4.4501,4.4496,0.0,0.0,4.48,4.5074,4.4946,4.4528,4.4714,4.4688,4.451,4.4714,4.4788,4.4769,4.4769,4.4308,4.3557,4.3358,4.275,4.2004,4.2004,4.2549,4.3275,4.3275,4.382,4.4182,4.253,4.2618,4.3294,4.3313,4.3313,4.3294,4.3294,4.2656,4.1798,4.0985,4.0797,4.0572,3.9777,3.9589,3.9589,3.9589,3.9589,3.9589,3.9589,3.9589,3.9589,3.9589,0.0,0.0,0.0,3.9589,0.0,3.9589,3.9589,3.9589,3.9589,3.9589,0.0,0.0,0.0,3.9691,3.9892,0.0,0.0,3.9903,3.9715,0.0,3.9602,3.9589,3.9589,3.9589,3.9589,3.9589,3.9589,3.9589,3.9589,3.9589,3.9589,3.9589,3.9589,3.9589,3.9589,3.9589,3.9589,3.9589,3.9589,3.9589,3.9608,3.9833,4.4998,4.5311,4.5724,4.6262,4.6447,4.6708,4.7235,4.7102,4.6939,4.6939,4.6939,4.6631,4.5816,4.5254,4.488,0.0,4.5129,4.5183,0.0,4.5114,4.5078,4.4519,4.4501,4.4501,4.4501,4.4501,4.4501,4.4501,0.0,0.0,4.4595,4.4687,4.464,4.4501,4.456,4.456,4.451,4.4714,4.4788,4.4831,4.5007,4.4802,4.4409,4.4342,4.4075,4.3694,4.3694,4.3881,4.412,4.412,4.4275,4.4407,4.3862,4.3881,4.412,4.412,4.412,4.4008,4.3444,4.3106,4.2675,4.1835,4.161,4.1404,4.0591,3.9984,3.9589,3.9589,3.9589,3.9589,3.9589,3.9589,3.9589,3.9589,3.9589,0.0,3.9589,0.0,3.9589,3.9589,3.9589,3.9589,3.9589,3.9589,0.0,0.0,0.0,0.0,0.0,0.0,0.0,0.0,3.9638,0.0,3.9589,3.9589,3.9589,3.9589,3.9589,3.9589,3.9589,3.9589,3.9589,3.9589,3.9589,3.9589,3.9589,3.9589,3.9589,3.9589,3.9589,3.9589,3.9589,3.9589,3.9589,3.9833,4.44,4.4899,4.5485,4.6017,4.6525,4.7084,4.7615,4.7717,4.7717,4.7717,4.7717,4.7518,4.7011,4.6504,0.0,4.56,4.5792,4.5857,4.5611,4.5845,4.5821,4.5458,4.512,4.4946,4.4946,4.4651,4.4501,4.4501,4.4501,4.4501,4.4501,4.4501,4.4501,4.4501,4.4501,4.4501,4.451,4.4714,4.4788,4.4812,4.4985,4.5019,4.4938,4.4764,4.4655,4.4595,4.4524,4.4501,4.4501,4.4501,4.4501,4.4501,4.4501,4.4501,4.4501,4.4501,4.4501,4.4388,4.3895,4.3807,4.3634,4.272,4.2605,4.2401,4.1191,4.0589,4.0148,3.9695,3.9674,3.9691,3.9614,3.9589,3.9589,3.9589,3.9589,3.9589,3.9589,3.9589,3.9589,3.9589,3.9589,3.9589,3.9589,3.9589,3.9589,0.0,0.0,0.0,0.0,0.0,3.9589,3.9589,3.9589,3.9589,3.9589,3.9589,3.9589,3.9589,3.9589,3.9589,3.9589,3.9589,3.9589,3.9589,3.9589,3.9589,3.9589,3.9589,3.9589,3.9589,3.9589,3.9589,3.9589,3.9589,3.9796,4.0247,4.4126,4.4773,4.5485,4.6024,4.659,4.7107,4.7615,4.7717,4.7717,4.7717,4.7717,4.7717,4.7717,4.7717,4.7102,4.5599,0.0,0.0,4.617,4.6442,4.6716,4.6997,4.6223,4.5791,4.5791,4.5059,4.4632,4.4576,4.4576,4.4538,4.4501,4.4501,4.4501,4.4501,4.4501,4.4501,4.451,4.4714,4.4788,4.48,4.4812,4.4973,4.5107,4.4687,4.4635,4.4758,4.456,4.4501,4.4501,4.4501,4.4501,4.4501,4.4501,4.4501,4.4501,4.451,4.4496,4.4515,4.4537,4.4668,4.4568,4.3659,4.3672,4.3432,4.1686,4.1336,4.1062,3.9929,3.9792,3.9815,3.9638,3.9589,3.9589,3.9589,3.9589,3.9589,3.9589,3.9589,3.9589,3.9589,0.0,0.0,3.9589,3.9589,3.9589,0.0,0.0,0.0,0.0,0.0,3.9589,3.9589,3.9589,3.9589,3.9589,3.9589,3.9589,3.9589,3.9589,3.9589,3.9589,3.9589,3.9589,3.9589,3.9589,3.9589,3.9589,3.9589,3.9589,3.9589,3.9589,3.9589,3.9589,3.9589,4.0115,4.0929,0.0,0.0,4.5648,4.631,4.6863,4.732,4.7657,4.7717,4.7717,4.7717,4.7717,4.7717,4.7717,4.7717,4.7554,4.7174,4.7387,4.7387,4.7038,4.7315,4.7351,4.7016,4.6805,4.6692,4.6692,4.6523,4.6092,4.5416,4.5416,4.5097,4.4501,4.4501,4.4501,4.4501,4.4501,4.4501,4.451,4.4714,4.4788,4.4812,4.503,4.5019,4.4872,4.477,4.4668,4.456,4.451,4.4501,4.4501,4.4501,4.4501,4.4501,4.4501,4.4501,4.4524,4.4675,4.4621,4.4592,4.4934,4.4915,4.4787,4.4756,4.4317,4.3738,4.3137,4.2063,4.1098,4.0787,4.0158,3.9662,3.9602,3.9589,3.9589,3.9589,3.9589,3.9589,3.9589,3.9589,3.9589,0.0,3.9589,3.9589,3.9589,3.9589,3.9589,0.0,0.0,3.9589,3.9589,3.9589,3.9589,3.9589,3.9589,3.9589,3.9589,3.9589,3.9589,3.9589,3.9589,3.9589,3.9589,3.9589,3.9589,3.9589,3.9589,3.9589,3.9589,3.9589,3.9589,3.9589,3.9589,3.9589,3.9589,3.9589,4.0115,4.0929,4.453,4.5081,4.5691,4.6255,4.6806,4.7232,4.749,4.7511,4.7554,4.7678,4.7717,4.7717,4.7717,4.7717,4.7717,4.7717,4.7847,4.7851,4.7683,4.7976,4.8103,4.7919,4.7684,4.7556,4.7556,4.7199,4.6768,4.6298,4.6298,4.6073,4.5627,4.5627,4.5627,4.5627,4.5627,4.5627,4.5641,4.5771,4.5806,4.5819,4.5956,4.5975,4.5893,4.5387,4.5221,4.5162,4.4688,4.4501,4.4501,4.4501,4.4501,4.4501,4.4501,4.4501,4.4537,4.4733,4.4726,4.4694,4.495,4.5066,4.5184,4.5399,4.4978,4.4369,4.3841,4.3094,4.2207,4.1177,4.0611,4.0155,3.9689,3.9589,3.9589,3.9589,3.9589,3.9589,3.9589,3.9589,3.9589,3.9589,3.9589,3.9589,3.9589,3.9589,3.9589,3.9589,3.9589,0.0,3.9589,3.9589,3.9589,3.9589,3.9589,3.9589,3.9589,3.9589,3.9589,3.9589,3.9589,3.9589,3.9589,3.9589,3.9589,3.9589,3.9589,3.9589,3.9589,3.9589,3.9589,3.9589,3.9589,3.9589,3.9646,4.0021,4.0666,4.146,4.4378,4.4991,4.558,4.607,4.659,4.7002,4.7232,4.728,4.7385,4.7615,4.7678,4.7717,4.7717,4.7717,4.7717,4.7717,4.7717,4.7806,4.8094,4.8364,4.8678,4.8974,4.8568,4.8352,4.8401,4.7725,4.7312,4.7181,4.7181,4.7124,4.7012,4.7012,4.7012,4.7012,4.7012,4.7012,4.7012,4.7012,4.7012,4.7012,4.7012,4.7099,4.7159,4.6248,4.604,4.6132,4.5199,4.4876,4.4857,4.4726,4.467,4.4651,4.4538,4.4501,4.4537,4.4701,4.4782,4.48,4.4849,4.5152,4.5481,4.5626,4.5427,4.501,4.4206,4.4059,4.3561,4.163,4.1127,4.079,3.9946,3.9683,3.9589,3.9589,3.9589,3.9589,3.9589,0.0,3.9589,3.9589,3.9589,3.9589,3.9589,3.9589,3.9589,3.9589,3.9589,3.9589,3.9589,3.9589,3.9589,3.9589,3.9589,3.9589,3.9589,3.9589,3.9589,3.9589,3.9589,3.9589,3.9589,3.9589,3.9589,3.9589,3.9589,3.9589,3.9589,3.9589,3.9589,3.9608,3.9721,3.9777,3.989,4.0685,4.1511,4.2305,4.4253,4.468,4.5214,4.5895,4.6381,4.6731,4.7002,4.7187,4.7302,4.7363,4.7554,4.7717,4.7717,4.7717,4.7717,4.7717,4.7717,4.7806,4.8094,4.8153,4.8421,4.8974,4.893,4.9024,4.9302,4.9189,4.8758,4.8007,4.8007,4.7669,4.7012,4.7012,4.7012,4.7012,4.7012,4.7012,4.7012,4.7012,4.7012,4.7012,4.7012,4.7007,4.7032,4.6857,4.6815,4.6844,4.6669,4.6617,4.6505,4.5754,4.551,4.5397,4.4707,4.4501,4.4515,4.4537,4.4668,4.4849,4.5074,4.5182,4.5203,4.4992,4.5066,4.511,4.4737,4.4155,4.3586,4.3242,4.192,4.0791,4.0641,4.0059,3.9589,3.9589,3.9589,3.9589,3.9589,0.0,3.9589,3.9589,3.9589,3.9589,3.9589,3.9589,3.9589,3.9589,3.9589,3.9589,3.9589,3.9589,3.9589,3.9589,3.9589,3.9589,3.9589,3.9589,3.9589,3.9589,3.9589,3.9589,3.9589,3.9589,3.9589,3.9589,3.9589,3.9589,3.9589,3.9589,3.9589,3.9664,4.0347,4.0609,4.0703,4.1516,4.2374,4.3125,4.4224,4.4446,4.4818,4.5641,4.5938,4.6211,4.6708,4.687,4.7012,4.7276,4.7316,4.7421,4.7657,4.7554,4.7533,4.7696,4.7717,4.7762,4.787,4.8015,4.8212,4.8495,4.8695,4.8906,4.9211,4.9412,4.9302,4.8908,4.8908,4.8701,4.8363,4.8363,4.8363,4.8363,4.8363,4.8363,4.8363,4.8363,4.8363,4.8363,4.8363,4.8363,4.8307,4.7838,4.765,4.7594,4.7162,4.7012,4.6936,4.6542,4.6411,4.6336,4.5946,4.5514,4.5153,4.5153,4.4982,4.4868,4.5137,4.5201,4.518,4.5052,4.5192,4.5255,4.4884,4.4623,4.4277,4.3574,4.2761,4.1867,4.0966,4.0497,4.0096,3.9664,3.9589,3.9589,3.9589,3.9589,3.9589,3.9589,3.9589,3.9589,3.9589,3.9589,3.9589,3.9589,3.9589,3.9589,3.9589,3.9589,3.9589,3.9589,3.9589,3.9589,3.9589,3.9589,3.9589,3.9589,3.9589,3.9589,3.9589,3.9589,3.9589,3.9589,3.9589,3.9589,3.9589,3.9589,3.9871,4.0272,4.0666,4.106,4.1535,4.2393,4.2956,4.3351,4.408,4.4224,4.4519,4.5186,4.5477,4.5786,4.6284,4.6495,4.6802,4.7348,4.7316,4.7478,4.8114,4.7921,4.7899,4.8239,4.8196,4.8196,4.8261,4.8436,4.8437,4.8114,4.8421,4.8731,4.8991,4.9262,4.9427,4.9509,4.9509,4.9509,4.9509,4.9509,4.9509,4.9509,4.9509,4.9509,4.9509,4.9509,4.9509,4.9509,4.9509,4.9509,4.9434,4.8758,4.8495,4.842,4.78,4.7594,4.7556,4.735,4.7274,4.7256,4.7068,4.6542,4.5998,4.5998,4.5531,4.5016,4.5019,4.5038,4.5038,4.5038,4.5161,4.5173,4.4807,4.4898,4.4763,4.3783,4.3426,4.29,4.1623,4.1229,4.0816,4.0021,0.0,3.9815,3.9627,3.9589,3.9589,3.9589,3.9589,3.9589,3.9589,3.9589,3.9589,3.9589,3.9589,3.9589,3.9589,3.9589,3.9589,3.9589,3.9589,3.9589,3.9589,3.9589,3.9589,3.9589,3.9589,3.9589,3.9589,3.9589,3.9589,3.9608,3.9796,3.989,3.989,4.0078,4.0516,4.1098,4.1304,4.1755,4.2399,4.3257,4.3576,4.367,4.3641,4.3993,4.4321,4.4378,4.5052,4.5606,4.5658,4.6211,4.6879,4.7665,4.7903,4.8429,4.9441,4.9304,4.9351,4.9886,4.969,4.9645,4.9908,4.9952,4.9392,4.8149,4.8421,4.8731,4.8991,4.9008,4.9179,4.9509,4.9509,4.9509,4.9509,4.9509,4.9509,4.9509,4.9509,4.9509,4.9509,4.9509,4.9509,4.9509,4.9509,4.9509,4.949,4.9434,4.9396,4.9396,4.934,4.9321,4.9189,4.8382,4.8101,4.7969,4.7237,4.6974,4.6899,4.6899,4.6294,4.5477,4.4758,4.4551,4.4551,4.4551,4.4565,4.4546,4.4524,4.4537,4.4519,4.4421,4.382,4.3257,4.3125,4.2468,4.1648,4.0835,0.0,0.0,3.9702,3.9589,3.9589,3.9589,3.9589,3.9589,3.9589,3.9589,3.9589,3.9589,3.9589,3.9589,3.9589,3.9589,3.9589,3.9589,3.9589,3.9589,3.9589,3.9589,3.9589,3.9589,3.9589,3.9589,3.9589,3.9589,3.9589,3.9646,4.0384,4.0703,4.0778,4.1516,4.1854,4.1986,4.2806,4.3144,4.3294,4.412,4.4407,4.4407,4.3598,4.373,4.3964,4.4253,4.4965,4.5672,4.6194,4.6882,4.7629,4.8392,4.841,4.8639,4.9377,4.9197,4.9197,4.9577,4.9647,4.9739,4.9848,4.9848,4.9693,4.9377,4.9633,4.9911,5.0231,5.0412,5.0656,5.0992,5.0992,5.0992,5.0992,5.0485,5.0241,5.0222,4.9715,4.9509,4.9509,4.9509,4.9509,4.9509,4.9509,4.9509,4.9509,4.9509,4.9509,4.9509,4.9509,4.9509,4.9452,4.9114,4.9002,4.8945,4.8645,4.8176,4.765,4.7162,4.6768,4.6448,4.6129,4.5391,4.4655,4.4537,4.4713,4.4857,4.4565,4.4613,4.4642,4.4524,4.4257,4.3895,4.3388,4.3031,4.2524,4.1667,0.0,4.1267,4.0459,4.0328,4.0171,3.9664,3.9589,3.9589,3.9589,3.9589,3.9589,3.9589,3.9589,3.9589,3.9589,3.9589,3.9589,3.9589,3.9589,3.9589,3.9589,3.9589,3.9589,3.9589,3.9589,3.9871,4.0328,4.0328,4.0609,4.1116,4.1404,4.1535,4.1573,4.1873,4.2323,4.2844,4.3163,4.3595,4.4083,4.4388,4.4501,4.4501,4.391,4.3959,4.4115,4.4658,4.5362,4.6003,4.6535,4.7422,4.8233,4.8863,4.9052,4.9319,4.9859,4.977,4.977,5.0042,5.0211,5.0354,5.0448,5.0518,5.0393,4.9978,5.0228,5.0527,5.0831,5.112,5.1431,5.1742,5.1844,5.1912,5.1893,5.133,5.1067,5.1048,5.0504,5.026,5.0241,4.9978,4.9884,4.9847,4.9602,4.9509,4.9509,4.9509,4.9509,4.9509,4.9509,4.9509,4.9509,4.9509,4.9509,4.9509,4.9509,4.9096,4.8495,4.795,4.7594,4.7387,4.7387,4.6459,4.5398,4.497,4.494,4.4905,4.456,4.4608,4.4668,4.4524,4.4501,4.4332,4.3782,4.3688,4.3407,4.2549,4.2399,4.2117,4.1304,4.1191,4.0966,4.0422,4.0347,4.0253,4.0002,3.9984,3.9871,3.9627,3.9589,3.9677,3.9845,3.9927,4.004,4.0207,4.0321,4.0347,4.0347,4.0096,3.9984,3.9984,4.0228,4.0647,4.1191,4.1191,4.1479,4.2023,4.2286,4.2399,4.2417,4.268,4.3131,4.3688,4.3688,4.4008,4.4501,4.4501,4.4501,4.4501,4.4556,4.4705,4.492,4.5665,4.6287,4.6676,4.6544,4.7641,4.8636,4.8962,4.9862,5.0724,5.1244,5.1281,5.141,5.1665,5.169,5.1815,5.2084,5.234,5.1682,4.9783,4.9978,5.0224,5.0506,5.085,5.1157,5.1413,5.1744,5.1914,5.1914,5.1912,5.1912,5.1912,5.1912,5.1912,5.1855,5.1048,5.0707,5.0651,4.9828,4.9509,4.9509,4.9509,4.9509,4.9509,4.9509,4.9509,4.9509,4.9509,4.9509,4.9509,4.9509,4.9509,4.9509,4.9509,4.8889,4.8194,4.8194,4.7612,4.6805,4.5923,4.5115,4.4519,4.4501,4.4501,4.4501,4.4501,4.4501,4.4501,4.4501,4.4501,4.4252,4.3444,4.3313,4.3013,4.2136,4.2004,4.2004,4.2004,4.2004,4.1685,4.0891,4.0816,4.0478,3.9683,3.9627,3.9845,4.037,4.0662,4.1049,4.158,4.1846,4.1991,4.2004,4.121,4.0816,4.0816,4.161,4.2004,4.2004,4.2004,4.2004,4.2079,4.2938,4.3313,4.3369,4.4177,4.4501,4.4501,4.4501,4.4501,4.4501,4.4501,4.4501,4.4501,4.5317,4.5467,4.5533,4.5748,4.651,4.7169,4.7457,4.8269,4.9189,5.0118,5.039,5.077,5.1503,5.1564,5.1615,5.169,5.1864,5.2011,5.2084,5.234,5.2165,5.1424,5.1641,5.1936,5.2246,5.2333,5.2644,5.3162,5.3235,5.3307,5.3307,5.2973,5.2675,5.2447,5.2073,5.1912,5.1874,5.1649,5.1536,5.1461,5.0673,5.0335,5.0278,4.9715,4.9509,4.9509,4.9509,4.9509,4.9509,4.9509,4.9509,4.9509,4.9509,4.9509,4.9509,4.9509,4.9321,4.9114,4.9114,4.8495,4.7631,4.6824,4.643,4.6092,4.5491,4.5341,4.519,4.4613,4.4501,4.4501,4.4501,4.4501,4.4407,4.4177,4.4139,4.3857,4.3031,4.2919,4.2693,4.2079,4.2004,4.1911,4.1667,4.1629,4.1535,4.1291,4.1285,4.1188,4.0974,4.1217,4.1432,4.1585,4.1359,4.1393,4.1722,4.1474,4.1362,4.1362,4.1605,4.2053,4.2632,4.2819,4.3219,4.3769,4.4045,4.4139,4.4144,4.4388,4.4501,4.4501,4.4501,4.4501,4.4501,4.4501,4.4501,4.4501,4.6079,4.6228,4.6328,4.6609,4.7168,4.769,4.797,4.8649,4.9376,5.0022,5.0265,5.0497,5.0768,5.1052,5.1175,5.107,5.1521,5.1815,5.1938,5.2084,5.2108,5.1938,5.2102,5.2369,5.2779,5.2934,5.3193,5.3543,5.3642,5.37,5.3701,5.3404,5.3181,5.2976,5.2784,5.2682,5.2663,5.2482,5.24,5.2344,5.1499,5.1161,5.1086,5.0278,4.9959,4.9922,4.9602,4.9509,4.9509,4.9509,4.9509,4.9509,4.9509,4.9509,4.9509,4.9509,4.9509,4.9509,4.9509,4.9114,4.8607,4.8119,4.75,4.6861,4.6336,4.6204,4.5979,4.5153,4.4984,4.489,4.4557,4.4501,4.4501,4.4501,4.4501,4.4332,4.3839,4.3764,4.3576,4.3055,4.2999,4.2868,4.2549,4.2411,4.2165,4.1726,4.1675,4.1646,4.1558,4.1736,4.1927,4.215,4.1987,4.2004,4.2179,4.2247,4.2162,4.1954,4.2288,4.276,4.3383,4.3548,4.3943,4.4501,4.4501,4.4501,4.4501,4.4501,4.4501,4.4501,4.4501,4.4501,4.4487,4.4383,4.4335,4.4321,4.6841,4.699,4.7206,4.7885,4.8115,4.8195,4.8195,4.8841,4.9239,4.9046,4.9676,4.9959,4.9534,5.0067,5.0404,5.0187,5.0901,5.1436,5.169,5.169,5.169,5.169,5.1715,5.1963,5.2434,5.2757,5.2955,5.2999,5.3242,5.3367,5.3367,5.3387,5.3387,5.3367,5.3719,5.387,5.387,5.3447,5.3266,5.3243,5.2362,5.2024,5.1931,5.1123,5.0764,5.0598,4.9865,4.9565,4.9509,4.9509,4.9509,4.9509,4.9509,4.9509,4.9509,4.9509,4.9509,4.9509,4.9509,4.9509,4.9509,4.9509,4.8363,4.7199,4.7143,4.7124,4.6861,4.5998,4.5829,4.5566,4.4759,4.4613,4.4576,4.4501,4.4501,4.4501,4.4501,4.4501,4.4501,4.4501,4.4501,4.4214,4.3482,4.316,4.2559,4.1467,4.1412,4.1632,4.2152,4.2256,4.2516,4.2996,4.3213,4.3248,4.3123,4.3195,4.3006,4.2541,4.3295,4.3809,4.4079,4.4075,4.4262,4.4501,4.4501,4.4501,4.4501,4.4501,4.4501,4.4501,4.4468,4.4454,4.4426,4.417,4.406,4.403,4.762,4.7769,4.7819,4.7968,4.8115,4.8195,4.8195,4.8467,4.8827,4.9269,4.9462,4.9676,4.997,5.0167,5.0407,5.0697,5.1262,5.164,5.169,5.169,5.169,5.169,5.1889,5.2078,5.2198,5.2251,5.2531,5.2999,5.3066,5.3088,5.3091,5.3304,5.3283,5.3109,5.3385,5.3643,5.3889,5.3794,5.3882,5.4071,5.3245,5.2923,5.2829,5.1968,5.1255,5.0688,5.0501,5.0034,4.9509,4.9509,4.9509,4.9509,4.9509,4.9509,4.9509,4.9509,4.9509,4.9509,4.9509,4.9509,4.9509,4.9509,4.9227,4.8776,4.8101,4.7932,4.7706,4.6899,4.673,4.6467,4.5604,4.5435,4.5228,4.4594,4.4501,4.4501,4.4501,4.4501,4.4501,4.4501,4.4501,4.4426,4.4257,4.4001,4.3571,4.2893,4.3045,4.3018,4.2741,4.294,4.312,4.3231,4.292,4.292,4.3249,4.292,4.281,4.2904,4.3229,4.3528,4.3793,4.3999,4.4262,4.4501,4.444,4.444,4.4501,4.444,4.444,4.4487,4.4277,4.4185,4.4155,4.3889,4.3777,4.3777,4.7918,4.8001,4.8001,4.8001,4.8049,4.8115,4.8195,4.8227,4.8388,4.8796,4.8765,4.8841,4.911,4.9334,4.9775,5.0442,5.0768,5.1096,5.1487,5.1513,5.1513,5.1513,5.1765,5.184,5.1715,5.184,5.2204,5.2775,5.2775,5.2775,5.2757,5.2915,5.2915,5.2757,5.3069,5.3302,5.3484,5.3776,5.3999,5.4143,5.387,5.377,5.3677,5.2832,5.225,5.178,5.0806,4.9851,4.9062,4.9062,4.9062,4.9062,4.9062,4.9164,4.9262,4.9262,4.9377,4.9509,4.9509,4.9509,4.9509,4.9509,4.9509,4.9377,4.8927,4.8814,4.857,4.7744,4.7575,4.7312,4.6467,4.6317,4.6186,4.5758,4.5326,4.5078,4.5078,4.4726,4.4501,4.4501,4.4501,4.444,4.4321,4.4079,4.3744,4.3338,4.3303,4.3214,4.2901,4.2939,4.2976,4.2976,4.2728,4.267,4.2807,4.2786,4.2767,4.2807,4.3142,4.3442,4.3712,4.3968,4.4262,4.4501,4.4454,4.4397,4.4306,4.4277,4.4185,4.4094,4.3952,4.3905,4.3873,4.3612,4.3425,4.332,4.8001,4.8001,4.8001,4.8001,4.8033,4.8049,4.8147,4.8147,4.8164,4.8195,4.8147,4.8131,4.8099,4.8593,4.9239,4.9976,5.0244,5.0612,5.1176,5.1228,5.1176,5.1105,5.1393,5.1418,5.1158,5.1513,5.1914,5.2364,5.2364,5.2387,5.241,5.241,5.2452,5.2521,5.2779,5.2955,5.3023,5.3524,5.3757,5.3833,5.418,5.4268,5.4158,5.3536,5.3198,5.2811,5.1131,4.9803,4.8772,4.8661,4.8605,4.8605,4.8605,4.8749,4.8923,4.8923,4.9129,4.9345,4.9393,4.9409,4.9427,4.9493,4.9509,4.9509,4.9509,4.9509,4.9283,4.857,4.842,4.8176,4.7368,4.7218,4.7162,4.703,4.6392,4.5866,4.5716,4.5134,4.4651,4.4519,4.4501,4.4383,4.406,4.3825,4.3562,4.3249,4.3032,4.2901,4.2901,4.2747,4.265,4.265,4.265,4.2571,4.2391,4.2729,4.2824,4.2668,4.3087,4.3425,4.3629,4.3857,4.4109,4.4368,4.4354,4.4233,4.403,4.4014,4.3889,4.3695,4.3646,4.3629,4.3595,4.332,4.3087,4.2901,4.8001,4.8001,4.8001,4.8001,4.8082,4.8147,4.8033,4.8389,4.858,4.8227,4.8485,4.8644,4.8452,4.9329,4.9861,4.975,5.0803,5.1315,5.0998,5.0892,5.0694,5.0289,5.0694,5.0812,5.0614,5.1331,5.174,5.1815,5.1815,5.1914,5.215,5.215,5.2269,5.2498,5.2544,5.2731,5.302,5.3088,5.3261,5.3487,5.3833,5.3795,5.3565,5.374,5.32,5.2305,5.2044,5.0933,4.9529,4.8827,4.8605,4.8605,4.8605,4.8623,4.866,4.866,4.8678,4.8767,4.8991,4.9077,4.9146,4.9427,4.9509,4.9509,4.9509,4.9509,4.9471,4.9358,4.9321,4.9058,4.8194,4.8044,4.78,4.7124,4.6899,4.6561,4.581,4.5604,4.5284,4.4576,4.4501,4.4292,4.3793,4.3712,4.3494,4.2995,4.292,4.2901,4.2901,4.2863,4.2862,4.2862,4.2862,4.2862,4.2806,4.2863,4.29,4.2844,4.316,4.332,4.3355,4.339,4.3562,4.3793,4.3763,4.3728,4.3744,4.3679,4.3679,4.3679,4.3442,4.3355,4.332,4.305,4.292,4.2901,4.8001,4.8001,4.8001,4.8001,4.8066,4.8082,4.8115,4.8308,4.8436,4.8388,4.8515,4.8595,4.8515,4.892,4.9226,4.929,4.9849,5.0205,5.0289,5.0254,5.0153,4.9925,5.0515,5.0651,5.0282,5.1044,5.1384,5.1246,5.1538,5.1765,5.1864,5.1864,5.1938,5.2036,5.2036,5.2132,5.2286,5.2417,5.2563,5.2704,5.321,5.331,5.3208,5.3506,5.3304,5.2796,5.2191,5.1108,4.9846,4.9042,4.8768,4.8694,4.8238,4.8191,4.8326,4.8326,4.8439,4.8623,4.8749,4.8889,4.9044,4.9179,4.9361,4.9509,4.9509,4.9509,4.9509,4.9509,4.9509,4.9377,4.9002,4.8927,4.8814,4.8457,4.7988,4.7537,4.7143,4.6711,4.6052,4.5058,4.4557,4.4124,4.3728,4.3562,4.3373,4.3142,4.2976,4.2901,4.2901,4.2901,4.2901,4.2901,4.2786,4.2728,4.2728,4.2611,4.2611,4.2728,4.2729,4.2939,4.3303,4.346,4.3579,4.3695,4.3662,4.3579,4.3477,4.3442,4.3355,4.3232,4.3105,4.3013,4.2901,4.2786,4.2728,4.2728]}]]